[[{"header":{"parameterUnit":"m.s-1","parameterCategory":1,"la1":30.6,"la2":29.2853,"lo1":-89.7004,"lo2":-87.6739,"dy":0.0162,"dx":0.0183,"nx":112,"ny":82,"refTime":"2023-04-05T12:00:00:Z","depth":0,"parameterNumber":2,"parameterNumberName":"U-component_of_WINDS"},"data":[0.0,0.0,0.0,0.0,0.0,0.0,0.0,0.0,0.0,0.0,0.0,0.0,0.0,0.0,0.0,0.0,0.0,0.0,0.0,0.0,0.0,0.0,0.0,0.0,0.0,0.0,0.0,0.0,0.0,0.0,0.0,0.0,0.0,0.0,0.0,0.0,0.0,0.0,0.0,0.0,0.0,0.0,0.0,0.0,0.0,0.0,0.0,0.0,0.0,0.0,0.0,0.0,0.0,0.0,0.0,0.0,0.0,0.0,0.0,0.0,0.0,0.0,0.0,0.0,0.0,0.0,0.0,0.0,0.0,0.0,0.0,0.0,0.0,0.0,0.0,0.0,0.0,0.0,0.0,0.0,0.0,0.0,0.0,0.0,0.0,0.0,0.0,0.0,0.0,0.0,-4.0144,-4.1769,-4.3221,-4.3961,-4.3686,-4.267,-4.1182,-3.907,0.0,0.0,0.0,0.0,0.0,0.0,0.0,0.0,0.0,0.0,0.0,0.0,0.0,0.0,0.0,0.0,0.0,0.0,0.0,0.0,0.0,0.0,0.0,0.0,0.0,0.0,0.0,0.0,0.0,0.0,0.0,0.0,0.0,0.0,0.0,0.0,0.0,0.0,0.0,0.0,0.0,0.0,0.0,0.0,0.0,0.0,0.0,0.0,0.0,0.0,0.0,0.0,0.0,0.0,0.0,0.0,0.0,0.0,0.0,0.0,0.0,0.0,0.0,0.0,0.0,0.0,0.0,0.0,0.0,0.0,0.0,0.0,0.0,0.0,0.0,0.0,0.0,0.0,0.0,0.0,0.0,0.0,0.0,0.0,0.0,0.0,0.0,0.0,0.0,0.0,0.0,0.0,0.0,0.0,0.0,0.0,0.0,0.0,0.0,0.0,0.0,0.0,0.0,0.0,-4.2035,-4.5032,-4.4804,-4.4378,-4.4361,-4.2861,-4.1151,-3.9266,0.0,0.0,0.0,0.0,0.0,0.0,0.0,0.0,0.0,0.0,0.0,0.0,0.0,0.0,0.0,0.0,0.0,0.0,0.0,0.0,0.0,0.0,0.0,0.0,0.0,0.0,0.0,0.0,0.0,0.0,0.0,0.0,0.0,0.0,0.0,0.0,0.0,0.0,0.0,0.0,0.0,0.0,0.0,0.0,0.0,0.0,0.0,0.0,0.0,0.0,0.0,0.0,0.0,0.0,0.0,0.0,0.0,0.0,0.0,0.0,0.0,0.0,0.0,0.0,0.0,0.0,0.0,0.0,0.0,0.0,0.0,0.0,0.0,0.0,0.0,0.0,0.0,0.0,0.0,0.0,0.0,0.0,0.0,0.0,0.0,0.0,0.0,0.0,0.0,0.0,0.0,0.0,0.0,0.0,0.0,0.0,0.0,0.0,0.0,0.0,0.0,0.0,0.0,-4.1105,-4.3482,-4.5682,-4.5092,-4.4473,-4.4406,-4.2859,-4.1119,-3.9371,-3.8322,0.0,0.0,0.0,0.0,0.0,0.0,0.0,0.0,0.0,0.0,0.0,0.0,0.0,0.0,0.0,0.0,0.0,0.0,0.0,0.0,0.0,0.0,0.0,0.0,0.0,0.0,0.0,0.0,0.0,0.0,0.0,0.0,0.0,0.0,0.0,0.0,0.0,0.0,0.0,0.0,0.0,0.0,0.0,0.0,0.0,0.0,0.0,0.0,0.0,0.0,0.0,0.0,0.0,0.0,0.0,0.0,0.0,0.0,0.0,0.0,0.0,0.0,0.0,0.0,0.0,0.0,0.0,0.0,0.0,0.0,0.0,0.0,0.0,0.0,0.0,0.0,0.0,0.0,0.0,0.0,0.0,0.0,0.0,0.0,0.0,0.0,0.0,0.0,0.0,0.0,0.0,0.0,0.0,0.0,0.0,0.0,0.0,0.0,0.0,0.0,0.0,0.0,-4.2793,-4.4512,-4.5769,-4.5277,-4.4771,-4.4509,-4.2914,-4.1259,-3.9629,-3.8571,0.0,0.0,0.0,0.0,0.0,0.0,0.0,0.0,0.0,0.0,0.0,0.0,0.0,0.0,0.0,0.0,0.0,0.0,0.0,0.0,0.0,0.0,0.0,0.0,0.0,0.0,0.0,0.0,0.0,0.0,0.0,0.0,0.0,0.0,0.0,0.0,0.0,0.0,0.0,0.0,0.0,0.0,0.0,0.0,0.0,0.0,0.0,0.0,0.0,0.0,0.0,0.0,0.0,0.0,0.0,0.0,0.0,0.0,0.0,0.0,0.0,0.0,0.0,0.0,0.0,0.0,0.0,0.0,0.0,0.0,0.0,0.0,0.0,0.0,0.0,0.0,0.0,0.0,0.0,0.0,0.0,0.0,0.0,0.0,0.0,0.0,0.0,0.0,0.0,0.0,0.0,0.0,0.0,0.0,0.0,0.0,0.0,0.0,0.0,0.0,0.0,0.0,-4.3508,-4.4769,-4.6109,-4.6115,-4.5722,-4.5018,-4.3186,-4.1533,-4.0219,-3.8223,0.0,0.0,0.0,0.0,0.0,0.0,0.0,0.0,0.0,0.0,0.0,0.0,0.0,0.0,0.0,0.0,0.0,0.0,0.0,0.0,0.0,0.0,0.0,0.0,0.0,0.0,0.0,0.0,0.0,0.0,0.0,0.0,0.0,0.0,0.0,0.0,0.0,0.0,0.0,0.0,0.0,0.0,0.0,0.0,0.0,0.0,0.0,0.0,0.0,0.0,0.0,0.0,0.0,0.0,0.0,0.0,0.0,0.0,0.0,0.0,0.0,0.0,0.0,0.0,0.0,0.0,0.0,0.0,0.0,0.0,0.0,0.0,0.0,0.0,0.0,0.0,0.0,0.0,0.0,0.0,0.0,0.0,0.0,0.0,0.0,0.0,0.0,0.0,0.0,0.0,0.0,0.0,0.0,0.0,0.0,0.0,0.0,0.0,0.0,0.0,0.0,0.0,-4.3069,-4.449,-4.6012,-4.5631,-4.5108,-4.4839,-4.316,-4.138,-3.9676,0.0,0.0,0.0,0.0,0.0,0.0,0.0,0.0,0.0,0.0,0.0,0.0,0.0,0.0,0.0,0.0,0.0,0.0,0.0,0.0,0.0,0.0,0.0,0.0,0.0,0.0,0.0,0.0,0.0,0.0,0.0,0.0,0.0,0.0,0.0,0.0,0.0,0.0,0.0,0.0,0.0,0.0,0.0,0.0,0.0,0.0,0.0,0.0,0.0,0.0,0.0,0.0,0.0,0.0,0.0,0.0,0.0,0.0,0.0,0.0,0.0,0.0,0.0,0.0,0.0,0.0,0.0,0.0,0.0,0.0,0.0,0.0,0.0,0.0,0.0,0.0,0.0,0.0,0.0,0.0,0.0,0.0,0.0,0.0,0.0,0.0,0.0,0.0,0.0,0.0,0.0,0.0,0.0,0.0,0.0,0.0,0.0,0.0,0.0,0.0,0.0,0.0,-4.1753,-4.28,-4.402,0.0,-4.5153,-4.4746,-4.4746,-4.2969,-4.1236,-3.977,0.0,0.0,0.0,0.0,0.0,0.0,0.0,0.0,0.0,0.0,0.0,0.0,0.0,0.0,0.0,0.0,0.0,0.0,0.0,0.0,0.0,0.0,0.0,0.0,0.0,0.0,0.0,0.0,0.0,0.0,0.0,0.0,0.0,0.0,0.0,0.0,0.0,0.0,0.0,0.0,0.0,0.0,0.0,0.0,0.0,0.0,0.0,0.0,0.0,0.0,0.0,0.0,0.0,0.0,0.0,0.0,0.0,0.0,0.0,0.0,0.0,0.0,0.0,0.0,0.0,0.0,0.0,0.0,0.0,0.0,0.0,0.0,0.0,0.0,0.0,0.0,0.0,0.0,0.0,0.0,0.0,0.0,0.0,0.0,0.0,0.0,0.0,0.0,0.0,0.0,0.0,0.0,0.0,0.0,0.0,0.0,0.0,0.0,0.0,0.0,0.0,0.0,-4.2845,-4.2925,-4.3324,-4.4772,-4.4911,-4.4911,-4.4911,-4.2688,-4.116,0.0,0.0,0.0,0.0,0.0,0.0,0.0,0.0,0.0,0.0,0.0,0.0,0.0,0.0,0.0,0.0,0.0,0.0,0.0,0.0,0.0,0.0,0.0,0.0,0.0,0.0,0.0,0.0,0.0,0.0,0.0,0.0,0.0,0.0,0.0,0.0,0.0,0.0,0.0,0.0,0.0,0.0,0.0,0.0,0.0,0.0,0.0,0.0,0.0,0.0,0.0,0.0,0.0,0.0,0.0,0.0,0.0,0.0,0.0,0.0,0.0,0.0,0.0,0.0,0.0,0.0,0.0,0.0,0.0,0.0,0.0,0.0,0.0,0.0,0.0,0.0,0.0,0.0,0.0,0.0,0.0,0.0,0.0,0.0,0.0,0.0,0.0,0.0,0.0,0.0,0.0,0.0,0.0,0.0,0.0,0.0,0.0,0.0,0.0,0.0,0.0,0.0,0.0,-4.2959,-4.3138,-4.3587,-4.4781,-4.4761,-4.4761,-4.4874,-4.3119,-4.1658,-4.0816,0.0,0.0,0.0,0.0,0.0,0.0,0.0,0.0,0.0,0.0,0.0,0.0,0.0,0.0,0.0,0.0,0.0,0.0,0.0,0.0,0.0,0.0,0.0,0.0,0.0,0.0,0.0,0.0,0.0,0.0,0.0,0.0,0.0,0.0,0.0,0.0,0.0,0.0,0.0,0.0,0.0,0.0,0.0,0.0,0.0,0.0,0.0,0.0,0.0,0.0,0.0,0.0,0.0,0.0,0.0,0.0,0.0,0.0,0.0,0.0,0.0,0.0,0.0,0.0,0.0,0.0,0.0,0.0,0.0,0.0,0.0,0.0,0.0,0.0,0.0,0.0,0.0,0.0,0.0,0.0,0.0,0.0,0.0,0.0,0.0,0.0,0.0,0.0,0.0,0.0,0.0,0.0,0.0,0.0,0.0,0.0,0.0,0.0,0.0,0.0,0.0,0.0,-4.3227,-4.3195,-4.351,-4.4803,-4.4834,-4.4902,-4.5318,-4.3891,-4.2615,-4.1797,0.0,0.0,0.0,0.0,0.0,0.0,0.0,0.0,0.0,0.0,0.0,0.0,0.0,0.0,0.0,0.0,0.0,0.0,0.0,0.0,0.0,0.0,0.0,0.0,0.0,0.0,0.0,0.0,0.0,0.0,0.0,0.0,0.0,0.0,0.0,0.0,0.0,0.0,0.0,0.0,0.0,0.0,0.0,0.0,0.0,0.0,0.0,0.0,0.0,0.0,0.0,0.0,0.0,0.0,0.0,0.0,0.0,0.0,0.0,0.0,0.0,0.0,0.0,0.0,0.0,0.0,0.0,0.0,0.0,0.0,0.0,0.0,0.0,0.0,0.0,0.0,0.0,0.0,0.0,0.0,0.0,0.0,0.0,0.0,0.0,0.0,0.0,0.0,0.0,0.0,0.0,0.0,0.0,0.0,0.0,0.0,0.0,0.0,0.0,0.0,0.0,0.0,-4.3513,-4.3198,-4.3339,-4.4877,-4.5014,-4.5287,-4.5956,-4.4747,-4.3753,-4.3282,0.0,0.0,0.0,0.0,0.0,0.0,0.0,0.0,0.0,0.0,0.0,0.0,0.0,0.0,0.0,0.0,0.0,0.0,0.0,0.0,0.0,0.0,0.0,0.0,0.0,0.0,0.0,0.0,0.0,0.0,0.0,0.0,0.0,0.0,0.0,0.0,0.0,0.0,0.0,0.0,0.0,0.0,0.0,0.0,0.0,0.0,0.0,0.0,0.0,0.0,0.0,0.0,0.0,0.0,0.0,0.0,0.0,0.0,0.0,0.0,-3.8265,-3.7917,0.0,0.0,0.0,0.0,0.0,0.0,0.0,0.0,0.0,0.0,0.0,0.0,0.0,0.0,0.0,0.0,0.0,0.0,0.0,0.0,0.0,0.0,0.0,0.0,0.0,0.0,0.0,0.0,0.0,0.0,0.0,0.0,0.0,0.0,0.0,0.0,0.0,0.0,0.0,0.0,-4.3611,-4.3888,-4.4257,-4.5159,-4.5251,-4.5526,-4.6198,-4.4722,-4.3756,-4.373,-4.006,0.0,0.0,0.0,0.0,0.0,0.0,0.0,0.0,0.0,0.0,0.0,0.0,0.0,0.0,0.0,0.0,0.0,0.0,0.0,0.0,0.0,0.0,0.0,0.0,0.0,0.0,0.0,0.0,0.0,0.0,0.0,0.0,0.0,0.0,0.0,0.0,0.0,0.0,0.0,0.0,0.0,0.0,0.0,0.0,0.0,0.0,0.0,0.0,0.0,0.0,0.0,0.0,0.0,0.0,0.0,0.0,0.0,0.0,0.0,-4.0239,-3.9496,0.0,0.0,0.0,0.0,0.0,0.0,0.0,0.0,0.0,0.0,0.0,0.0,0.0,0.0,0.0,0.0,0.0,0.0,0.0,0.0,0.0,0.0,0.0,0.0,0.0,0.0,0.0,0.0,0.0,0.0,0.0,0.0,0.0,0.0,0.0,0.0,0.0,0.0,0.0,0.0,-4.3914,-4.4322,-4.4917,-4.5986,-4.6112,-4.6396,-4.7063,-4.5616,-4.4645,-4.4579,-4.1656,0.0,0.0,0.0,0.0,0.0,0.0,0.0,0.0,0.0,0.0,0.0,0.0,0.0,0.0,0.0,0.0,0.0,0.0,0.0,0.0,0.0,0.0,0.0,0.0,0.0,0.0,0.0,0.0,0.0,0.0,0.0,0.0,0.0,0.0,0.0,0.0,0.0,0.0,0.0,0.0,0.0,0.0,0.0,0.0,0.0,0.0,0.0,0.0,0.0,0.0,0.0,0.0,0.0,-4.4391,-4.458,-4.4313,-4.4788,-4.4445,-4.3362,-4.2173,-4.1071,-4.0076,-3.9971,0.0,0.0,0.0,0.0,0.0,0.0,0.0,0.0,0.0,0.0,0.0,0.0,0.0,0.0,0.0,0.0,0.0,0.0,0.0,0.0,0.0,0.0,0.0,0.0,-4.0413,-4.068,-3.8935,0.0,0.0,0.0,0.0,0.0,0.0,0.0,0.0,0.0,0.0,0.0,-4.4244,-4.4748,-4.545,-4.695,-4.7088,-4.7333,-4.7946,-4.6607,-4.5605,-4.5304,-4.3483,-4.1607,0.0,0.0,0.0,0.0,0.0,0.0,0.0,0.0,0.0,0.0,0.0,0.0,0.0,0.0,0.0,0.0,0.0,0.0,0.0,0.0,0.0,0.0,0.0,0.0,0.0,0.0,0.0,0.0,0.0,0.0,0.0,0.0,-3.7503,-3.8725,0.0,0.0,0.0,0.0,0.0,0.0,0.0,0.0,0.0,0.0,0.0,0.0,0.0,-4.4273,-4.4338,-4.4671,-4.4833,-4.4788,-4.4789,-4.474,-4.4723,-4.4919,-4.4903,-4.4756,-4.4718,0.0,-4.2759,-4.1313,0.0,0.0,0.0,0.0,0.0,0.0,0.0,0.0,0.0,0.0,0.0,0.0,0.0,0.0,0.0,0.0,0.0,0.0,0.0,0.0,0.0,0.0,-4.0006,-4.1036,-4.1395,-4.1595,0.0,-4.0966,-4.0151,-4.0309,-4.0297,0.0,0.0,0.0,0.0,0.0,0.0,0.0,-4.4413,-4.5276,-4.6189,-4.7384,-4.7507,-4.7661,-4.7988,-4.66,-4.5597,-4.5304,-4.3489,-4.2177,-4.1697,-4.021,0.0,0.0,0.0,0.0,0.0,0.0,0.0,0.0,0.0,0.0,0.0,0.0,0.0,0.0,0.0,0.0,0.0,0.0,0.0,0.0,0.0,0.0,0.0,0.0,0.0,0.0,0.0,0.0,0.0,-3.7443,-3.9206,-4.057,-4.0347,-4.0384,0.0,0.0,0.0,0.0,0.0,0.0,0.0,0.0,0.0,-4.3683,-4.488,-4.5597,-4.5726,-4.593,-4.6094,-4.6238,-4.6171,-4.6071,-4.5969,-4.6054,-4.6088,-4.6104,-4.6593,-4.6549,-4.6012,-4.4131,-4.3359,-4.3174,0.0,0.0,0.0,0.0,-3.9023,-3.8959,-3.889,-3.9086,-3.9244,-3.8352,0.0,0.0,0.0,0.0,0.0,0.0,0.0,-4.0527,0.0,0.0,-4.179,-4.2088,-4.2448,-4.2838,-4.3256,-4.3015,-4.2572,0.0,-4.2396,-4.2827,-4.2829,0.0,0.0,0.0,0.0,-4.3871,-4.489,-4.5683,-4.6487,-4.7348,-4.7681,-4.7937,-4.813,-4.6858,-4.5888,-4.5556,-4.4243,-4.3043,-4.2028,-4.0929,-3.9504,0.0,0.0,0.0,0.0,0.0,0.0,0.0,0.0,0.0,0.0,0.0,0.0,0.0,0.0,0.0,0.0,0.0,0.0,0.0,0.0,0.0,0.0,0.0,0.0,0.0,0.0,0.0,0.0,-3.9098,-4.0826,-4.2018,-4.1775,-4.1938,0.0,0.0,0.0,0.0,0.0,0.0,-4.4528,-4.5134,-4.5551,-4.5735,-4.6422,-4.6928,-4.7275,-4.7288,-4.7448,-4.7755,-4.7755,-4.7651,-4.7496,-4.7496,-4.748,-4.748,-4.808,-4.8391,-4.8348,-4.6679,-4.5636,-4.4984,-4.4119,-4.3387,-4.2725,-4.1951,-4.1674,-4.166,-4.1563,-4.1838,-4.205,-4.1065,-4.1121,-4.1361,-4.0002,0.0,0.0,0.0,0.0,-4.2468,-4.2705,-4.3149,-4.35,-4.3168,-4.3639,-4.4253,-4.4514,-4.4946,-4.4885,0.0,-4.4158,-4.4768,-4.461,0.0,0.0,0.0,0.0,-4.4772,-4.5662,-4.6337,-4.6973,-4.7642,-4.7924,-4.8057,-4.8065,-4.6879,-4.5926,-4.5458,-4.4534,-4.3523,-4.2307,-4.1632,-4.0499,-3.8892,0.0,0.0,0.0,0.0,0.0,0.0,0.0,0.0,0.0,0.0,0.0,0.0,0.0,0.0,0.0,0.0,0.0,0.0,0.0,0.0,0.0,0.0,0.0,0.0,0.0,0.0,0.0,0.0,0.0,-4.2528,-4.3379,0.0,0.0,0.0,0.0,-4.5329,-4.5014,-4.5494,-4.7129,-4.725,-4.7689,-4.8553,-4.8827,-4.9192,-4.973,-4.9365,-4.9154,-4.917,-4.917,-4.9186,-4.9186,-4.9186,-4.9069,-4.892,-4.9134,-4.9154,-4.8909,-4.8185,-4.7904,-4.7834,-4.6284,-4.5648,-4.5532,-4.4832,-4.414,-4.3585,-4.3688,-4.3216,-4.2576,-4.2628,-4.2824,-4.2972,-4.2876,-4.2792,0.0,0.0,-4.4022,-4.3617,-4.4002,-4.447,-4.4781,-4.4555,-4.514,-4.5897,-4.639,-4.678,-4.6679,0.0,-4.511,-4.544,-4.6231,0.0,-4.5088,-4.6228,-4.5796,-4.5762,-4.6963,-4.7509,-4.8083,-4.8845,-4.8547,-4.8023,-4.741,-4.635,-4.5417,-4.4699,-4.383,-4.3245,-4.2962,-4.2104,-4.1445,-4.0947,-3.9393,0.0,0.0,0.0,0.0,0.0,0.0,0.0,0.0,0.0,0.0,0.0,0.0,0.0,0.0,0.0,0.0,0.0,0.0,0.0,0.0,0.0,0.0,0.0,0.0,0.0,0.0,0.0,0.0,-4.3915,-4.3939,0.0,-4.582,-4.5248,-4.5251,-4.6291,-4.7099,-4.7625,-4.7846,-4.8751,-4.922,-4.9105,-4.956,-4.9769,-4.9705,-4.9423,-4.9245,-4.9121,-4.9248,-4.9284,-4.9284,-4.9284,-4.9251,-4.9216,-4.9628,-4.9763,-4.9722,-4.9969,-4.9536,-4.8648,-4.8077,-4.7589,-4.7165,-4.6797,-4.5959,-4.5053,-4.4946,-4.4476,-4.384,-4.3582,-4.3252,-4.3014,-4.3134,-4.3521,-4.4011,-4.4453,-4.5104,-4.5635,-4.5518,-4.6075,-4.6552,-4.616,-4.6455,-4.6835,-4.6975,-4.7371,-4.7614,-4.7254,-4.6566,-4.6341,-4.7302,-4.6933,-4.6765,-4.7525,-4.7308,-4.7103,-4.7188,-4.7493,-4.7789,-4.8086,-4.8208,-4.8149,-4.7782,-4.6843,-4.5804,-4.4725,-4.4218,-4.3471,-4.2386,-4.2113,-4.1455,-4.0469,-3.8565,-3.6817,0.0,0.0,0.0,0.0,0.0,0.0,0.0,0.0,0.0,0.0,0.0,0.0,0.0,0.0,0.0,0.0,0.0,0.0,0.0,0.0,0.0,0.0,0.0,0.0,0.0,-4.1895,-4.3691,-4.5299,-4.522,-4.5709,-4.7463,-4.6934,-4.683,-4.7602,-4.865,-4.9148,-4.8933,-4.9983,-5.0494,-5.0324,-5.0593,-5.0669,-5.0516,-5.0265,-5.0049,-4.9831,-5.0033,-5.0141,-5.0141,-5.0213,-5.0157,-5.0058,-5.0485,-5.061,-5.0513,-5.1059,-5.0702,-4.971,-4.9256,-4.8787,-4.8217,-4.744,-4.6455,-4.5484,-4.5086,-4.4784,-4.4571,-4.4322,-4.3977,-4.3702,-4.3892,-4.4416,-4.5,-4.5218,-4.6002,-4.6755,-4.6673,-4.7323,-4.7824,-4.7363,-4.7699,-4.8035,-4.7924,-4.8204,-4.8493,-4.8604,-4.7793,-4.7349,-4.8204,-4.7817,-4.7691,-4.8403,-4.823,-4.7981,-4.7943,-4.7989,-4.8088,-4.807,-4.814,-4.8061,-4.7775,-4.6637,-4.5486,-4.4437,-4.3888,-4.307,-4.1872,-4.1695,-4.1037,-3.9795,-3.7881,-3.6319,-3.5103,0.0,0.0,0.0,0.0,0.0,0.0,0.0,0.0,0.0,0.0,0.0,0.0,0.0,0.0,0.0,0.0,0.0,0.0,0.0,0.0,0.0,0.0,0.0,-4.216,-4.4059,-4.5746,-4.6654,-4.7243,-4.7822,-4.846,-4.84,-4.86,-4.9266,-4.9579,-4.9984,-5.0615,-5.1004,-5.1572,-5.2283,-5.1967,-5.1978,-5.2307,-5.1944,-5.1668,-5.1499,-5.1721,-5.1794,-5.1815,-5.2013,-5.1876,-5.1507,-5.1712,-5.1577,-5.1237,-5.1404,-5.1372,-5.1091,-4.9831,-4.9212,-4.8787,-4.6891,-4.5738,-4.4989,-4.4169,-4.4198,-4.4678,-4.4836,-4.5039,-4.5257,-4.5442,-4.5662,-4.5938,-4.6584,-4.6784,-4.6913,-4.7428,-4.809,-4.8498,-4.8109,-4.8829,-4.9553,-4.9347,-4.9295,-4.9299,-4.9321,-4.8773,-4.8466,-4.8932,-4.8052,-4.7691,-4.8836,-4.8451,0.0,-4.9207,-4.9118,-4.8963,-4.9001,-4.8401,-4.7802,-4.7345,-4.5656,-4.4373,-4.3754,-4.2808,-4.2025,-4.1421,-4.0996,-4.0253,-3.9142,-3.7644,-3.6246,-3.4898,0.0,0.0,0.0,0.0,0.0,0.0,0.0,0.0,0.0,0.0,0.0,0.0,0.0,0.0,0.0,0.0,0.0,0.0,0.0,0.0,0.0,-4.1625,-4.2913,-4.3655,-4.4706,-4.6059,-4.7794,-4.7573,-4.777,-4.8966,-4.897,-4.9146,-4.9774,-5.0302,-5.0802,-5.1384,-5.1913,-5.2244,-5.23,-5.2215,-5.2215,-5.2307,-5.1688,-5.1333,-5.1312,-5.1724,-5.1872,-5.1815,-5.2125,-5.2033,-5.1733,-5.1766,-5.1548,-5.1221,-5.142,-5.1382,-5.1151,-5.0645,-5.0107,-4.9505,-4.882,-4.7908,-4.6876,-4.5721,-4.5409,-4.5448,-4.5029,-4.5039,-4.5241,-4.5442,-4.5728,-4.602,-4.6074,-4.6528,-4.7029,-4.7002,-4.7912,-4.8789,-4.8689,-4.9273,-4.9773,-4.9541,-4.9376,-4.9329,-4.947,-4.9353,-4.9141,-4.8758,-4.8165,-4.7997,-4.886,-4.8858,0.0,-4.9463,-4.8785,-4.8466,-4.8955,-4.811,-4.7494,-4.7518,-4.6034,-4.4768,-4.3997,-4.3075,-4.2309,-4.1653,-4.1947,-4.1276,-3.9437,-3.7469,-3.6,0.0,0.0,0.0,0.0,0.0,0.0,0.0,0.0,0.0,0.0,0.0,0.0,0.0,0.0,0.0,0.0,0.0,0.0,0.0,0.0,0.0,0.0,-4.2841,-4.4223,-4.5115,-4.5517,-4.642,-4.8275,-4.8006,-4.8234,-4.9707,-4.9948,-5.0206,-5.0645,-5.1399,-5.196,-5.2264,-5.2679,-5.2907,-5.2807,-5.2565,-5.2544,-5.2771,-5.1872,-5.1496,-5.1631,-5.1818,-5.1864,-5.1796,-5.2076,-5.2106,-5.1904,-5.1831,-5.1668,-5.1445,-5.1573,-5.1499,0.0,0.0,0.0,0.0,0.0,-4.8014,-4.7218,-4.6015,-4.5981,-4.6345,-4.535,-4.5354,-4.5759,-4.5977,-4.6207,-4.648,-4.6975,-4.7442,-4.7882,-4.8064,-4.8715,-4.9316,-4.9218,-4.9574,-4.9797,-4.9403,-4.9363,-4.9402,-4.9332,-4.9346,0.0,-4.8963,-4.8817,-4.8845,-4.9078,-4.9146,-4.9252,-4.9571,-4.8811,-4.8292,-4.8391,-4.7548,-4.7053,-4.7174,-4.5491,0.0,0.0,0.0,-4.1945,-4.1173,-4.1287,0.0,0.0,0.0,-3.7275,-3.6815,0.0,0.0,0.0,-3.4491,-3.41,0.0,0.0,0.0,0.0,0.0,0.0,0.0,0.0,0.0,0.0,0.0,0.0,0.0,0.0,0.0,0.0,-4.4196,-4.5529,-4.6269,-4.634,-4.6856,-4.8294,-4.8435,-4.902,-5.054,-5.1071,-5.1442,-5.1784,-5.2597,-5.3124,-5.3178,-5.3326,0.0,0.0,0.0,-5.2881,-5.3248,-5.2355,-5.1943,-5.2088,-5.1895,-5.1806,-5.1812,-5.2004,-5.2119,-5.2102,-5.1904,-5.1815,-5.1778,-5.1815,-5.1684,-5.1359,-5.0524,-5.0026,-4.9604,-4.802,-4.7299,-4.7018,-4.5947,0.0,0.0,-4.575,-4.5831,-4.6526,-4.6728,-4.685,-4.722,-4.845,-4.8786,-4.8951,-4.9559,-4.9742,-4.9765,-4.9575,-4.9671,-4.9623,-4.904,-4.9213,-4.9369,-4.8977,-4.8981,-4.9103,-4.9275,-4.9597,-4.9691,-4.9372,-4.9325,-4.9352,-4.9584,-4.897,-4.8304,-4.7675,0.0,0.0,-4.6478,-4.4571,-4.3822,-4.4901,-4.3051,-4.1598,-4.0751,-4.0209,-3.958,-3.8907,-3.9207,-3.9395,-3.9383,-3.8874,-3.8802,-3.9107,-3.6671,-3.5804,0.0,0.0,0.0,0.0,0.0,0.0,0.0,0.0,0.0,0.0,0.0,0.0,0.0,0.0,0.0,-4.2698,-4.412,-4.5385,-4.614,-4.6683,-4.7342,-4.8234,-4.8792,-4.9649,-5.1049,-5.124,-5.1805,-5.2965,-5.306,-5.322,-5.3561,-5.3466,-5.3264,-5.3007,-5.3154,-5.2914,-5.2287,-5.2396,-5.2075,-5.141,-5.1782,0.0,-5.1811,-5.2101,-5.2211,-5.2099,-5.2083,-5.1941,-5.1815,-5.1993,-5.1721,-5.1221,-5.0697,-5.0249,-4.9836,-4.9504,-4.9315,-4.9181,-4.8254,-4.7769,-4.737,-4.6356,-4.6244,-4.6504,-4.6542,-4.7145,0.0,-4.8066,-4.8152,-4.8274,-4.8421,-4.8783,-4.914,-4.9238,-4.917,-4.9047,-4.8927,-4.8843,-4.882,-4.8874,-4.9237,-4.9493,-4.9517,-4.9331,-4.9241,-4.9515,-4.9396,-4.9347,-4.9577,-4.8736,-4.7966,-4.763,-4.6717,-4.6061,-4.589,-4.4639,-4.4106,-4.465,-4.3972,-4.3335,-4.284,-4.2509,-4.2049,-4.1415,-4.0792,-4.0478,-4.0472,-3.9212,-3.871,-3.8929,-3.7729,-3.7388,0.0,0.0,0.0,0.0,0.0,0.0,0.0,0.0,0.0,0.0,0.0,-4.0133,-4.0985,0.0,-4.3546,-4.3904,-4.5238,-4.6379,-4.6765,-4.7708,-4.8321,-4.8312,-4.8796,-4.9764,-5.1309,-5.1632,-5.2252,-5.341,-5.3576,-5.3667,-5.3683,-5.345,-5.3179,-5.2903,-5.28,-5.2676,-5.2543,-5.2306,-5.2062,-5.1831,-5.1878,-5.1847,-5.1778,-5.1876,-5.1966,-5.2083,-5.1888,-5.1908,-5.2069,-5.2,-5.1709,-5.1312,-5.082,-5.0379,-5.0089,-4.9971,-4.9876,-4.9781,-4.9008,-4.8733,-4.8576,-4.7406,-4.7334,-4.7694,-4.7694,-4.8083,-4.8561,-4.881,-4.8927,-4.9005,-4.9005,-4.9219,-4.9433,-4.9526,-4.948,-4.9299,-4.8959,-4.9196,-4.9331,-4.8952,-4.9442,-4.986,-4.9757,-4.9573,-4.9468,-4.9564,-4.9526,-4.936,-4.9108,-4.8415,-4.758,-4.6686,-4.6036,-4.5492,-4.5192,-4.4624,-4.4076,-4.3531,-4.3608,-4.3405,-4.278,-4.2831,-4.2587,-4.2107,-4.1744,-4.1369,-4.0969,-4.0118,-3.9485,-3.9035,-3.851,-3.8217,0.0,0.0,0.0,0.0,0.0,0.0,0.0,0.0,-3.9469,-3.932,-4.042,-4.1693,-4.2589,-4.3869,-4.4874,-4.508,-4.6354,-4.7372,-4.7397,-4.8601,-4.9247,-4.8557,-4.8923,-4.9905,-5.161,-5.1993,-5.2597,-5.3696,-5.3943,-5.3898,-5.3617,-5.3281,-5.2972,-5.2729,-5.2445,-5.2439,-5.2778,-5.2249,-5.2027,-5.2232,-5.1908,-5.1745,-5.1749,-5.1619,-5.1741,-5.201,-5.1709,-5.1818,-5.2266,-5.1842,-5.1565,-5.1312,-5.0765,-5.0418,-5.0262,-5.001,-4.9876,-4.9837,-4.9323,-4.9417,-4.9536,-4.8491,-4.8469,-4.8889,-4.8889,-4.8983,-4.9205,-4.9773,-4.9876,-4.9876,-4.9876,-4.9876,-4.9876,-4.9876,-4.9821,-4.9568,-4.9054,-4.9526,-4.988,-4.9154,-4.9699,-5.0214,-4.9995,-4.9971,-4.9908,-4.97,-4.963,-4.9355,-4.8694,-4.8247,-4.7391,-4.5822,-4.5494,-4.5177,-4.4584,-4.4541,-4.4068,-4.2924,-4.3257,-4.3221,-4.2502,-4.2728,-4.2655,-4.2216,-4.2366,-4.2047,-4.136,-4.0897,-4.0278,-3.9567,-3.902,-3.8558,-3.2859,-3.4675,-3.6266,-3.6347,-3.7839,-3.9288,0.0,-3.9754,-4.0266,-4.0241,-4.0876,-4.1648,-4.2462,-4.3208,-4.3993,-4.4944,-4.628,-4.7253,-4.738,-4.8601,-4.9412,-4.9216,-4.9712,-5.0674,-5.2245,-5.2183,-5.2668,-5.427,-5.3814,-5.3433,-5.3247,-5.2868,-5.2535,-5.2211,-5.2699,-5.2565,-5.1704,-5.2204,-5.2129,-5.135,-5.1483,-5.1536,-5.155,-5.1687,-5.1782,-5.1819,-5.1774,-5.1815,-5.1851,-5.1429,-5.1146,-5.0896,-5.0496,-5.0301,-5.0262,-5.001,-4.9876,-4.9916,-5.0088,-4.9668,-4.9022,-4.9056,-4.898,-4.8889,-4.8889,-4.9315,-4.9821,-4.99,-4.9876,-4.9876,-4.9876,-4.9876,-4.9876,-4.9876,-4.9457,-4.9022,-4.9136,-4.926,-4.933,-4.9425,-5.0023,-5.0496,-5.0301,-5.0262,-5.0184,-4.9892,-4.9701,-4.9346,-4.8702,-4.8396,-4.7644,-4.6036,-4.5851,-4.5442,-4.4412,-4.4313,-4.434,-4.4363,-4.4439,-4.4248,-4.3808,-4.3655,-4.3307,-4.2637,-4.2459,-4.2363,-4.2234,-4.0866,-4.0437,-4.0844,-3.9078,-3.8237,-3.415,-3.5674,-3.7012,-3.7508,-3.9055,-4.0513,-4.0595,-4.0797,-4.0958,-4.0819,-4.1429,-4.2131,-4.268,-4.3541,-4.447,-4.5262,-4.6409,-4.7245,-4.7397,-4.8601,-4.9447,-4.9328,-4.9664,-5.0574,-5.2337,-5.2096,-5.2484,-5.4104,-5.3634,-5.3179,-5.2868,-5.2694,-5.2428,-5.2102,-5.2269,-5.2048,-5.1515,-5.1813,-5.1759,-5.1387,-5.1483,-5.1483,-5.1494,-5.1589,-5.1668,-5.1798,-5.1786,-5.1729,-5.161,-5.1297,-5.1069,-5.0874,-5.0473,-5.0301,-5.0262,-5.001,-4.9876,-4.9931,-5.0223,-4.9938,-4.9528,-4.9778,-4.97,-4.9489,-4.9489,-4.9694,-4.9876,-4.9876,-4.9876,-4.9876,-4.9876,-5.001,-5.0089,-4.9931,-4.9906,-4.9894,-4.9855,-5.001,-5.0179,-5.0163,-5.0496,-5.0666,-5.034,-5.0301,-5.0223,-4.9931,-4.9836,-4.9339,-4.8153,-4.8066,-4.7439,-4.5856,-4.5339,-4.4895,-4.4351,-4.3956,-4.3698,-4.3668,-4.3664,-4.353,-4.3238,-4.3401,-4.3227,-4.2703,-4.2622,-4.2133,-4.128,-4.0891,-4.0234,-3.9407,-3.8986,-3.858,-3.4898,-3.6264,-3.753,-3.8391,-3.9899,-4.1203,-4.1318,-4.134,-4.1295,-4.121,-4.1644,-4.2181,-4.259,-4.3498,-4.4435,-4.5173,-4.6473,-4.7395,-4.739,-4.8601,-4.942,-4.9201,-4.9304,-5.0029,-5.1679,-5.162,-5.2064,-5.344,-5.323,-5.2903,-5.2624,-5.2499,-5.2338,-5.203,-5.1823,-5.1638,-5.1424,-5.1413,-5.1413,-5.1424,-5.1424,-5.1445,-5.1508,-5.1577,-5.1725,-5.1944,-5.1733,-5.1529,-5.1387,-5.1063,-5.0817,-5.0589,-5.0301,-5.0184,-5.0184,-4.9971,-4.9876,-4.9931,-5.0223,-5.0002,-4.9718,-5.0159,-5.0002,-4.9679,-4.9829,-4.9876,-4.9876,-4.9876,-4.9876,-4.9876,-4.9876,-5.005,-5.0184,-5.005,-5.0262,-5.0512,-5.0457,-5.0705,-5.0858,-5.0765,-5.082,-5.0781,-5.0418,-5.034,-5.0223,-4.9931,-4.9876,-4.941,-4.8128,-4.7754,-4.706,-4.5714,-4.5092,-4.4701,-4.4549,-4.3879,-4.3438,-4.33,-4.316,-4.3036,-4.285,-4.313,-4.3081,-4.2638,-4.2543,-4.1966,-4.092,-4.0923,-4.0371,-3.9339,-3.9295,-3.9092,-3.4904,-3.6414,-3.8079,-3.8969,-4.0137,-4.114,-4.1186,-4.1209,-4.1232,-4.138,-4.1256,-4.1306,-4.1912,-4.253,-4.3313,-4.4376,-4.643,-4.7769,-4.7452,-4.861,-4.9331,-4.8877,-4.8713,-4.9051,-5.0077,-5.0632,-5.1325,-5.2283,-5.2519,-5.2589,-5.2589,-5.2302,-5.2013,-5.1831,-5.161,-5.1424,-5.1221,-5.1221,-5.1221,-5.1221,-5.1221,-5.1296,-5.1515,-5.1692,-5.1995,-5.2333,-5.1564,-5.1188,-5.1081,-5.0557,-5.0184,-4.9916,-4.9931,-4.9916,-4.9916,-4.9876,-4.9876,-4.9931,-5.0223,-4.9684,-4.907,-5.0,-4.9668,-4.9047,-4.971,-4.9876,-4.9876,-4.9876,-4.9876,-4.9876,-4.9876,-4.9916,-4.9971,-5.0223,-5.0301,-5.0418,-5.0781,-5.0912,-5.095,-5.1146,-5.1048,-5.082,-5.0628,-5.0418,-5.0223,-4.9931,-4.9876,-4.9663,-4.8952,-4.7672,-4.6566,-4.5886,-4.5442,-4.5182,-4.5182,-4.445,-4.3977,-4.3957,-4.3558,-4.329,-4.329,-4.329,-4.303,-4.2402,-4.2162,-4.1991,-4.1946,-4.0911,-4.105,-4.2231,-4.0344,-3.9673,0.0,0.0,-3.8722,-3.9098,-4.0106,-4.1006,-4.1099,-4.1157,-4.1186,-4.1192,-4.1175,-4.1284,-4.1658,-4.2438,-4.3304,-4.4172,-4.5796,-4.6845,-4.6529,-4.8014,-4.8837,-4.7956,-4.8468,-4.8907,-4.9024,-4.9651,-5.0422,-5.1375,-5.1629,-5.1733,-5.1682,-5.193,-5.1957,-5.161,-5.1536,-5.1387,-5.1183,-5.1183,-5.1183,-5.1183,-5.1338,-5.1487,-5.1721,-5.1774,-5.2026,-5.2365,-5.1552,-5.1151,-5.1043,-5.0518,-5.0129,-4.9876,-4.9876,-4.9876,-4.9876,-4.9876,-4.9876,-4.9916,-5.001,-4.9813,-4.9615,-4.9931,-4.9813,-4.9536,-4.9299,-4.9552,-4.9837,-4.9363,-4.9568,-4.9876,-4.9876,-5.005,-5.0129,-5.005,-5.0379,-5.0705,-5.0705,-5.0797,-5.0912,-5.0972,-5.0743,-5.0457,-5.0418,-5.0207,-5.001,-4.9916,-4.9418,-4.8804,-4.8112,-4.7085,-4.6088,-4.5303,-4.4964,-4.4739,-4.4625,-4.4243,-4.3979,-4.3992,-4.3838,-4.3778,-4.3778,-4.3778,-4.3398,-4.2619,-4.2776,-4.2371,-4.1406,-4.1288,-4.1288,-4.1312,-4.0224,-3.9712,0.0,-3.7618,-3.9022,-3.9416,-4.0151,-4.0776,-4.0929,-4.1059,-4.1175,-4.1192,-4.1152,-4.111,-4.1224,-4.2018,-4.2882,-4.3648,-4.5174,-4.6317,-4.6477,-4.7761,-4.8443,-4.7797,-4.8226,-4.8512,0.0,0.0,-4.9309,-5.0242,-5.0923,-5.1229,-5.1123,-5.1691,-5.1831,-5.1499,-5.1424,-5.135,-5.1183,-5.1183,-5.1183,-5.1183,-5.1413,-5.1561,-5.1688,-5.1838,-5.198,-5.2043,-5.1524,-5.1156,-5.0854,-5.048,-5.0129,-4.9876,-4.9876,-4.9876,-4.9876,-4.9876,-4.9876,-4.9876,-4.9876,-4.9758,-4.96,-4.9797,-4.96,-4.9205,-4.9236,-4.9236,-4.9205,-4.9236,-4.941,-4.9615,-4.9852,-5.005,-5.0129,-5.005,-5.0379,-5.0666,-5.0628,-5.0705,-5.0781,-5.0781,-5.055,-5.0301,-5.0301,-4.9971,-4.9599,-4.9268,-4.8646,-4.8051,-4.755,-4.6819,-4.5935,-4.4892,-4.4685,-4.4549,-4.4435,-4.4205,-4.4104,-4.4096,-4.4026,-4.3988,-4.3988,-4.3949,-4.3529,-4.2711,-4.2893,-4.2503,-4.1552,-4.172,-4.1745,-4.1538,-4.0681,-4.0115,-3.7004,-3.802,-3.9067,-3.9901,-4.0296,-4.0517,-4.0597,-4.0847,-4.1099,-4.1185,-4.103,-4.0782,0.0,0.0,-4.2028,-4.2859,-4.4542,-4.6141,-4.7224,-4.7849,-4.8196,0.0,0.0,0.0,0.0,0.0,0.0,-4.9011,-5.0419,-5.1161,-5.0949,-5.1477,-5.1684,-5.1499,-5.1312,-5.1183,-5.1183,-5.1183,-5.1183,-5.1183,-5.1387,-5.1503,-5.1529,-5.1938,-5.1875,-5.1496,-5.1492,-5.1129,-5.0509,-5.0363,-5.0129,-4.9876,-4.9876,-4.9876,-4.9876,-4.9876,-4.9876,-4.9876,-4.9876,-4.9473,-4.8999,-4.9694,-4.9031,-4.8193,-4.9473,-4.8999,-4.8256,-4.9521,-4.9426,-4.9078,-4.971,-4.986,-4.9955,-5.0175,-5.0269,-5.0379,-5.055,-5.0589,-5.0589,-5.0589,-5.0418,-5.0246,-5.0214,-4.967,-4.8954,-4.8069,-4.7679,-4.7447,-4.7232,-4.6794,-4.6034,-4.4726,-4.4572,-4.4572,-4.4572,-4.4396,-4.4312,-4.4335,-4.4134,-4.4026,-4.4026,-4.3832,-4.3413,-4.2711,-4.2556,-4.244,-4.2396,-4.2177,-4.2387,-4.2991,-4.1727,-4.0917,-3.8035,-3.92,-4.0058,-4.0095,-4.0296,-4.0331,-3.973,-4.0061,-4.0178,-3.9033,-3.9472,-3.9868,-3.9227,-4.0256,-4.1562,-4.2731,-4.4216,0.0,-4.7071,-4.8268,0.0,-4.835,0.0,-4.8826,-4.8211,-4.8098,0.0,-4.8826,-4.9613,-5.0124,-5.0332,-5.1126,-5.1499,-5.1258,-5.1221,-5.1183,-5.1183,-5.1183,-5.1183,-5.1183,-5.1387,-5.1499,-5.152,-5.1933,-5.1888,-5.1488,-5.1301,-5.0942,-5.0488,-5.0135,-4.9955,-4.9876,-4.9876,-4.9876,-4.9876,-4.9876,-4.9876,-4.9876,-4.9876,-4.9473,-4.8999,-4.9694,-4.9347,-4.8699,-4.9047,-4.9268,-4.9378,-4.9205,-4.9394,-4.9584,-4.9236,-4.9536,-4.9789,-4.9362,-4.9919,-5.0512,-5.0379,-5.0496,-5.055,-5.0418,-5.005,-4.956,-4.8922,-4.8551,-4.8038,-4.7086,-4.6649,-4.6259,-4.5863,-4.5708,-4.5253,-4.4257,-4.4127,-4.4205,-4.4358,-4.432,-4.4358,-4.4526,-4.432,-4.4205,-4.4205,-4.4026,-4.3529,-4.2711,-4.3139,-4.3061,-4.2396,-4.2757,-4.3046,-4.318,-4.1921,-4.1194,-3.8614,-3.9423,-4.0019,-4.0277,-4.0205,-3.9966,-3.9579,-3.945,-3.9143,-3.8291,-3.8678,-3.9076,-3.8673,-3.9994,-4.1537,0.0,0.0,0.0,-4.7422,-4.8302,-4.8803,0.0,-4.9095,0.0,-4.826,-4.8,-4.8051,-4.8398,-4.8937,-4.9542,-5.0183,-5.0736,-5.1083,-5.1205,-5.1183,-5.1183,-5.1183,-5.1183,-5.1183,-5.1183,-5.1296,-5.1424,-5.1515,-5.1835,-5.1786,-5.1475,-5.1333,-5.0977,-5.0477,-5.0175,-5.001,-4.9876,-4.9876,-4.9876,-4.9876,-4.9876,-4.9876,-4.9844,-4.945,-4.8953,-4.8573,-4.9119,-4.8716,-4.8035,-4.8275,-4.8211,-4.8225,-4.8746,-4.8952,-4.9015,-4.8904,-4.9173,-4.9299,-4.862,-4.9177,-4.984,-4.9723,-4.9762,-4.9667,-4.911,-4.8757,-4.8356,-4.7555,-4.7253,-4.6822,-4.5877,-4.548,-4.5037,-4.4491,-4.4703,-4.4618,-4.3944,-4.3964,-4.4073,-4.4274,-4.4374,-4.4473,-4.4572,-4.4496,-4.4396,-4.4281,-4.4104,-4.3728,-4.3133,-4.3401,-4.3283,-4.2791,-4.315,-4.329,-4.326,-4.1983,-4.127,-3.8911,-3.9231,-3.9433,-4.0155,-3.9866,-3.9404,-3.9502,-3.8797,-3.8088,-3.7969,-3.8048,-3.8151,-3.8253,-3.9707,-4.1248,-4.2355,0.0,-4.5326,-4.7858,-4.8091,-4.8363,-4.9419,-4.9229,-4.8798,-4.826,-4.782,-4.772,-4.815,-4.8413,-4.9095,-5.0232,-5.0342,-5.0607,-5.1205,-5.1183,-5.1183,-5.1183,-5.1183,-5.1183,-5.1183,-5.1183,-5.1296,-5.1478,-5.1671,-5.1666,-5.1463,-5.1436,-5.1021,-5.0389,-5.0294,-5.0081,-4.9789,-4.9884,-4.9876,-4.9876,-4.9876,-4.9876,-4.9781,-4.8891,-4.8292,-4.7912,-4.8325,-4.7709,-4.6908,-4.7482,-4.6906,-4.6471,-4.8351,-4.8478,-4.8146,-4.8636,-4.8889,-4.8825,-4.8083,-4.8437,-4.8927,-4.8927,-4.8787,-4.8434,-4.7465,-4.724,-4.699,-4.6364,-4.6098,-4.5667,-4.4775,-4.4453,-4.4077,-4.3379,-4.3832,-4.4041,-4.3718,-4.3886,-4.4097,-4.4281,-4.4504,-4.461,-4.461,-4.4572,-4.4496,-4.4289,-4.4089,-4.3871,-4.369,-4.3423,-4.329,-4.329,-4.329,-4.329,-4.326,-4.2073,-4.1398,-3.9219,-3.9459,-3.9292,-3.8615,-3.8614,-3.8556,-3.7763,-3.7647,0.0,0.0,-3.6174,-3.6609,-3.6464,-3.7388,-3.8935,-4.1239,-4.1915,-4.3484,-4.7272,-4.7548,-4.7974,0.0,-4.9453,-4.892,-4.826,-4.8033,0.0,0.0,-4.8068,-4.8135,-4.9679,-4.9993,-5.0475,-5.1205,-5.1183,-5.1183,-5.1183,-5.1183,-5.1183,-5.1183,-5.1183,-5.1221,-5.1275,-5.148,-5.1462,-5.1231,-5.107,0.0,-4.9929,-4.9944,-4.9701,-4.9358,-4.9734,-4.9876,-4.9876,-4.9876,-4.9876,-4.9781,-4.8891,-4.8176,-4.768,-4.7767,-4.7331,-4.6929,-4.7634,-4.7697,-4.7719,-4.8636,-4.881,-4.862,-4.8177,-4.8904,-4.9426,-4.8193,-4.8529,-4.9082,-4.8927,-4.8215,-4.7536,-4.7349,-4.6856,-4.6364,-4.6098,-4.5895,-4.5438,-4.4503,-4.4317,-4.4077,-4.3379,-4.3409,-4.3534,-4.3696,-4.3886,-4.4089,-4.4297,-4.4473,-4.461,-4.461,-4.4435,-4.4351,-4.4319,-4.3966,-4.3729,-4.369,-4.3423,-4.329,-4.329,-4.329,-4.329,-4.3275,-4.2551,-4.1908,-3.8532,-3.8847,-3.886,-3.8573,-3.8301,-3.7927,-3.7377,0.0,0.0,0.0,-3.5295,-3.5822,-3.5883,-3.7388,0.0,-4.0602,-4.1733,-4.3327,-4.5939,-4.6771,-4.758,-4.8807,-4.8957,-4.8733,-4.826,-4.7968,-4.7984,-4.835,-4.7969,-4.8502,-5.0342,-5.0582,-5.0864,-5.1333,-5.1258,-5.1183,-5.1183,-5.1183,-5.1183,-5.1183,-5.1183,-5.1258,-5.135,-5.1452,-5.1499,-5.1484,-5.1071,-5.0697,-5.0338,-5.0025,-4.9765,-4.9575,-4.9789,-4.9852,-4.9757,-4.9876,-4.9836,-4.9575,-4.8341,-4.7777,-4.7478,-4.6626,-4.6231,-4.6197,-4.6559,-4.6728,-4.7008,-4.8086,-4.838,-4.832,-4.7968,-4.8369,-4.8525,-4.7135,-4.7324,-4.7684,-4.7262,-4.6858,-4.6377,-4.5711,-4.5559,-4.5454,-4.5162,-4.5041,-4.4813,-4.4362,-4.4018,-4.3648,-4.3334,-4.329,-4.3438,-4.3829,-4.394,-4.4127,-4.4435,-4.4534,-4.461,-4.461,-4.4511,-4.4404,-4.4305,-4.4097,-4.3949,-4.3871,-4.3636,-4.3518,-4.3518,-4.3384,-4.329,-4.3275,-4.2312,-4.1722,-3.7613,-3.8037,-3.8252,-3.8361,-3.7922,-3.7351,-3.7124,-3.6044,0.0,-3.4447,-3.4673,-3.5098,-3.5545,-3.7399,-3.9128,0.0,-4.1471,-4.3211,-4.4875,-4.6033,-4.7132,0.0,-4.8503,0.0,-4.8195,-4.7869,0.0,-4.7878,-4.8472,-4.945,-5.0913,-5.114,-5.1312,-5.1424,-5.1258,-5.1183,-5.1183,-5.1183,-5.1183,-5.1183,-5.1183,-5.1258,-5.1424,-5.1424,-5.1531,-5.1675,-5.1146,-5.0804,-5.0621,-5.0168,-4.9876,-4.9687,-4.9829,-4.9797,-4.9677,-4.9836,-4.9702,-4.926,-4.8013,-4.7597,-4.7399,-4.6128,-4.5696,-4.5719,-4.5772,-4.6013,-4.656,-4.7759,-4.8133,-4.8184,-4.8196,-4.8243,-4.8004,-4.6639,-4.6469,-4.6396,-4.5735,-4.555,-4.5218,-4.4234,-4.4464,-4.469,-4.4423,-4.4462,-4.4507,-4.4372,-4.3908,-4.3534,-4.3399,-4.3399,-4.3523,-4.3968,-4.4009,-4.4143,-4.445,-4.4549,-4.4587,-4.4542,-4.4587,-4.4511,-4.4297,-4.4297,-4.4243,-4.4065,-4.3871,-4.3729,-4.369,-4.3503,-4.3384,-4.326,-4.2132,-4.1557,-3.6933,-3.7327,-3.7474,-3.6651,-3.6679,-3.6713,-3.6087,0.0,-3.4922,-3.4358,-3.3835,-3.3851,-3.497,-3.5713,-3.6814,-3.8817,-4.0033,-4.1855,-4.4995,-4.5604,-4.6624,-4.9078,0.0,0.0,-4.8033,-4.782,-4.8096,-4.9075,-5.0262,-5.0719,-5.0228,-5.1029,-5.1387,-5.1221,-5.1221,-5.1183,-5.1183,-5.1183,-5.1183,-5.1183,-5.1183,-5.1221,-5.1221,-5.1221,-5.1355,-5.1492,-5.1075,-5.051,0.0,-5.0153,-4.9748,-4.9039,-4.9639,-4.9892,-4.9876,-4.9876,-4.9481,-4.8929,-4.8592,-4.809,-4.7572,-4.7446,-4.6944,-4.6448,-4.6634,-4.7299,-4.8094,-4.8649,-4.8948,-4.9079,-4.9095,-4.94,-4.9418,-4.8252,-4.741,-4.6617,-4.5764,-4.4826,-4.4204,-4.4258,-4.4306,-4.4383,-4.4544,-4.5081,-4.5277,-4.466,-4.4524,-4.4283,-4.3711,-4.3662,-4.3737,-4.3983,-4.4009,-4.4018,-4.407,-4.4404,-4.4519,-4.4334,-4.4496,-4.4526,-4.4296,-4.4312,-4.4281,-4.4281,-4.405,-4.3871,-4.369,-4.369,-4.3557,-4.3275,-4.2611,-4.1991,-3.5903,-3.6776,-3.7399,-3.6588,-3.6544,-3.6523,-3.5633,0.0,-3.4638,-3.3834,-3.3497,-3.3727,-3.4949,-3.5707,-3.6745,-3.8472,-3.954,0.0,-4.2874,-4.3859,-4.5125,-4.7144,-4.7421,0.0,0.0,0.0,-4.8263,-4.9219,-4.9564,-4.9908,-5.0391,-5.0984,-5.135,-5.1387,-5.1258,-5.1183,-5.1183,-5.1183,-5.1183,-5.1183,-5.1183,-5.1162,-5.101,-5.101,-5.107,-5.1129,-5.0854,-5.0375,0.0,-5.0138,-4.9794,-4.9138,-4.9702,-4.9836,-4.9717,-4.9852,-4.9663,-4.9245,-4.8757,-4.8443,-4.816,-4.7713,-4.7666,-4.7705,-4.7502,-4.7731,-4.814,-4.8739,-4.8955,-4.9066,-4.9178,-4.8917,-4.8387,-4.7457,-4.6772,-4.6078,-4.541,-4.4687,-4.4256,-4.4434,-4.4484,-4.4599,-4.4948,-4.5026,-4.4926,-4.4655,-4.4373,-4.4104,-4.3729,-4.3805,-4.3859,-4.384,-4.4052,-4.4246,-4.4358,-4.4526,-4.4504,-4.4288,-4.4366,-4.4335,-4.4134,-4.422,-4.4281,-4.4281,-4.4205,-4.4089,-4.3871,-4.3769,-4.3557,-4.329,-4.2671,-4.2089,-3.4945,-3.6011,-3.6827,-3.6268,-3.6195,-3.6032,0.0,0.0,-3.4194,-3.3356,-3.3158,-3.3481,-3.4823,-3.5644,-3.6616,-3.8197,0.0,-4.063,-4.1777,-4.3281,-4.4718,0.0,0.0,-4.7324,-4.777,-4.8149,-4.8685,-4.9381,-4.9328,-4.9652,-5.0563,-5.088,-5.1108,-5.1312,-5.1199,-5.1146,-5.1183,-5.1183,-5.1183,-5.1183,-5.1135,-5.1059,-5.0924,-5.0842,-5.0707,-5.0574,-5.0358,-4.9919,0.0,-4.9812,-4.9619,-4.9084,-4.9663,-4.9797,-4.9717,-4.9836,-4.9671,-4.9331,-4.9088,-4.8828,-4.8569,-4.8341,-4.8576,-4.8875,-4.8559,-4.8532,-4.8672,-4.9088,-4.9217,-4.9212,-4.9233,-4.8726,-4.806,-4.7356,-4.6757,-4.6125,-4.5455,-4.4893,-4.4513,-4.4512,-4.4604,-4.479,-4.4991,-4.4916,-4.4739,-4.4543,-4.4222,-4.3981,-4.3897,-4.3962,-4.3968,-4.3888,-4.4185,-4.4432,-4.4511,-4.4564,-4.4504,-4.4234,-4.4312,-4.4281,-4.4026,-4.4205,-4.4281,-4.4281,-4.4281,-4.4205,-4.3988,-4.391,-4.3714,-4.3409,-4.2578,-4.1798,-3.4113,-3.4911,-3.5391,-3.5247,-3.5266,-3.5078,0.0,0.0,-3.364,-3.3043,-3.2648,-3.2884,-3.443,-3.5109,-3.6003,-3.7817,-3.9731,0.0,-4.2632,-4.4511,-4.5998,0.0,0.0,-4.7621,-4.7404,-4.8558,-4.943,-4.9769,-5.0272,-5.0573,-5.0589,-5.0573,-5.0705,-5.0912,-5.0896,-5.101,-5.1183,-5.1183,-5.1183,-5.1183,-5.1016,-5.0898,-5.0876,-5.0701,-5.0304,-4.9785,-4.9587,-4.8978,0.0,-4.8926,-4.8959,-4.8687,-4.9544,-4.9876,-4.9876,-4.9876,-4.9489,-4.8999,-4.9679,-4.9316,-4.8718,-4.9615,-4.9741,-4.9637,-4.9821,-5.0073,-5.023,-4.9955,-4.9876,-4.9797,-4.9381,-4.93,-4.9181,-4.8683,-4.7906,-4.7042,-4.6182,-4.5454,-4.4845,-4.4384,-4.4682,-4.486,-4.4386,-4.4845,-4.5083,-4.4403,-4.4127,-4.4059,-4.4289,-4.4124,-4.4086,-4.4263,-4.4473,-4.4519,-4.431,-4.4511,-4.4427,-4.4046,-4.4381,-4.4435,-4.4026,-4.4205,-4.4281,-4.4281,-4.4281,-4.4205,-4.3988,-4.4205,-4.4104,-4.366,-4.2342,-4.0999,-3.3178,-3.4085,-3.4757,-3.4688,-3.4703,-3.4591,-3.3926,-3.3732,-3.3563,-3.324,-3.3322,-3.3734,-3.4779,-3.577,-3.6961,-3.8586,-3.965,0.0,0.0,0.0,0.0,-4.5519,-4.6651,-4.7634,0.0,0.0,-4.8711,-4.9907,-4.9633,-4.9621,-5.0113,-5.0129,-5.0301,-5.0666,-5.0705,-5.0743,-5.0781,-5.0305,-5.0311,-5.0783,-4.962,-4.9304,-4.9721,-4.9528,-4.9181,-4.8737,-4.9133,-4.8658,-4.7707,-4.8748,-4.8847,-4.838,-4.9473,-4.9876,-4.9876,-4.9876,-4.9789,-4.9615,-4.9852,-4.971,-4.9529,-4.9813,-4.9852,-4.9797,-4.9717,-4.9836,-4.9971,-4.9757,-4.9677,-4.9597,-4.9184,-4.9206,-4.9186,-4.8697,-4.7685,-4.6749,-4.6446,-4.5533,-4.478,-4.4941,-4.4741,-4.4586,-4.4749,-4.4691,-4.4548,-4.4343,-4.4358,-4.4366,-4.432,-4.4358,-4.435,-4.4126,-4.4412,-4.4549,-4.4519,-4.4564,-4.4488,-4.4212,-4.4335,-4.4205,-4.3793,-4.3988,-4.4089,-4.4089,-4.4089,-4.4065,-4.3988,-4.391,-4.3527,-4.2773,-4.207,-4.1144,0.0,-3.3111,-3.3697,-3.3772,-3.3846,0.0,0.0,-3.3256,-3.3303,-3.3272,-3.3787,-3.4498,-3.5304,-3.6226,-3.7407,-3.9098,-3.9697,0.0,0.0,0.0,0.0,-4.58,0.0,0.0,0.0,-4.8311,-4.8618,-4.9941,-4.954,-4.9473,-4.99,-4.9876,-5.005,-5.034,-5.0418,-5.0527,-5.0598,-4.9869,-4.9747,-5.0157,-4.8751,-4.8294,-4.871,-4.8746,-4.8528,-4.8087,-4.8789,-4.8392,0.0,-4.8306,-4.8459,-4.8124,-4.9133,-4.9694,-4.9876,-4.9876,-4.9876,-4.9876,-4.9876,-4.9836,-4.9765,-4.9576,-4.9458,-4.9442,-4.9479,-4.9557,-4.9637,-4.9421,-4.9356,-4.9291,-4.8939,-4.8922,-4.8951,-4.8656,-4.7769,-4.6897,-4.664,-4.5673,-4.4903,-4.4903,-4.4527,-4.438,-4.5023,-4.4621,-4.4311,-4.4642,-4.4442,-4.4266,-4.4305,-4.4343,-4.4327,-4.4243,-4.4435,-4.4603,-4.4587,-4.461,-4.4496,-4.432,-4.4358,-4.4281,-4.3949,-4.3988,-4.4026,-4.4089,-4.3949,-4.391,-4.3988,-4.3808,-4.3305,-4.2511,-4.1942,-4.1265,0.0,-3.193,-3.2295,-3.2674,0.0,0.0,0.0,-3.2559,0.0,-3.3119,-3.4054,-3.5059,-3.5841,-3.6449,-3.7496,-3.9336,-3.9833,0.0,0.0,-4.4185,0.0,0.0,-4.6856,-4.7104,-4.8317,-4.8604,-4.9101,-4.99,-4.9931,-4.9876,-4.9876,-4.9892,-4.9876,-4.9876,-5.0058,-5.0246,-5.0443,-4.9738,-4.9387,-4.933,-4.8243,-4.7741,-4.7795,-4.8216,-4.8129,0.0,-4.8379,-4.807,-4.7088,-4.7621,-4.7839,-4.7997,-4.8613,-4.926,-4.9852,-4.9836,-4.9876,-4.9876,-4.9892,-4.9757,-4.9543,-4.9079,-4.8789,-4.8718,-4.9144,-4.9275,-4.9235,-4.9041,-4.899,-4.8898,-4.8661,-4.862,-4.862,-4.8563,-4.8024,-4.7339,-4.6733,-4.5866,-4.5057,-4.4432,-4.4202,-4.4345,-4.5117,-4.4637,-4.4379,-4.5149,-4.438,-4.3899,-4.4251,-4.4159,-4.4189,-4.458,-4.4634,-4.4695,-4.4641,-4.4603,-4.4511,-4.432,-4.4511,-4.4511,-4.432,-4.4104,-4.4089,-4.4281,-4.391,-4.3808,-4.3988,-4.3808,-4.3344,-4.268,-4.2017,-4.1339,-3.0204,0.0,-3.1474,-3.2189,-3.2259,-3.2163,0.0,0.0,0.0,0.0,0.0,0.0,0.0,-3.6826,-3.8136,-3.9668,0.0,-4.0602,-4.2794,-4.4041,0.0,-4.6368,-4.692,-4.7594,-4.8533,-4.9053,-4.9613,-5.0306,-5.0073,-4.9876,-4.9876,-4.9757,-4.967,-4.9655,-4.9094,-4.8866,-4.9056,-4.853,-4.8176,-4.8019,-4.6544,-4.6196,-4.6828,-4.6599,-4.6252,-4.5873,-4.6722,-4.689,-4.6646,-4.6953,-4.7485,-4.8145,-4.8302,-4.8722,-4.9225,-4.9372,-4.9557,-4.9677,-4.9836,-4.9757,-4.9566,-4.9289,-4.9057,-4.8916,-4.9031,-4.9062,-4.9062,-4.9021,-4.8841,-4.8661,-4.862,-4.862,-4.8578,-4.8412,-4.7589,-4.6766,-4.6436,-4.5408,-4.4517,-4.4527,-4.4758,-4.495,-4.478,-4.5009,-4.5117,-4.4818,-4.4542,-4.4373,-4.4312,-4.4396,-4.4557,-4.4867,-4.517,-4.5302,-4.5163,-4.4803,-4.4587,-4.4534,-4.4572,-4.4511,-4.432,-4.4104,-4.4089,-4.4281,-4.4065,-4.3871,-4.3769,-4.3729,-4.3344,-4.268,-4.2002,-4.125,-2.9599,-3.0413,-3.1146,-3.1858,-3.2094,-3.2178,-3.2122,0.0,0.0,0.0,0.0,0.0,0.0,-3.7336,-3.8569,-3.9468,-3.9724,0.0,0.0,0.0,-4.4971,-4.5633,-4.6351,-4.7105,-4.7885,-4.8243,-4.8642,-4.9267,-4.91,-4.9126,-4.9426,-4.904,-4.8899,-4.9135,-4.8402,-4.8182,-4.8577,-4.77,-4.7192,-4.7074,-4.5802,-4.5393,-4.577,-4.5856,-4.5764,-4.5564,-4.6568,-4.6722,-4.6235,-4.6761,-4.7044,-4.7169,-4.748,-4.7869,-4.8226,-4.8331,-4.8394,-4.8465,-4.8858,-4.8912,-4.8854,-4.9116,-4.8845,-4.8459,-4.8271,-4.823,-4.8291,-4.8723,-4.863,-4.8501,-4.8563,-4.8532,-4.846,-4.8438,-4.7487,-4.6561,-4.6447,-4.5244,-4.4219,-4.4396,-4.4528,-4.4624,-4.4863,-4.4879,-4.4978,-4.5324,-4.4795,-4.4404,-4.4593,-4.4542,-4.4534,-4.4669,-4.4972,-4.5087,-4.4972,-4.4749,-4.461,-4.461,-4.461,-4.4549,-4.4435,-4.4243,-4.4089,-4.4026,-4.4104,-4.3988,-4.369,-4.3808,-4.3611,-4.3133,-4.2569,-4.1829,-2.9361,-3.031,-3.12,-3.1734,-3.2094,-3.2345,-3.2384,0.0,0.0,0.0,0.0,0.0,0.0,-3.7732,0.0,0.0,0.0,0.0,-4.2053,-4.3603,-4.4705,-4.5072,-4.5774,-4.6441,-4.7013,-4.7193,-4.7416,-4.7808,-4.7855,-4.8108,-4.8622,-4.8078,-4.7923,-4.8349,-4.7644,-4.7565,-4.8192,-4.7042,-4.6374,-4.6245,-4.5488,-4.5055,-4.4939,-4.5441,-4.5696,-4.5781,-4.6733,0.0,-4.5889,-4.6547,-4.6455,-4.6021,-4.6446,-4.6826,-4.7146,-4.7146,-4.7068,-4.6997,-4.749,-4.7651,-4.776,-4.8362,-4.8161,-4.7611,-4.7247,-4.714,-4.7288,-4.8004,-4.8096,-4.7967,-4.8157,-4.807,-4.7967,-4.8116,-4.7283,-4.6391,-4.6376,-4.522,-4.4271,-4.4465,-4.4358,-4.4533,-4.5327,-4.4884,-4.483,-4.614,-4.5074,-4.4293,-4.4962,-4.4708,-4.4465,-4.4572,-4.4872,-4.5033,-4.5049,-4.5049,-4.4957,-4.4779,-4.4671,-4.4587,-4.4549,-4.4435,-4.4166,-4.3769,-4.4089,-4.4104,-4.3769,-4.391,-4.3825,-4.3524,-4.3076,-4.2372,-2.952,-3.0447,-3.1548,-3.2007,-3.2094,-3.2275,-3.3111,0.0,0.0,0.0,0.0,0.0,0.0,-3.7498,-3.8434,0.0,0.0,-4.1704,0.0,0.0,-4.4114,-4.5491,-4.6432,-4.6913,-4.6861,-4.7564,-4.7902,-4.7664,-4.7626,-4.7635,-4.7536,-4.7216,-4.7084,-4.7173,-4.6338,-4.6051,-4.6297,-4.6266,-4.5862,-4.5151,-4.5007,-4.4931,-4.4924,-4.4817,-4.4817,-4.4795,0.0,-4.5272,-4.5634,-4.5195,-4.5511,-4.6165,-4.5477,-4.5724,-4.6444,-4.6444,-4.6524,-4.6658,-4.6582,-4.6548,-4.6548,-4.6676,-4.6655,-4.6517,-4.6477,-4.6437,-4.6452,-4.6427,-4.6366,-4.6371,-4.6387,-4.6387,-4.6331,-4.6157,-4.5793,-4.5465,-4.5272,-4.516,-4.5172,-4.5377,-4.6116,-4.6656,-4.6447,-4.6278,-4.6263,-4.6533,-4.541,-4.468,-4.5199,-4.5199,-4.5351,-4.5917,-4.6523,-4.694,-4.7142,-4.7142,-4.665,-4.5511,-4.4895,-4.4534,-4.4358,-4.4473,-4.4358,-4.3949,-4.4026,-4.4026,-4.3949,-4.3988,-4.3622,-4.2831,-4.2395,-4.1601,-2.8678,-2.975,-3.0944,-3.1351,-3.1848,-3.243,-3.3247,0.0,0.0,0.0,0.0,0.0,0.0,0.0,-3.8705,-4.053,-4.0748,-4.1036,-4.1939,-4.2774,-4.3572,-4.4322,-4.5582,-4.6302,-4.6118,-4.6492,-4.6607,-4.6322,-4.6322,-4.6425,-4.667,-4.6266,-4.6119,-4.6344,-4.561,-4.5202,-4.5223,-4.529,-4.5182,-4.4876,-4.4892,-4.4854,-4.474,-4.4641,-4.4549,-4.4435,0.0,-4.458,-4.46,-4.4708,-4.4798,-4.4898,-4.4754,-4.4874,-4.5057,-4.4938,-4.5378,-4.6006,-4.5566,-4.6117,-4.6891,-4.6331,-4.6397,-4.6534,-4.5698,-4.5445,-4.5314,-4.469,-4.5173,-4.5865,-4.5986,-4.593,-4.586,-4.5839,-4.5485,-4.5243,-4.5606,-4.5424,-4.5327,-4.5995,-4.6471,-4.6753,-4.6619,-4.6284,-4.6318,-4.7034,-4.5988,-4.5418,-4.6263,-4.6039,-4.577,-4.559,-4.6305,-4.6645,-4.6398,-4.677,-4.6634,-4.5649,-4.4957,-4.4549,-4.4473,-4.4549,-4.4458,-4.4181,-4.4166,-4.4104,-4.3988,-4.3988,-4.3561,-4.2695,-4.2607,-4.182,-2.7939,-2.9098,-3.0312,-3.0621,-3.1493,-3.2545,-3.3488,-3.3916,-3.4348,0.0,0.0,0.0,0.0,-3.7826,-3.9143,-4.0735,-4.0598,-4.0491,-4.1133,-4.2339,-4.3258,-4.3466,-4.4849,-4.5698,-4.5515,-4.5515,-4.5405,-4.5129,-4.5129,-4.5348,-4.5808,-4.5335,-4.5228,-4.5588,-4.5077,-4.4761,-4.461,-4.461,-4.4671,-4.484,-4.4845,-4.4761,-4.461,-4.461,-4.4511,-4.432,-4.4412,-4.4158,-4.372,-4.4306,-4.4176,-4.3735,-4.4123,-4.4137,-4.391,-4.3769,-4.4308,-4.5092,-4.4539,-4.5335,-4.6482,-4.5718,-4.5789,-4.6005,-4.4841,-4.4484,-4.4283,-4.3519,-4.4183,-4.5173,-4.5339,-4.5269,-4.5183,-4.5314,-4.5052,-4.4976,-4.5824,-4.5687,-4.566,-4.6636,-4.6818,-4.688,-4.7053,-4.6383,-4.6293,-4.765,-4.6557,-4.6041,-4.7232,-4.6737,-4.6106,-4.5675,-4.6167,-4.6416,-4.6104,-4.6555,-4.6542,-4.5865,-4.5226,-4.4818,-4.4818,-4.4664,-4.4549,-4.4358,-4.4281,-4.4166,-4.3988,-4.3949,-4.3499,-4.2619,-4.2667,-4.1956,-2.7937,-2.9,-3.0156,-3.0312,-3.1172,-3.2501,-3.4191,-3.4645,-3.5062,-3.655,0.0,0.0,0.0,-3.8573,-3.9579,-3.9565,-4.0381,-4.1065,-4.1286,-4.2339,-4.3434,-4.4286,-4.5241,-4.5698,-4.5515,-4.5515,-4.5352,-4.4949,-4.4918,-4.4874,-4.4725,-4.4678,-4.4641,-4.4687,-4.4641,-4.461,-4.461,-4.461,-4.4625,-4.4625,-4.4625,-4.461,-4.461,-4.461,-4.4511,-4.4281,-4.4118,-4.3922,-4.369,-4.3508,-4.3548,-4.369,-4.3468,-4.3548,-4.3729,-4.3729,-4.375,-4.3777,-4.35,-4.3496,-4.3638,-4.3811,-4.3877,-4.3933,-4.3826,-4.3765,-4.3711,-4.3399,-4.3389,-4.3504,-4.3504,-4.3464,-4.3464,-4.3479,-4.3777,-4.4264,-4.4944,-4.5822,-4.6676,-4.7398,-4.8009,-4.8455,-4.844,-4.7363,-4.6988,-4.8343,-4.6865,-4.608,-4.7394,-4.6818,-4.6594,-4.7323,-4.7308,-4.7528,-4.8317,-4.7865,-4.7234,-4.6573,-4.5895,-4.5511,-4.5511,-4.4949,-4.4572,-4.4587,-4.4205,-4.4026,-4.3988,-4.3793,-4.325,-4.2419,-4.1995,-4.128,-2.7688,-2.8596,-2.9569,-2.9968,-3.1129,-3.254,-3.3951,-3.4499,-3.5079,-3.6371,-3.716,0.0,0.0,0.0,-3.9571,-4.0281,-4.0395,-4.0596,-4.1148,-4.2232,-4.3147,-4.3626,-4.484,-4.5589,-4.5515,-4.4997,-4.475,-4.4896,-4.4401,-4.4257,-4.4594,-4.461,-4.461,-4.461,-4.461,-4.461,-4.461,-4.461,-4.461,-4.461,-4.461,-4.461,-4.4587,-4.4465,-4.4297,-4.412,-4.3901,-4.3666,-4.3423,-4.3329,-4.3384,-4.3423,-4.3329,-4.3384,-4.3463,-4.3463,-4.3733,-4.3993,-4.3468,-4.3867,-4.4407,-4.3678,-4.3723,-4.3998,-4.3573,-4.3463,-4.3423,-4.3329,-4.329,-4.329,-4.329,-4.329,-4.3349,-4.3514,-4.4013,-4.4679,-4.5593,-4.645,-4.7277,-4.8055,-4.7988,-4.7809,-4.7983,-4.7108,-4.6613,-4.724,-4.7065,-4.7034,-4.7542,-4.7553,-4.7517,-4.7416,-4.7334,-4.7635,-4.8517,-4.8373,-4.7942,-4.7265,-4.6188,-4.5403,-4.4987,-4.4596,-4.4473,-4.461,-4.4089,-4.3871,-4.3988,-4.3621,-4.3094,-4.2381,-4.1798,-4.11,-2.7279,-2.8283,-2.9356,-2.9796,-3.1014,-3.248,-3.3849,-3.4361,-3.4926,-3.6295,-3.7071,-3.7739,-3.8394,0.0,0.0,-4.0351,-4.032,-4.0344,-4.0858,-4.1923,-4.2692,-4.2762,-4.4194,-4.5055,-4.4763,-4.4596,-4.452,-4.4533,-4.4149,-4.4128,-4.4572,-4.461,-4.461,-4.461,-4.461,-4.461,-4.461,-4.461,-4.4572,-4.4496,-4.4341,-4.4356,-4.4511,-4.4343,-4.4173,-4.3888,-4.3738,-4.3557,-4.329,-4.329,-4.329,-4.329,-4.329,-4.329,-4.329,-4.329,-4.3574,-4.3943,-4.3454,-4.3888,-4.4526,-4.3589,-4.3604,-4.3888,-4.3424,-4.329,-4.329,-4.329,-4.329,-4.329,-4.329,-4.329,-4.3349,-4.3523,-4.4125,-4.4961,-4.599,-4.6727,-4.7471,-4.844,-4.8033,-4.7629,-4.7865,-4.6996,-4.6502,-4.7052,-4.7225,-4.7317,-4.7385,-4.7814,-4.7921,-4.7446,-4.7599,-4.7947,-4.8532,-4.8419,-4.7963,-4.7246,-4.614,-4.5349,-4.491,-4.4504,-4.4358,-4.4496,-4.4026,-4.3871,-4.3988,-4.3621,-4.3199,-4.2788,-4.2074,-4.1377,-2.6739,-2.8005,-2.9639,-2.987,0.0,0.0,-3.4064,-3.4345,-3.4703,-3.6539,-3.7376,-3.7994,-3.8664,-3.898,0.0,-3.9373,-4.0021,-4.0439,-4.0331,-4.1318,-4.2015,-4.1806,-4.3403,-4.4109,-4.3176,-4.4356,-4.4783,-4.3845,-4.4284,-4.4556,-4.461,-4.461,-4.461,-4.461,-4.461,-4.461,-4.461,-4.4587,-4.4511,-4.4305,-4.3833,-4.3826,-4.4281,-4.4304,-4.4072,-4.369,-4.369,-4.3557,-4.329,-4.329,-4.329,-4.329,-4.329,-4.329,-4.329,-4.329,-4.3305,-4.329,-4.329,-4.329,-4.329,-4.329,-4.329,-4.329,-4.329,-4.329,-4.329,-4.329,-4.329,-4.329,-4.329,-4.329,-4.329,-4.3305,-4.3963,-4.4886,-4.5813,-4.6528,-4.7308,-4.8383,-4.8279,-4.8098,-4.8495,-4.7334,-4.6727,-4.8057,-4.7328,-4.6689,-4.6969,-4.7375,-4.7619,-4.7619,-4.8219,-4.862,-4.862,-4.7989,-4.7246,-4.637,-4.5657,-4.5393,-4.5572,-4.4749,-4.4281,-4.4281,-4.4104,-4.3988,-4.3988,-4.3793,-4.3675,-4.366,-4.2773,-4.2113,-2.7937,-2.8562,-2.9333,-3.0806,0.0,0.0,0.0,-3.3735,0.0,0.0,-3.7551,-3.8156,-3.8345,-3.9031,-3.9543,-3.9418,-4.0058,-4.0517,-4.0462,-4.121,-4.1782,-4.1821,-4.2734,-4.3323,-4.3176,-4.2736,-4.2638,-4.3154,-4.249,-4.2602,-4.3818,-4.3917,-4.4117,-4.461,-4.461,-4.461,-4.461,-4.432,-4.4205,-4.4281,-4.3815,-4.3776,-4.409,-4.3602,-4.3492,-4.3707,-4.3508,-4.3384,-4.329,-4.329,-4.321,-4.3076,-4.3076,-4.3076,-4.3076,-4.293,-4.297,-4.3076,-4.3076,-4.317,-4.329,-4.329,-4.329,-4.329,-4.329,-4.329,-4.329,-4.329,-4.329,-4.329,-4.329,-4.329,-4.3449,-4.4078,-4.483,-4.5615,-4.6516,-4.7232,-4.7817,-4.8137,-4.7546,-4.6963,-4.6808,-4.6275,-4.5753,-4.5327,-4.5892,-4.6609,-4.7119,-4.7747,-4.8064,-4.8064,-4.8247,-4.8453,-4.8578,-4.7881,-4.7124,-4.657,-4.5736,-4.5037,-4.4486,-4.4094,-4.4026,-4.4281,-4.3949,-4.3871,-4.3988,-4.3324,-4.2904,-4.2758,-4.1542,-4.0913,-2.7863,-2.8482,-2.9218,-3.065,-3.1659,-3.2371,-3.2748,0.0,0.0,0.0,-3.6871,-3.7613,-3.8008,-3.8672,-3.9231,-3.9382,-3.9869,-4.0277,-4.0296,-4.0808,-4.119,-4.1198,-4.22,-4.2674,-4.2065,-4.2083,-4.2094,-4.2027,-4.1633,-4.1985,-4.3308,-4.3503,-4.3848,-4.4442,-4.4473,-4.4435,-4.4358,-4.4011,-4.384,-4.3879,-4.3421,-4.3305,-4.3467,-4.3337,-4.3389,-4.3543,-4.329,-4.3205,-4.329,-4.3215,-4.3105,-4.3016,-4.2996,-4.2985,-4.2985,-4.2769,-4.289,-4.3115,-4.3036,-4.3115,-4.329,-4.329,-4.329,-4.329,-4.329,-4.329,-4.329,-4.329,-4.329,-4.329,-4.329,-4.329,-4.3499,-4.4291,-4.5012,-4.5778,-4.6656,-4.7317,-4.7706,-4.7622,-4.7199,-4.6677,-4.6087,-4.5813,-4.546,-4.4779,-4.5152,-4.5809,-4.6681,-4.7056,-4.7391,-4.7749,-4.8008,-4.8137,-4.807,-4.7359,-4.6645,-4.6012,-4.522,-4.4476,-4.3754,-4.3714,-4.3793,-4.4065,-4.3832,-4.3769,-4.3871,-4.3104,-4.2657,-4.2496,-4.1317,-4.0688,-2.6961,-2.7953,-2.918,-2.9775,-3.093,0.0,-3.2953,-3.3553,-3.4096,-3.4761,0.0,-3.6755,-3.7695,-3.8133,-3.8574,-3.928,-3.9613,-3.9813,-3.9995,-4.025,-4.0405,-4.0328,-4.1718,-4.2073,-4.043,-4.1904,-4.2354,-4.0773,-4.1311,-4.2042,-4.2849,-4.3232,-4.3644,-4.4212,-4.4205,-4.4097,-4.3858,-4.3615,-4.3403,-4.32,-4.2803,-4.2667,-4.2729,-4.3339,-4.3483,-4.325,-4.3066,-4.3066,-4.3225,-4.3034,-4.296,-4.2942,-4.2985,-4.2949,-4.2934,-4.2743,-4.2945,-4.3225,-4.3036,-4.3115,-4.329,-4.329,-4.329,-4.329,-4.329,-4.329,-4.329,-4.329,-4.329,-4.329,-4.329,-4.3349,-4.3563,-4.4228,-4.4825,-4.5454,-4.6381,-4.686,-4.7064,-4.6868,-4.7054,-4.6944,-4.6066,-4.5742,-4.5574,-4.554,-4.4839,-4.4689,-4.5728,-4.5783,-4.6029,-4.686,-4.7509,-4.773,-4.7389,-4.6671,-4.5904,-4.5151,-4.4397,-4.3778,-4.3329,-4.3557,-4.369,-4.369,-4.369,-4.369,-4.369,-4.2967,-4.2605,-4.2552,-4.1663,-4.0988,-2.7194,-2.7684,0.0,-2.9857,-3.0786,-3.1486,-3.2007,-3.2194,-3.2786,-3.4529,-3.5966,-3.704,-3.7572,-3.8789,-3.958,-3.923,-3.9757,-4.0192,-4.0021,-4.0061,-4.0147,-4.0281,-4.0786,-4.0985,-4.0791,-4.0641,-4.0517,-4.0404,-3.9822,-4.0216,-4.1881,-4.1904,-4.2447,-4.3717,-4.3606,-4.3286,-4.2737,-4.2837,-4.2798,-4.2566,-4.2664,-4.2782,-4.2941,-4.286,-4.2944,-4.3076,-4.3006,-4.2845,-4.2592,-4.2739,-4.268,-4.2526,-4.2699,-4.2659,-4.2545,-4.2482,-4.2611,-4.2832,-4.2799,-4.301,-4.329,-4.329,-4.329,-4.329,-4.329,-4.329,-4.329,-4.329,-4.329,-4.329,-4.329,-4.3678,-4.4246,-4.4923,-4.4799,-4.487,-4.6112,-4.6037,-4.572,-4.5668,-4.6109,-4.6277,-4.5563,-4.5413,-4.5068,-4.4263,-4.4213,-4.4443,-4.4861,-4.5358,-4.5947,-4.6622,-4.6818,-4.7144,-4.7806,-4.6561,-4.5763,-4.5763,-4.4497,-4.3729,-4.3596,-4.3463,-4.3503,-4.369,-4.369,-4.369,-4.369,-4.2523,-4.1806,-4.1655,-4.0434,-3.9768,-2.6915,0.0,0.0,-2.9613,0.0,-3.0903,-3.1186,-3.1764,-3.2581,-3.3782,-3.524,-3.6607,-3.7704,-3.8756,-3.9446,-3.9288,-3.9629,-3.9837,-3.9592,-3.9655,-3.9727,-3.9711,-4.0446,-4.0838,-4.0397,-4.0344,-4.0123,-3.9799,-3.9165,-3.9358,-4.0703,-4.1205,-4.1871,-4.2836,-4.3046,-4.2967,-4.256,-4.2526,-4.2486,-4.2401,-4.25,-4.2648,-4.286,-4.2733,-4.2723,-4.2835,-4.2739,-4.2662,-4.2544,-4.2544,-4.2488,-4.2392,-4.2532,-4.2493,-4.2379,-4.229,-4.2436,-4.2699,-4.2692,-4.2905,-4.316,-4.3265,-4.329,-4.329,-4.329,-4.3215,-4.3165,-4.3145,-4.308,-4.2989,-4.3025,-4.3515,-4.421,-4.4974,-4.5206,-4.5559,-4.6576,-4.6262,-4.5693,-4.5364,-4.5589,-4.5514,-4.4526,-4.4347,-4.4163,-4.3568,-4.3668,-4.3838,-4.3958,-4.4584,-4.5255,-4.5909,-4.6247,-4.6671,-4.7269,-4.6271,-4.5509,-4.5329,-4.4312,-4.3636,-4.3518,-4.3384,-4.3384,-4.3518,-4.3518,-4.3518,-4.3518,-4.2204,-4.1648,-4.1856,-4.0172,-3.9553,-2.651,0.0,-2.7855,-2.9191,-2.9983,0.0,-3.0678,-3.1757,-3.2838,-3.3155,-3.4474,-3.6023,-3.7639,-3.8339,-3.8797,-3.9156,-3.9199,-3.9162,-3.8988,-3.9156,-3.9213,-3.9061,-4.0315,-4.085,-3.9896,-4.0336,-4.0261,-3.9286,-3.8881,-3.8988,-3.9725,-4.067,-4.14,-4.1967,-4.2549,-4.271,-4.2445,-4.2374,-4.2293,-4.2231,-4.2333,-4.2514,-4.2662,-4.2622,-4.2622,-4.2662,-4.247,-4.2474,-4.2576,-4.2429,-4.2361,-4.2361,-4.2376,-4.2374,-4.2305,-4.2211,-4.2383,-4.2684,-4.2695,-4.2828,-4.307,-4.3265,-4.3265,-4.3265,-4.324,-4.3085,-4.2968,-4.296,-4.2843,-4.2699,-4.2718,-4.3278,-4.4042,-4.4768,-4.5665,-4.6478,-4.6997,-4.6578,-4.5906,-4.5259,-4.5125,-4.4781,-4.3648,-4.3469,-4.3424,-4.3305,-4.329,-4.329,-4.329,-4.3768,-4.4432,-4.5225,-4.5807,-4.6282,-4.6705,-4.6005,-4.5326,-4.4755,-4.4057,-4.3518,-4.329,-4.329,-4.329,-4.329,-4.329,-4.329,-4.329,-4.2171,-4.191,-4.2351,-4.0494,-3.991,-2.6317,0.0,-2.7865,0.0,-2.9736,-3.0603,0.0,0.0,-3.3141,0.0,-3.4842,-3.6004,-3.6756,-3.7653,-3.8315,-3.8352,-3.8517,-3.8546,-3.8337,-3.8648,-3.8885,-3.8833,-3.9833,-4.0338,-3.9858,-4.0051,-3.9935,-3.9247,-3.8617,-3.8629,-3.9475,-3.9989,-4.0646,-4.1448,-4.1974,-4.1925,-4.1302,-4.1843,-4.1966,-4.1529,-4.2114,-4.2392,-4.2433,-4.2242,-4.2284,-4.2433,-4.2389,-4.2336,-4.2189,-4.2162,-4.2162,-4.2177,-4.2347,-4.2289,-4.2158,-4.2318,-4.2494,-4.2707,-4.2708,-4.2976,-4.3265,-4.329,-4.316,-4.3044,-4.3023,-4.2909,-4.2739,-4.2736,-4.2699,-4.2699,-4.2718,-4.3587,-4.4516,-4.4647,-4.5606,-4.6563,-4.6476,-4.5749,-4.5052,-4.453,-4.4451,-4.4392,-4.4212,-4.4182,-4.3947,-4.3379,-4.329,-4.329,-4.329,-4.3364,-4.3928,-4.5181,-4.5364,-4.5918,-4.7101,-4.6075,-4.5314,-4.5226,-4.4058,-4.3329,-4.329,-4.329,-4.329,-4.329,-4.329,-4.329,-4.329,-4.2767,-4.249,-4.2366,-4.1092,-4.0491,-2.6478,-2.6807,-2.7247,0.0,-2.8949,-2.9574,-3.0162,-3.1439,-3.2591,-3.2996,-3.4129,-3.5386,-3.651,-3.7503,-3.8214,-3.8217,-3.8279,-3.8302,-3.8225,-3.8344,-3.847,-3.8464,-3.9221,-3.9649,-3.9487,-3.9552,-3.9479,-3.9218,-3.858,-3.837,-3.876,-3.9286,-3.9765,-4.0173,-4.1044,-4.1395,-4.1091,-4.1758,-4.1988,-4.1805,-4.2111,-4.2242,-4.2242,-4.2133,-4.2133,-4.2242,-4.2228,-4.2201,-4.2092,-4.2092,-4.2092,-4.2107,-4.2192,-4.2177,-4.2107,-4.2192,-4.2286,-4.2366,-4.2477,-4.2651,-4.2795,-4.293,-4.2905,-4.2813,-4.2821,-4.2699,-4.2532,-4.2532,-4.245,-4.2368,-4.2366,-4.3301,-4.4308,-4.4422,-4.5332,-4.6255,-4.6444,-4.5713,-4.4757,-4.3892,-4.4062,-4.4197,-4.3783,-4.3723,-4.3618,-4.3334,-4.329,-4.329,-4.329,-4.329,-4.3793,-4.5158,-4.5286,-4.5705,-4.6676,-4.5861,-4.5147,-4.4766,-4.3813,-4.329,-4.329,-4.329,-4.329,-4.329,-4.329,-4.3384,-4.3503,-4.2973,-4.293,-4.327,-4.1639,-4.096,0.0,0.0,-2.6901,-2.8035,-2.8473,-2.8925,0.0,0.0,-3.2248,0.0,-3.3606,-3.4747,-3.5866,-3.6953,-3.7725,-3.7863,-3.7938,-3.7976,-3.7976,-3.8066,-3.8127,-3.8127,-3.8759,-3.9131,-3.8971,-3.9102,-3.9131,-3.8957,-3.8478,-3.8202,-3.8202,-3.8841,-3.9204,-3.9204,-4.0263,-4.0844,-4.0844,-4.1355,-4.1589,-4.1589,-4.1594,-4.161,-4.161,-4.1592,-4.1601,-4.1613,-4.1864,-4.2051,-4.2092,-4.198,-4.1953,-4.1997,-4.198,-4.1993,-4.2007,-4.2078,-4.216,-4.2281,-4.2438,-4.2522,-4.2599,-4.2777,-4.2762,-4.264,-4.2699,-4.2524,-4.2318,-4.2298,-4.2216,-4.2092,-4.2092,-4.305,-4.4037,-4.4194,-4.5084,-4.6015,-4.6506,-4.5911,-4.501,-4.4165,-4.4236,-4.4276,-4.3568,-4.3464,-4.3459,-4.3319,-4.329,-4.329,-4.329,-4.3439,-4.4013,-4.5154,-4.5297,-4.566,-4.6481,-4.5618,-4.4919,-4.4579,-4.3783,-4.329,-4.329,-4.329,-4.329,-4.329,-4.329,-4.3423,-4.369,-4.327,-4.3348,-4.3942,-4.218,-4.1462,0.0,-2.7213,0.0,-2.8308,-2.8816,-2.9371,0.0,0.0,-3.2551,-3.3115,-3.3779,-3.4223,-3.4314,-3.5344,-3.6423,-3.6975,-3.7211,-3.7341,-3.7341,-3.7701,-3.7929,-3.7929,-3.8697,-3.8957,-3.8318,-3.8826,-3.8942,-3.8304,-3.8217,-3.8202,-3.8202,-3.8841,-3.9204,-3.9204,-3.9813,-4.0147,-4.0147,-4.018,-4.0201,-4.0201,-4.0183,-4.0204,-4.019,-4.0213,-4.022,-4.0263,-4.128,-4.187,-4.2092,-4.163,-4.1535,-4.1735,-4.1728,-4.1724,-4.1738,-4.2007,-4.2363,-4.2695,-4.2659,-4.2821,-4.2998,-4.3216,-4.2887,-4.2444,-4.2647,-4.2439,-4.2107,-4.2133,-4.2092,-4.2092,-4.2092,-4.305,-4.3993,-4.4037,-4.4966,-4.6015,-4.6506,-4.6237,-4.5947,-4.5847,-4.5379,-4.475,-4.4091,-4.3961,-4.3819,-4.3394,-4.329,-4.329,-4.329,-4.3828,-4.4526,-4.5214,-4.5289,-4.5828,-4.7145,-4.5475,-4.459,-4.5233,-4.4016,-4.329,-4.329,-4.329,-4.329,-4.329,-4.329,-4.3423,-4.369,-4.384,-4.3957,-4.3957,-4.2801,-4.2049,0.0,0.0,0.0,-2.7498,-2.7901,-2.8549,-2.9792,-3.0989,-3.2035,-3.274,-3.3285,-3.3724,-3.4129,-3.472,-3.5381,-3.6112,-3.6402,-3.6697,-3.7246,-3.7534,-3.7777,-3.7891,-3.8183,-3.8326,-3.8231,-3.842,-3.8304,-3.768,-3.7984,-3.8028,-3.7651,-3.8217,-3.8565,-3.8565,-3.9189,-3.9712,-4.0104,-4.0083,-4.0087,-4.0087,-4.0105,-4.0105,-4.0105,-4.0114,-4.0088,-4.0127,-4.0822,-4.1186,-4.1247,-4.1083,-4.1191,-4.1537,-4.1646,-4.1686,-4.1728,-4.198,-4.2201,-4.2322,-4.231,-4.2368,-4.2427,-4.2524,-4.2386,-4.2233,-4.2301,-4.2189,-4.2092,-4.2092,-4.2092,-4.2092,-4.2092,-4.3067,-4.4244,-4.5186,-4.5666,-4.606,-4.6653,-4.6432,-4.599,-4.5485,-4.5515,-4.5424,-4.4778,-4.4396,-4.408,-4.3815,-4.3398,-4.3076,-4.293,-4.3244,-4.3726,-4.4396,-4.4967,-4.5484,-4.5978,-4.5352,-4.4848,-4.4657,-4.3787,-4.329,-4.329,-4.329,-4.329,-4.329,-4.329,-4.3503,-4.391,-4.3949,-4.3895,-4.3732,-4.2629,-4.1678,-2.6927,0.0,0.0,0.0,-2.7258,-2.7719,-2.9012,-3.0062,-3.1012,-3.182,-3.2401,-3.2905,-3.3311,-3.3631,-3.4191,-3.5238,-3.5567,-3.5911,-3.6509,-3.694,-3.7258,-3.7462,-3.7686,-3.7853,-3.7991,-3.8066,-3.793,-3.754,-3.7947,-3.8028,-3.7622,-3.7984,-3.8202,-3.8202,-3.8638,-3.9059,-3.9465,-3.9465,-3.9465,-3.945,-3.9455,-3.9467,-3.9481,-3.9689,-3.9674,-3.9488,-4.0251,-4.067,-4.0911,-4.09,-4.1135,-4.1507,-4.1577,-4.166,-4.1744,-4.1995,-4.2133,-4.2216,-4.2216,-4.2216,-4.2201,-4.2284,-4.2201,-4.2092,-4.2175,-4.2133,-4.2092,-4.2092,-4.2092,-4.2162,-4.2361,-4.3424,-4.4708,-4.5903,-4.6121,-4.6164,-4.6668,-4.655,-4.6212,-4.5709,-4.5975,-4.6092,-4.5433,-4.4805,-4.4325,-4.402,-4.3386,-4.285,-4.2732,-4.3057,-4.3515,-4.3961,-4.4773,-4.5301,-4.5296,-4.5072,-4.4773,-4.4344,-4.3748,-4.3319,-4.3095,-4.3225,-4.321,-4.301,-4.2985,-4.317,-4.3581,-4.3699,-4.3645,-4.3349,-4.222,-4.0972,0.0,0.0,0.0,0.0,0.0,0.0,-2.8366,0.0,-2.9618,-3.0411,-3.1206,-3.177,-3.1771,-3.2124,-3.2844,-3.4264,-3.4724,-3.4938,-3.5152,-3.5859,-3.6443,-3.6659,-3.7187,-3.7558,-3.7625,-3.7777,-3.7891,-3.7863,-3.8089,-3.8188,-3.8173,-3.8188,-3.8202,-3.8202,-3.8202,-3.8202,-3.8202,-3.8202,-3.8202,-3.8202,-3.8202,-3.8202,-3.8269,-3.8896,-3.8858,-3.831,-3.9576,-4.049,-4.1084,-4.1024,-4.1282,-4.166,-4.1465,-4.1549,-4.1744,-4.1995,-4.2201,-4.2392,-4.2392,-4.2392,-4.2433,-4.2622,-4.2433,-4.2133,-4.231,-4.2242,-4.2092,-4.2092,-4.2092,-4.2221,-4.286,-4.4143,-4.5404,-4.605,-4.6197,-4.6284,-4.6546,-4.6593,-4.6653,-4.6829,-4.6873,-4.6724,-4.6101,-4.5276,-4.4512,-4.4095,-4.3294,-4.2707,-4.2713,-4.3445,-4.4005,-4.4005,-4.4751,-4.5267,-4.5307,-4.4694,-4.4296,-4.4279,-4.3908,-4.3364,-4.2713,-4.3055,-4.2985,-4.2392,-4.2392,-4.2459,-4.2688,-4.309,-4.3155,-4.2911,-4.1576,-4.0058,-2.8443,0.0,0.0,0.0,0.0,0.0,0.0,0.0,-2.9336,-2.9908,-3.0563,-3.1072,-3.131,-3.1709,-3.2024,-3.2181,-3.3223,-3.4323,-3.5078,-3.5391,-3.5761,-3.6431,-3.6632,-3.6959,-3.7529,-3.7777,-3.7704,0.0,-3.7843,-3.8014,-3.7578,-3.797,-3.8202,-3.8202,-3.8202,-3.8202,-3.8202,-3.8202,-3.8202,-3.8202,-3.8202,-3.846,-3.8948,-3.9126,-3.9257,-3.94,-4.0245,-4.0596,-4.0601,-4.0789,-4.1009,-4.1212,-4.1535,-4.166,-4.1744,-4.1995,-4.2133,-4.2175,-4.2175,-4.2175,-4.2216,-4.2242,-4.2216,-4.2092,-4.2175,-4.2133,-4.2092,-4.2092,-4.2092,-4.2225,-4.2837,-4.3704,-4.4557,-4.5357,-4.5782,-4.6094,-4.6521,-4.6446,-4.6312,-4.6388,-4.655,-4.6637,-4.6446,-4.6101,-4.5533,-4.4617,-4.3997,-4.3325,-4.2386,-4.2864,-4.3404,-4.3755,-4.4251,-4.4762,-4.525,-4.4674,-4.4193,-4.3887,-4.333,-4.2736,-4.2213,-4.2307,-4.2293,-4.2087,-4.2102,-4.2061,-4.1978,-4.2389,-4.2389,-4.2032,-4.0311,-3.881,0.0,0.0,0.0,0.0,0.0,0.0,-2.6651,-2.7343,-2.8121,-2.8423,-2.9136,-2.9782,-2.9889,-3.033,-3.0689,-3.0738,-3.1507,-3.2563,-3.396,-3.4528,-3.4997,-3.555,-3.5836,-3.6278,-3.7016,-3.7277,-3.7347,-3.7247,-3.7751,-3.7945,-3.7709,-3.8014,-3.8202,-3.8202,-3.8142,-3.8142,-3.8202,-3.8121,-3.8121,-3.8202,-3.8202,-3.8541,-3.9199,-3.9484,-3.9653,-3.9858,-4.0793,-4.0834,-4.0321,-4.0852,-4.1109,-4.1184,-4.1451,-4.1619,-4.1744,-4.1995,-4.2092,-4.2092,-4.2092,-4.2092,-4.2092,-4.2092,-4.2092,-4.2092,-4.2092,-4.2092,-4.2092,-4.2092,-4.2276,-4.2551,-4.2906,-4.356,-4.424,-4.4783,-4.5063,-4.5287,-4.5595,-4.5652,-4.5795,-4.6285,-4.6579,-4.6741,-4.6726,-4.6187,-4.556,-4.491,-4.3985,-4.311,-4.2424,-4.2647,-4.3001,-4.3375,-4.3805,-4.4072,-4.4187,-4.395,-4.3522,-4.3015,-4.2692,-4.2359,-4.1881,-4.1964,-4.1922,-4.1771,-4.1632,-4.1464,-4.1283,-4.1813,-4.1579,-4.0623,-3.9445,-3.8267,0.0,0.0,0.0,0.0,0.0,0.0,-2.5935,-2.6246,-2.6582,-2.6641,-2.7512,-2.823,-2.8092,-2.8591,-2.918,-2.9638,-2.9729,-3.0434,-3.238,-3.3336,-3.4014,-3.4405,-3.4893,-3.5472,-3.6311,-3.657,-3.6953,-3.7567,-3.7815,-3.7991,-3.8202,-3.8202,-3.8202,-3.8202,-3.7991,-3.8005,-3.8202,-3.7988,-3.7988,-3.8202,-3.8202,-3.8541,-3.9228,-3.9791,-3.9985,-3.9941,-4.1127,-4.1085,-4.0221,-4.1015,-4.1354,-4.1354,-4.1396,-4.1549,-4.1744,-4.1995,-4.2092,-4.2092,-4.2092,-4.2092,-4.2092,-4.2092,-4.2092,-4.2092,-4.2092,-4.2092,-4.2092,-4.2051,-4.2434,-4.2833,-4.286,-4.3445,-4.4058,-4.4071,-4.4092,-4.4124,-4.4124,-4.4398,-4.4977,-4.6006,-4.658,-4.6887,-4.6898,-4.5962,-4.5206,-4.5003,-4.3749,-4.2779,-4.2754,-4.2846,-4.299,-4.3097,-4.3448,-4.3428,-4.2804,-4.2833,-4.2609,-4.1974,-4.2145,-4.2031,-4.1619,-4.1798,-4.1715,-4.1311,-4.1043,-4.0817,-4.0702,-4.1283,-4.0766,-3.9161,-3.8998,-3.8227,0.0,0.0,0.0,0.0,0.0,0.0,-2.6168,-2.6223,-2.6489,-2.6922,-2.7283,-2.757,-2.7748,-2.829,-2.8477,-2.7836,-2.8674,-3.0063,-3.1972,-3.1965,-3.2395,-3.406,-3.3922,-3.4345,-3.5986,-3.6495,-3.6953,-3.7567,-3.7953,-3.8179,-3.8202,-3.8202,-3.8202,-3.8202,-3.7991,-3.8005,-3.8202,-3.8014,-3.8014,-3.8202,-3.8202,-3.8541,-3.9191,-3.964,-4.0027,-4.029,-4.0887,-4.0929,-4.0603,-4.0773,-4.0944,-4.1142,-4.1493,-4.166,-4.1744,-4.1995,-4.2092,-4.2092,-4.2092,-4.2092,-4.2092,-4.2092,-4.2092,-4.2092,-4.2092,-4.2092,-4.2036,-4.1841,-4.1732,-4.1748,-4.1886,-4.2222,-4.2496,-4.2666,-4.2797,-4.2909,-4.2915,-4.3113,-4.3384,-4.3578,-4.5284,-4.6653,-4.6637,-4.6751,-4.6358,-4.498,-4.5075,-4.4748,-4.312,-4.3868,-4.4332,-4.3873,-4.3752,-4.3475,-4.2996,-4.2467,-4.1981,-4.1554,-4.1724,-4.1539,-4.0915,-4.11,-4.11,-4.083,-4.0294,-4.0238,-4.0702,-4.083,-4.0238,-3.8957,-3.8902,-3.8227,0.0,0.0,0.0,-2.8504,0.0,0.0,0.0,-2.6264,-2.6181,-2.6434,-2.6562,-2.6635,-2.6793,-2.6693,-2.6565,-2.6378,-2.686,-2.7715,-2.9067,-3.0248,-3.165,-3.3359,-3.3033,-3.3393,-3.5277,-3.563,-3.629,-3.7639,-3.8028,-3.8202,-3.8202,-3.8202,-3.8202,-3.8202,-3.7991,-3.8005,-3.8202,-3.8005,-3.8005,-3.8202,-3.8202,-3.8713,-3.9658,-3.9853,-4.0305,-4.0925,-4.1113,-4.1086,-4.0845,-4.0845,-4.093,-4.1043,-4.1409,-4.1549,-4.1591,-4.1953,-4.2092,-4.2092,-4.2092,-4.1995,-4.1897,-4.1787,-4.1647,-4.1549,-4.1438,-4.1578,-4.1689,-4.1437,-4.1451,-4.1535,-4.1395,-4.144,-4.1497,-4.1497,-4.1592,-4.1697,-4.1765,-4.239,-4.2923,-4.305,-4.4694,-4.5944,-4.5667,-4.5947,-4.5973,-4.5089,-4.5145,-4.4886,-4.3733,-4.392,-4.3978,-4.3546,-4.2908,-4.2448,-4.221,-4.1653,-4.1255,-4.1056,-4.1156,-4.1085,-4.0859,-4.0845,-4.0802,-4.0702,-4.0097,-4.0083,-4.0702,-4.0393,-3.9774,-3.8902,-3.8902,-3.8227,0.0,0.0,0.0,0.0,0.0,-2.7131,0.0,0.0,0.0,-2.5935,0.0,0.0,0.0,0.0,0.0,-2.5066,0.0,0.0,0.0,-2.8068,0.0,-3.1742,-3.1457,-3.1823,-3.3636,-3.4076,-3.5096,-3.7238,-3.7517,-3.7672,-3.7839,-3.8072,-3.8202,-3.8202,-3.7991,-3.8005,-3.8202,-3.7953,-3.802,-3.8312,-3.8286,-3.8847,-4.0014,-4.0041,-4.0426,-4.1,-4.1114,-4.0986,-4.0731,-4.0788,-4.083,-4.093,-4.1297,-4.1423,-4.1438,-4.1926,-4.2092,-4.2092,-4.2009,-4.1814,-4.1577,-4.1354,-4.1114,-4.093,-4.073,-4.0915,-4.1086,-4.0887,-4.1001,-4.1184,-4.0873,-4.0731,-4.0659,-4.0597,-4.0484,-4.049,-4.0674,-4.1586,-4.2432,-4.2685,-4.3818,-4.4723,-4.462,-4.4906,-4.5055,-4.4749,-4.4514,-4.4281,-4.3892,-4.3544,-4.3198,-4.2825,-4.2095,-4.1511,-4.1298,-4.0943,-4.0702,-4.0702,-4.073,-4.0802,-4.0916,-4.0773,-4.0702,-4.0702,-4.0097,-4.0083,-4.0702,-4.0083,-3.9563,-3.9085,-3.8958,-3.8297,0.0,0.0,0.0,0.0,-2.8731,0.0,0.0,0.0,-2.656,-2.6004,0.0,0.0,0.0,0.0,0.0,0.0,0.0,0.0,-2.414,-2.4931,-2.6217,-2.8144,-2.8152,-2.8584,-3.0041,-3.1381,-3.3149,-3.5511,-3.5536,-3.5746,-3.6489,-3.7593,-3.8202,-3.8202,-3.7991,-3.8005,-3.8202,-3.7839,-3.8016,-3.8733,-3.8553,-3.8839,-3.9593,-3.9942,-3.9942,-3.9633,-3.9991,-4.0025,-3.9779,-4.0025,-4.0227,-4.0558,-4.1367,-4.1549,-4.1438,-4.1926,-4.2092,-4.2051,-4.162,-4.1438,-4.1354,-4.0915,-4.0744,-4.073,-4.0702,-4.043,-4.0126,-4.0126,-3.9865,-3.9645,-4.0039,-3.9821,-3.9601,-3.998,-3.9744,-3.9537,-3.9804,-4.0106,-4.0415,-4.069,-4.1441,-4.2598,-4.4293,-4.4785,-4.4497,-4.3185,-4.3416,-4.34,-4.2611,-4.3142,-4.3184,-4.2229,-4.2208,-4.1895,-4.0872,-4.0716,-4.0702,-4.0702,-4.0887,-4.0887,-4.073,-4.0688,-4.0702,-4.0702,-4.0097,-4.0083,-4.0702,-4.0083,-3.9746,-3.9662,-3.9169,-3.8482,0.0,0.0,0.0,0.0,0.0,0.0,-2.8264,0.0,-2.6607,0.0,0.0,0.0,0.0,0.0,0.0,0.0,-2.3263,0.0,0.0,0.0,-2.4464,-2.6862,0.0,0.0,-2.9082,-3.054,-3.2144,-3.4007,-3.4061,-3.4655,-3.6104,-3.675,-3.7447,-3.8188,-3.8142,-3.8089,-3.8202,-3.7915,-3.7935,-3.8286,-3.8443,-3.8931,-3.9659,-3.9815,-3.9984,-4.0152,-4.0015,-3.9952,-3.9851,-4.0069,-4.0243,-4.0386,-4.0901,-4.1086,-4.1043,-4.1522,-4.1606,-4.1451,-4.1423,-4.1227,-4.0915,-4.0328,-4.0009,-3.9865,-3.9865,-3.9807,-3.9763,-3.9791,-3.9659,-3.9543,-3.9747,-3.9571,-3.9349,-3.9557,-3.9438,-3.9394,-3.9807,-4.02,-4.065,-4.1019,-4.1693,-4.2312,-4.2612,-4.327,-4.3515,-4.2935,-4.3238,-4.3369,-4.2738,-4.2819,-4.2618,-4.1837,-4.1583,-4.1212,-4.0716,-4.0702,-4.0702,-4.0702,-4.0773,-4.0773,-4.0702,-4.0702,-4.0533,-4.0168,-3.9564,-3.9591,-4.0168,-3.9591,-3.962,-4.0308,-3.9676,-3.9058,-3.333,0.0,0.0,0.0,0.0,0.0,0.0,0.0,0.0,0.0,0.0,0.0,0.0,0.0,0.0,0.0,0.0,-2.2289,0.0,-2.201,0.0,0.0,0.0,0.0,0.0,-2.8876,-3.0133,-3.1968,-3.2227,-3.3073,-3.4894,-3.5769,-3.6684,-3.7592,-3.8011,-3.8202,-3.8202,-3.7967,-3.7949,-3.8226,-3.8349,-3.8848,-3.9725,-3.9648,-3.9824,-4.0199,-3.9865,-3.9675,-3.9719,-3.9924,-4.0055,-4.0156,-4.0357,-4.0457,-4.0501,-4.1001,-4.1071,-4.093,-4.0986,-4.0702,-4.0227,-3.9774,-3.9452,-3.9305,-3.9305,-3.9367,-3.9397,-3.9407,-3.9292,-3.922,-3.9377,-3.923,-3.9127,-3.9261,-3.9305,-3.9438,-3.9908,-4.0311,-4.0703,-4.1231,-4.1716,-4.1799,-4.1227,-4.1924,-4.2481,-4.2263,-4.2575,-4.2665,-4.2349,-4.2079,-4.1787,-4.1388,-4.0968,-4.0702,-4.0702,-4.0702,-4.0702,-4.0702,-4.0702,-4.0702,-4.0702,-4.0702,-4.0491,-4.0041,-3.9465,-3.9465,-4.0041,-3.9465,-3.9662,-4.0688,-4.0069,-3.9591,0.0,0.0,0.0,-3.1636,0.0,0.0,0.0,0.0,-2.7964,0.0,0.0,0.0,0.0,0.0,0.0,0.0,0.0,0.0,0.0,0.0,0.0,0.0,0.0,0.0,0.0,-2.5378,-2.6188,-2.9112,-2.975,-3.0625,-3.2042,-3.4654,-3.6132,-3.6174,-3.7474,-3.8202,-3.8202,-3.7801,-3.8118,-3.9029,-3.8407,-3.8624,-3.9608,-3.9394,-3.9176,-3.8953,-3.8953,-3.8953,-3.8953,-3.9203,-3.9496,-3.9744,-3.9744,-3.9744,-3.9832,-4.0501,-4.0702,-4.0659,-4.0213,-3.9733,-3.9349,-3.9305,-3.9305,-3.9305,-3.9305,-3.91,-3.8863,-3.8679,-3.8453,-3.8304,-3.8557,-3.8647,-3.8737,-3.9172,-3.9305,-3.9438,-3.9908,-3.9862,-3.9933,-4.0601,-4.0586,-4.0513,-4.0701,-4.1212,-4.1396,-4.0596,-4.0671,-4.0801,-4.0744,-4.0744,-4.0744,-4.0729,-4.073,-4.0702,-4.0702,-4.0702,-4.0702,-4.0702,-4.0702,-4.0702,-4.0702,-4.0702,-4.0688,-4.0674,-4.0069,-4.0055,-4.0674,-4.0055,-4.0083,-4.0688,-4.0069,-3.9774,0.0,0.0,-3.4508,-3.342,0.0,0.0,0.0,0.0,0.0,0.0,0.0,0.0,0.0,0.0,0.0,0.0,0.0,0.0,0.0,0.0,0.0,0.0,0.0,0.0,0.0,0.0,-2.5286,-2.757,-2.7939,-2.9167,-3.1723,-3.3217,-3.4654,-3.6052,-3.6962,-3.765,-3.8202,-3.8053,-3.8159,-3.8506,-3.8658,-3.893,-3.9255,-3.9118,-3.9087,-3.9158,-3.8845,-3.8787,-3.8908,-3.9203,-3.9349,-3.9452,-3.9452,-3.9452,-3.9496,-4.0053,-4.014,-4.0037,-3.9862,-3.9584,-3.9305,-3.9305,-3.9305,-3.9305,-3.9305,-3.9024,-3.8724,-3.8787,-3.8517,-3.8291,-3.8697,-3.8787,-3.8877,-3.9203,-3.9305,-3.9438,-3.9908,-3.9966,-4.0053,-4.0616,-4.0558,-4.0442,-4.0471,-4.0658,-4.0744,-4.0601,-4.0517,-4.0532,-4.0688,-4.0589,-4.0532,-4.0688,-4.0702,-4.0702,-4.0702,-4.0702,-4.0702,-4.0702,-4.0702,-4.0702,-4.0702,-4.0702,-4.0308,-3.9535,-3.9324,-3.931,-3.9535,-3.931,-3.9704,-4.0702,-4.0491,-4.0393,-3.6593,-3.6118,0.0,-3.4281,-3.3476,0.0,-3.1724,0.0,-3.0259,0.0,0.0,0.0,0.0,0.0,0.0,0.0,0.0,0.0,0.0,-2.1653,0.0,0.0,0.0,0.0,0.0,-2.3216,-2.4367,-2.6159,-2.6526,-2.7865,-3.0554,-3.1851,-3.3382,-3.5269,-3.6422,-3.7379,-3.8202,-3.7986,-3.8056,-3.8405,-3.8407,-3.8579,-3.8926,-3.8657,-3.8709,-3.902,-3.8724,-3.8787,-3.9056,-3.9247,-3.9305,-3.9305,-3.9305,-3.9305,-3.9349,-3.9645,-3.9672,-3.9554,-3.9554,-3.9452,-3.9305,-3.9305,-3.9247,-3.9158,-3.9158,-3.8904,-3.8647,-3.8756,-3.8517,-3.8291,-3.8774,-3.8877,-3.889,-3.9203,-3.9305,-3.9438,-3.9908,-3.9966,-4.0009,-4.0501,-4.0414,-4.0255,-4.0255,-4.0258,-4.0317,-4.0544,-4.0531,-4.056,-4.0671,-4.0602,-4.0546,-4.0688,-4.0702,-4.0702,-4.0702,-4.0702,-4.0702,-4.0702,-4.0702,-4.0702,-4.0702,-4.0702,-4.0322,-3.9577,-3.9352,-3.9352,-3.9563,-3.9338,-3.9718,-4.0702,-4.0702,-4.0659]},{"header":{"parameterUnit":"m.s-1","parameterCategory":1,"la1":30.6,"la2":29.2853,"lo1":-89.7004,"lo2":-87.6739,"dy":0.0162,"dx":0.0183,"nx":112,"ny":82,"refTime":"2023-04-05T12:00:00:Z","depth":0,"parameterNumber":3,"parameterNumberName":"V-component_of_WINDS"},"data":[0.0,0.0,0.0,0.0,0.0,0.0,0.0,0.0,0.0,0.0,0.0,0.0,0.0,0.0,0.0,0.0,0.0,0.0,0.0,0.0,0.0,0.0,0.0,0.0,0.0,0.0,0.0,0.0,0.0,0.0,0.0,0.0,0.0,0.0,0.0,0.0,0.0,0.0,0.0,0.0,0.0,0.0,0.0,0.0,0.0,0.0,0.0,0.0,0.0,0.0,0.0,0.0,0.0,0.0,0.0,0.0,0.0,0.0,0.0,0.0,0.0,0.0,0.0,0.0,0.0,0.0,0.0,0.0,0.0,0.0,0.0,0.0,0.0,0.0,0.0,0.0,0.0,0.0,0.0,0.0,0.0,0.0,0.0,0.0,0.0,0.0,0.0,0.0,0.0,0.0,2.539,2.6802,2.8404,2.9513,2.9954,2.974,2.8903,2.7357,0.0,0.0,0.0,0.0,0.0,0.0,0.0,0.0,0.0,0.0,0.0,0.0,0.0,0.0,0.0,0.0,0.0,0.0,0.0,0.0,0.0,0.0,0.0,0.0,0.0,0.0,0.0,0.0,0.0,0.0,0.0,0.0,0.0,0.0,0.0,0.0,0.0,0.0,0.0,0.0,0.0,0.0,0.0,0.0,0.0,0.0,0.0,0.0,0.0,0.0,0.0,0.0,0.0,0.0,0.0,0.0,0.0,0.0,0.0,0.0,0.0,0.0,0.0,0.0,0.0,0.0,0.0,0.0,0.0,0.0,0.0,0.0,0.0,0.0,0.0,0.0,0.0,0.0,0.0,0.0,0.0,0.0,0.0,0.0,0.0,0.0,0.0,0.0,0.0,0.0,0.0,0.0,0.0,0.0,0.0,0.0,0.0,0.0,0.0,0.0,0.0,0.0,0.0,0.0,2.7038,2.9595,3.015,3.0429,3.0489,3.0081,2.9015,2.7177,0.0,0.0,0.0,0.0,0.0,0.0,0.0,0.0,0.0,0.0,0.0,0.0,0.0,0.0,0.0,0.0,0.0,0.0,0.0,0.0,0.0,0.0,0.0,0.0,0.0,0.0,0.0,0.0,0.0,0.0,0.0,0.0,0.0,0.0,0.0,0.0,0.0,0.0,0.0,0.0,0.0,0.0,0.0,0.0,0.0,0.0,0.0,0.0,0.0,0.0,0.0,0.0,0.0,0.0,0.0,0.0,0.0,0.0,0.0,0.0,0.0,0.0,0.0,0.0,0.0,0.0,0.0,0.0,0.0,0.0,0.0,0.0,0.0,0.0,0.0,0.0,0.0,0.0,0.0,0.0,0.0,0.0,0.0,0.0,0.0,0.0,0.0,0.0,0.0,0.0,0.0,0.0,0.0,0.0,0.0,0.0,0.0,0.0,0.0,0.0,0.0,0.0,0.0,2.6822,2.8576,3.0524,3.063,3.0637,3.0734,3.022,2.9398,2.8148,2.6585,0.0,0.0,0.0,0.0,0.0,0.0,0.0,0.0,0.0,0.0,0.0,0.0,0.0,0.0,0.0,0.0,0.0,0.0,0.0,0.0,0.0,0.0,0.0,0.0,0.0,0.0,0.0,0.0,0.0,0.0,0.0,0.0,0.0,0.0,0.0,0.0,0.0,0.0,0.0,0.0,0.0,0.0,0.0,0.0,0.0,0.0,0.0,0.0,0.0,0.0,0.0,0.0,0.0,0.0,0.0,0.0,0.0,0.0,0.0,0.0,0.0,0.0,0.0,0.0,0.0,0.0,0.0,0.0,0.0,0.0,0.0,0.0,0.0,0.0,0.0,0.0,0.0,0.0,0.0,0.0,0.0,0.0,0.0,0.0,0.0,0.0,0.0,0.0,0.0,0.0,0.0,0.0,0.0,0.0,0.0,0.0,0.0,0.0,0.0,0.0,0.0,0.0,2.8661,2.9953,3.1163,3.1191,3.1131,3.1166,3.0681,2.9839,2.8792,2.6945,0.0,0.0,0.0,0.0,0.0,0.0,0.0,0.0,0.0,0.0,0.0,0.0,0.0,0.0,0.0,0.0,0.0,0.0,0.0,0.0,0.0,0.0,0.0,0.0,0.0,0.0,0.0,0.0,0.0,0.0,0.0,0.0,0.0,0.0,0.0,0.0,0.0,0.0,0.0,0.0,0.0,0.0,0.0,0.0,0.0,0.0,0.0,0.0,0.0,0.0,0.0,0.0,0.0,0.0,0.0,0.0,0.0,0.0,0.0,0.0,0.0,0.0,0.0,0.0,0.0,0.0,0.0,0.0,0.0,0.0,0.0,0.0,0.0,0.0,0.0,0.0,0.0,0.0,0.0,0.0,0.0,0.0,0.0,0.0,0.0,0.0,0.0,0.0,0.0,0.0,0.0,0.0,0.0,0.0,0.0,0.0,0.0,0.0,0.0,0.0,0.0,0.0,2.9902,3.1203,3.2286,3.2516,3.2463,3.2037,3.1738,3.0523,2.8031,2.6454,0.0,0.0,0.0,0.0,0.0,0.0,0.0,0.0,0.0,0.0,0.0,0.0,0.0,0.0,0.0,0.0,0.0,0.0,0.0,0.0,0.0,0.0,0.0,0.0,0.0,0.0,0.0,0.0,0.0,0.0,0.0,0.0,0.0,0.0,0.0,0.0,0.0,0.0,0.0,0.0,0.0,0.0,0.0,0.0,0.0,0.0,0.0,0.0,0.0,0.0,0.0,0.0,0.0,0.0,0.0,0.0,0.0,0.0,0.0,0.0,0.0,0.0,0.0,0.0,0.0,0.0,0.0,0.0,0.0,0.0,0.0,0.0,0.0,0.0,0.0,0.0,0.0,0.0,0.0,0.0,0.0,0.0,0.0,0.0,0.0,0.0,0.0,0.0,0.0,0.0,0.0,0.0,0.0,0.0,0.0,0.0,0.0,0.0,0.0,0.0,0.0,0.0,3.0158,3.1734,3.2593,3.2624,3.2548,3.2354,3.1937,3.0829,2.876,0.0,0.0,0.0,0.0,0.0,0.0,0.0,0.0,0.0,0.0,0.0,0.0,0.0,0.0,0.0,0.0,0.0,0.0,0.0,0.0,0.0,0.0,0.0,0.0,0.0,0.0,0.0,0.0,0.0,0.0,0.0,0.0,0.0,0.0,0.0,0.0,0.0,0.0,0.0,0.0,0.0,0.0,0.0,0.0,0.0,0.0,0.0,0.0,0.0,0.0,0.0,0.0,0.0,0.0,0.0,0.0,0.0,0.0,0.0,0.0,0.0,0.0,0.0,0.0,0.0,0.0,0.0,0.0,0.0,0.0,0.0,0.0,0.0,0.0,0.0,0.0,0.0,0.0,0.0,0.0,0.0,0.0,0.0,0.0,0.0,0.0,0.0,0.0,0.0,0.0,0.0,0.0,0.0,0.0,0.0,0.0,0.0,0.0,0.0,0.0,0.0,0.0,2.8696,3.074,3.2351,0.0,3.3183,3.311,3.311,3.2453,3.1215,2.9294,0.0,0.0,0.0,0.0,0.0,0.0,0.0,0.0,0.0,0.0,0.0,0.0,0.0,0.0,0.0,0.0,0.0,0.0,0.0,0.0,0.0,0.0,0.0,0.0,0.0,0.0,0.0,0.0,0.0,0.0,0.0,0.0,0.0,0.0,0.0,0.0,0.0,0.0,0.0,0.0,0.0,0.0,0.0,0.0,0.0,0.0,0.0,0.0,0.0,0.0,0.0,0.0,0.0,0.0,0.0,0.0,0.0,0.0,0.0,0.0,0.0,0.0,0.0,0.0,0.0,0.0,0.0,0.0,0.0,0.0,0.0,0.0,0.0,0.0,0.0,0.0,0.0,0.0,0.0,0.0,0.0,0.0,0.0,0.0,0.0,0.0,0.0,0.0,0.0,0.0,0.0,0.0,0.0,0.0,0.0,0.0,0.0,0.0,0.0,0.0,0.0,0.0,3.007,3.1763,3.3244,3.4277,3.4384,3.4384,3.4384,3.3427,3.1798,0.0,0.0,0.0,0.0,0.0,0.0,0.0,0.0,0.0,0.0,0.0,0.0,0.0,0.0,0.0,0.0,0.0,0.0,0.0,0.0,0.0,0.0,0.0,0.0,0.0,0.0,0.0,0.0,0.0,0.0,0.0,0.0,0.0,0.0,0.0,0.0,0.0,0.0,0.0,0.0,0.0,0.0,0.0,0.0,0.0,0.0,0.0,0.0,0.0,0.0,0.0,0.0,0.0,0.0,0.0,0.0,0.0,0.0,0.0,0.0,0.0,0.0,0.0,0.0,0.0,0.0,0.0,0.0,0.0,0.0,0.0,0.0,0.0,0.0,0.0,0.0,0.0,0.0,0.0,0.0,0.0,0.0,0.0,0.0,0.0,0.0,0.0,0.0,0.0,0.0,0.0,0.0,0.0,0.0,0.0,0.0,0.0,0.0,0.0,0.0,0.0,0.0,0.0,2.9941,3.2359,3.4054,3.4362,3.458,3.458,3.4433,3.3764,3.262,3.0897,0.0,0.0,0.0,0.0,0.0,0.0,0.0,0.0,0.0,0.0,0.0,0.0,0.0,0.0,0.0,0.0,0.0,0.0,0.0,0.0,0.0,0.0,0.0,0.0,0.0,0.0,0.0,0.0,0.0,0.0,0.0,0.0,0.0,0.0,0.0,0.0,0.0,0.0,0.0,0.0,0.0,0.0,0.0,0.0,0.0,0.0,0.0,0.0,0.0,0.0,0.0,0.0,0.0,0.0,0.0,0.0,0.0,0.0,0.0,0.0,0.0,0.0,0.0,0.0,0.0,0.0,0.0,0.0,0.0,0.0,0.0,0.0,0.0,0.0,0.0,0.0,0.0,0.0,0.0,0.0,0.0,0.0,0.0,0.0,0.0,0.0,0.0,0.0,0.0,0.0,0.0,0.0,0.0,0.0,0.0,0.0,0.0,0.0,0.0,0.0,0.0,0.0,3.0409,3.2995,3.4843,3.5162,3.5344,3.5478,3.5486,3.4835,3.3898,3.2729,0.0,0.0,0.0,0.0,0.0,0.0,0.0,0.0,0.0,0.0,0.0,0.0,0.0,0.0,0.0,0.0,0.0,0.0,0.0,0.0,0.0,0.0,0.0,0.0,0.0,0.0,0.0,0.0,0.0,0.0,0.0,0.0,0.0,0.0,0.0,0.0,0.0,0.0,0.0,0.0,0.0,0.0,0.0,0.0,0.0,0.0,0.0,0.0,0.0,0.0,0.0,0.0,0.0,0.0,0.0,0.0,0.0,0.0,0.0,0.0,0.0,0.0,0.0,0.0,0.0,0.0,0.0,0.0,0.0,0.0,0.0,0.0,0.0,0.0,0.0,0.0,0.0,0.0,0.0,0.0,0.0,0.0,0.0,0.0,0.0,0.0,0.0,0.0,0.0,0.0,0.0,0.0,0.0,0.0,0.0,0.0,0.0,0.0,0.0,0.0,0.0,0.0,3.1253,3.3599,3.5489,3.626,3.637,3.6591,3.7131,3.6235,3.5351,3.466,0.0,0.0,0.0,0.0,0.0,0.0,0.0,0.0,0.0,0.0,0.0,0.0,0.0,0.0,0.0,0.0,0.0,0.0,0.0,0.0,0.0,0.0,0.0,0.0,0.0,0.0,0.0,0.0,0.0,0.0,0.0,0.0,0.0,0.0,0.0,0.0,0.0,0.0,0.0,0.0,0.0,0.0,0.0,0.0,0.0,0.0,0.0,0.0,0.0,0.0,0.0,0.0,0.0,0.0,0.0,0.0,0.0,0.0,0.0,0.0,2.1926,2.091,0.0,0.0,0.0,0.0,0.0,0.0,0.0,0.0,0.0,0.0,0.0,0.0,0.0,0.0,0.0,0.0,0.0,0.0,0.0,0.0,0.0,0.0,0.0,0.0,0.0,0.0,0.0,0.0,0.0,0.0,0.0,0.0,0.0,0.0,0.0,0.0,0.0,0.0,0.0,0.0,3.1251,3.36,3.5441,3.6002,3.6075,3.6294,3.683,3.6296,3.575,3.5411,3.2803,0.0,0.0,0.0,0.0,0.0,0.0,0.0,0.0,0.0,0.0,0.0,0.0,0.0,0.0,0.0,0.0,0.0,0.0,0.0,0.0,0.0,0.0,0.0,0.0,0.0,0.0,0.0,0.0,0.0,0.0,0.0,0.0,0.0,0.0,0.0,0.0,0.0,0.0,0.0,0.0,0.0,0.0,0.0,0.0,0.0,0.0,0.0,0.0,0.0,0.0,0.0,0.0,0.0,0.0,0.0,0.0,0.0,0.0,0.0,2.4119,2.2918,0.0,0.0,0.0,0.0,0.0,0.0,0.0,0.0,0.0,0.0,0.0,0.0,0.0,0.0,0.0,0.0,0.0,0.0,0.0,0.0,0.0,0.0,0.0,0.0,0.0,0.0,0.0,0.0,0.0,0.0,0.0,0.0,0.0,0.0,0.0,0.0,0.0,0.0,0.0,0.0,3.1833,3.4318,3.6211,3.6907,3.6844,3.6988,3.7687,3.727,3.6884,3.6748,3.4491,0.0,0.0,0.0,0.0,0.0,0.0,0.0,0.0,0.0,0.0,0.0,0.0,0.0,0.0,0.0,0.0,0.0,0.0,0.0,0.0,0.0,0.0,0.0,0.0,0.0,0.0,0.0,0.0,0.0,0.0,0.0,0.0,0.0,0.0,0.0,0.0,0.0,0.0,0.0,0.0,0.0,0.0,0.0,0.0,0.0,0.0,0.0,0.0,0.0,0.0,0.0,0.0,0.0,2.8212,2.8606,2.9053,2.9575,2.9279,2.8295,2.6161,2.5045,2.48,2.4374,0.0,0.0,0.0,0.0,0.0,0.0,0.0,0.0,0.0,0.0,0.0,0.0,0.0,0.0,0.0,0.0,0.0,0.0,0.0,0.0,0.0,0.0,0.0,0.0,3.0523,3.0655,2.8353,0.0,0.0,0.0,0.0,0.0,0.0,0.0,0.0,0.0,0.0,0.0,3.2441,3.4883,3.6887,3.7765,3.7624,3.7819,3.8739,3.8249,3.7929,3.8015,3.6326,3.5067,0.0,0.0,0.0,0.0,0.0,0.0,0.0,0.0,0.0,0.0,0.0,0.0,0.0,0.0,0.0,0.0,0.0,0.0,0.0,0.0,0.0,0.0,0.0,0.0,0.0,0.0,0.0,0.0,0.0,0.0,0.0,0.0,1.6943,1.6688,0.0,0.0,0.0,0.0,0.0,0.0,0.0,0.0,0.0,0.0,0.0,0.0,0.0,2.6998,2.7303,2.839,2.9115,2.9504,2.9786,2.9965,3.0025,2.9872,2.972,2.9553,2.904,0.0,2.7175,2.6573,0.0,0.0,0.0,0.0,0.0,0.0,0.0,0.0,0.0,0.0,0.0,0.0,0.0,0.0,0.0,0.0,0.0,0.0,0.0,0.0,0.0,0.0,3.0284,3.1702,3.2196,3.2352,0.0,3.073,2.9104,2.8885,2.8021,0.0,0.0,0.0,0.0,0.0,0.0,0.0,3.2342,3.4195,3.5925,3.7187,3.7284,3.7657,3.8687,3.8073,3.7755,3.8015,3.6411,3.5391,3.5143,3.3815,0.0,0.0,0.0,0.0,0.0,0.0,0.0,0.0,0.0,0.0,0.0,0.0,0.0,0.0,0.0,0.0,0.0,0.0,0.0,0.0,0.0,0.0,0.0,0.0,0.0,0.0,0.0,0.0,0.0,1.7261,1.7867,1.8169,1.8707,1.9316,0.0,0.0,0.0,0.0,0.0,0.0,0.0,0.0,0.0,2.6313,2.7503,2.8423,2.9061,2.9685,3.022,3.0604,3.0705,3.0856,3.1007,3.0845,3.0795,3.0806,3.1059,3.0737,2.9952,2.8796,2.8157,2.7904,0.0,0.0,0.0,0.0,2.5829,2.6901,2.7612,2.8009,2.8057,2.7356,0.0,0.0,0.0,0.0,0.0,0.0,0.0,2.8443,0.0,0.0,3.1778,3.2735,3.3164,3.3394,3.3493,3.3006,3.2299,0.0,3.0732,3.0197,3.0059,0.0,0.0,0.0,0.0,3.2389,3.2915,3.466,3.6401,3.7831,3.7758,3.7875,3.8542,3.8713,3.8504,3.7805,3.6634,3.5878,3.5658,3.5111,3.4341,0.0,0.0,0.0,0.0,0.0,0.0,0.0,0.0,0.0,0.0,0.0,0.0,0.0,0.0,0.0,0.0,0.0,0.0,0.0,0.0,0.0,0.0,0.0,0.0,0.0,0.0,0.0,0.0,1.787,1.8552,1.9093,1.948,2.0004,0.0,0.0,0.0,0.0,0.0,0.0,2.4937,2.5731,2.6765,2.8164,2.8797,2.9609,3.0554,3.0856,3.1182,3.1533,3.1533,3.1689,3.1886,3.1886,3.1875,3.1875,3.2278,3.241,3.2229,3.0823,3.0063,2.9774,2.9064,2.8649,2.8481,2.8163,2.8709,2.9647,2.9784,3.0537,3.14,3.1085,3.127,3.1309,2.9735,0.0,0.0,0.0,0.0,3.0432,3.16,3.2441,3.3078,3.3575,3.4018,3.4342,3.4389,3.4723,3.4675,0.0,3.3049,3.275,3.2337,0.0,0.0,0.0,0.0,3.3206,3.3711,3.5156,3.6699,3.8151,3.8206,3.8226,3.8404,3.8902,3.8793,3.7891,3.6956,3.6278,3.6054,3.627,3.5517,3.3586,0.0,0.0,0.0,0.0,0.0,0.0,0.0,0.0,0.0,0.0,0.0,0.0,0.0,0.0,0.0,0.0,0.0,0.0,0.0,0.0,0.0,0.0,0.0,0.0,0.0,0.0,0.0,0.0,0.0,1.8326,1.9826,0.0,0.0,0.0,0.0,2.3534,2.4377,2.5088,2.5722,2.7418,2.8443,2.8671,2.9921,3.0963,3.1682,3.2212,3.2534,3.2545,3.2545,3.2556,3.2556,3.2556,3.2555,3.2533,3.2598,3.2921,3.3457,3.2577,3.2084,3.1661,3.0853,3.0645,3.0712,3.0596,3.0979,3.1521,3.1379,3.2124,3.319,3.3155,3.2934,3.2676,3.2383,3.1448,0.0,0.0,3.1984,3.1908,3.2932,3.3739,3.4362,3.4654,3.4951,3.5377,3.6081,3.5895,3.5255,0.0,3.3993,3.4009,3.4288,0.0,3.2909,3.4129,3.3197,3.2944,3.4513,3.5155,3.5987,3.7311,3.8015,3.8457,3.8563,3.8039,3.7941,3.8515,3.7187,3.6367,3.637,3.7005,3.6186,3.3754,3.3571,0.0,0.0,0.0,0.0,0.0,0.0,0.0,0.0,0.0,0.0,0.0,0.0,0.0,0.0,0.0,0.0,0.0,0.0,0.0,0.0,0.0,0.0,0.0,0.0,0.0,0.0,0.0,0.0,2.0712,2.1253,0.0,2.2783,2.318,2.3556,2.4097,2.4911,2.5791,2.6726,2.7864,2.8848,2.9651,3.0594,3.1402,3.2048,3.248,3.2749,3.2899,3.2674,3.262,3.262,3.262,3.2599,3.2652,3.3161,3.3486,3.3617,3.3704,3.3334,3.2659,3.2352,3.2099,3.1888,3.2013,3.233,3.2658,3.2805,3.3439,3.4174,3.3517,3.3114,3.2782,3.243,3.2204,3.2197,3.252,3.292,3.3385,3.4068,3.4563,3.5,3.542,3.5485,3.5534,3.5801,3.6022,3.5961,3.5367,3.4852,3.4762,3.5564,3.5046,3.4683,3.5166,3.5327,3.5014,3.3971,3.5143,3.6505,3.7653,3.8004,3.8299,3.8693,3.6928,3.6352,3.7612,3.7516,3.7128,3.6442,3.6609,3.6116,3.4717,3.3157,3.1445,0.0,0.0,0.0,0.0,0.0,0.0,0.0,0.0,0.0,0.0,0.0,0.0,0.0,0.0,0.0,0.0,0.0,0.0,0.0,0.0,0.0,0.0,0.0,0.0,0.0,1.9592,2.0548,2.1849,2.2055,2.2479,2.3471,2.3785,2.4119,2.4582,2.5528,2.6547,2.7544,2.8423,2.93,3.0163,3.0852,3.1585,3.2338,3.2799,3.3127,3.3454,3.3116,3.2952,3.2952,3.2843,3.2963,3.329,3.3812,3.3976,3.3911,3.4359,3.4119,3.353,3.3224,3.2907,3.2599,3.2074,3.2302,3.2895,3.3438,3.4132,3.4666,3.3933,3.3516,3.3232,3.2851,3.2866,3.2995,3.2929,3.3346,3.397,3.4773,3.5177,3.555,3.6097,3.6107,3.6115,3.636,3.6572,3.6708,3.6626,3.6015,3.5761,3.6572,3.5951,3.5532,3.6309,3.6344,3.5992,3.4993,3.5917,3.6982,3.7895,3.8121,3.8315,3.8515,3.6684,3.5778,3.6306,3.6908,3.6785,3.5841,3.6405,3.6148,3.4899,3.2784,3.1156,3.0114,0.0,0.0,0.0,0.0,0.0,0.0,0.0,0.0,0.0,0.0,0.0,0.0,0.0,0.0,0.0,0.0,0.0,0.0,0.0,0.0,0.0,0.0,0.0,1.9158,2.0311,2.1271,2.1446,2.2218,2.3002,2.3701,2.4,2.443,2.5102,2.6362,2.7422,2.8056,2.9078,2.9775,3.0185,3.0841,3.1619,3.2685,3.3332,3.3794,3.4086,3.3749,3.3636,3.3568,3.3296,3.3689,3.4497,3.4471,3.4463,3.4479,3.451,3.4488,3.438,3.3454,3.3116,3.2907,3.0963,3.1069,3.2313,3.336,3.4222,3.475,3.4482,3.4249,3.4026,3.3779,3.3481,3.33,3.3305,3.3294,3.3618,3.4935,3.5585,3.6051,3.6666,3.6879,3.7087,3.778,3.7655,3.7488,3.7845,3.734,3.6938,3.7293,3.5964,3.5532,3.7643,3.618,0.0,3.7673,3.7435,3.7317,3.7941,3.8327,3.8451,3.8084,3.7469,3.6416,3.4882,3.5366,3.542,3.4833,3.643,3.6323,3.4251,3.258,3.1301,3.047,0.0,0.0,0.0,0.0,0.0,0.0,0.0,0.0,0.0,0.0,0.0,0.0,0.0,0.0,0.0,0.0,0.0,0.0,0.0,0.0,0.0,1.9798,2.0182,2.0068,2.0728,2.1661,2.2925,2.3203,2.3687,2.4614,2.4952,2.538,2.6118,2.6958,2.7799,2.8482,2.9296,2.986,3.0195,3.1529,3.239,3.2685,3.3727,3.43,3.4367,3.3993,3.3767,3.3568,3.3048,3.3229,3.3837,3.3858,3.4119,3.4468,3.4276,3.4332,3.4502,3.4483,3.4197,3.3865,3.3553,3.3701,3.4136,3.461,3.4922,3.5032,3.4552,3.4249,3.4014,3.3549,3.3224,3.3053,3.3245,3.3418,3.3623,3.4228,3.497,3.5855,3.6773,3.671,3.6495,3.6742,3.6703,3.6668,3.6773,3.6603,3.6528,3.6909,3.7042,3.7163,3.7323,3.6484,0.0,3.6684,3.6679,3.6938,3.7905,3.8097,3.846,3.9171,3.9057,3.8405,3.7081,3.7198,3.7186,3.7014,3.6383,3.5487,3.4358,3.3077,3.2202,0.0,0.0,0.0,0.0,0.0,0.0,0.0,0.0,0.0,0.0,0.0,0.0,0.0,0.0,0.0,0.0,0.0,0.0,0.0,0.0,0.0,0.0,2.0606,2.0975,2.1098,2.1528,2.2266,2.3545,2.3739,2.4114,2.5054,2.5656,2.6136,2.6434,2.7474,2.8285,2.8747,2.9728,3.0315,3.0488,3.1819,3.2674,3.2975,3.3767,3.4408,3.4908,3.4135,3.36,3.3237,3.3016,3.3115,3.3466,3.3579,3.3794,3.4132,3.3974,3.4086,0.0,0.0,0.0,0.0,0.0,3.4327,3.4463,3.4675,3.5044,3.5242,3.4485,3.4254,3.417,3.3712,3.3495,3.3384,3.343,3.3684,3.4075,3.476,3.5393,3.5995,3.6752,3.6599,3.6263,3.6141,3.636,3.6472,3.6171,3.6514,0.0,3.6896,3.7121,3.7311,3.7489,3.6783,3.6444,3.6932,3.7033,3.6972,3.6714,3.7484,3.8444,3.9584,3.9719,0.0,0.0,0.0,3.7273,3.7894,3.6367,0.0,0.0,0.0,3.4082,3.3514,0.0,0.0,0.0,3.1192,3.0839,0.0,0.0,0.0,0.0,0.0,0.0,0.0,0.0,0.0,0.0,0.0,0.0,0.0,0.0,0.0,0.0,2.1258,2.1777,2.2131,2.2477,2.298,2.3685,2.4017,2.4507,2.5267,2.6163,2.6637,2.6528,2.7967,2.8844,2.8948,3.017,0.0,0.0,0.0,3.2724,3.3354,3.3595,3.4299,3.5382,3.4267,3.3402,3.2849,3.313,3.3203,3.3193,3.3466,3.3568,3.3625,3.3568,3.3805,3.4155,3.3999,3.4142,3.4411,3.4016,3.4051,3.4239,3.431,0.0,0.0,3.4475,3.4302,3.4349,3.4106,3.4039,3.3994,3.3846,3.4081,3.4595,3.5759,3.614,3.624,3.6433,3.6337,3.6136,3.5875,3.6333,3.6614,3.5994,3.6743,3.7423,3.7131,3.67,3.677,3.7714,3.7,3.6769,3.779,3.7917,3.7149,3.5358,0.0,0.0,3.9259,3.9346,3.86,3.6849,3.6445,3.6722,3.7918,3.6604,3.5873,3.5886,3.6481,3.6336,3.5538,3.5778,3.5711,3.529,3.3237,3.2594,0.0,0.0,0.0,0.0,0.0,0.0,0.0,0.0,0.0,0.0,0.0,0.0,0.0,0.0,0.0,2.0767,2.1459,2.2074,2.2442,2.3021,2.3539,2.3983,2.4526,2.5297,2.6292,2.6603,2.704,2.794,2.851,2.9197,3.0072,3.0636,3.1141,3.1614,3.2653,3.3225,3.323,3.4108,3.4631,3.4676,3.4437,0.0,3.3646,3.3593,3.3422,3.3271,3.326,3.3409,3.3568,3.3363,3.3749,3.4468,3.4925,3.5431,3.5876,3.5802,3.583,3.5814,3.5625,3.5428,3.5212,3.4774,3.4532,3.4411,3.4361,3.4331,0.0,3.4523,3.4505,3.4434,3.4698,3.5199,3.5539,3.5202,3.5397,3.5634,3.5466,3.5813,3.6043,3.5672,3.6267,3.6874,3.6808,3.7089,3.7274,3.6975,3.697,3.7101,3.7444,3.7228,3.714,3.738,3.6582,3.6311,3.6995,3.7044,3.7587,3.89,3.8903,3.8678,3.8236,3.8108,3.7861,3.7455,3.7298,3.7091,3.6924,3.6247,3.5783,3.5516,3.48,3.4335,0.0,0.0,0.0,0.0,0.0,0.0,0.0,0.0,0.0,0.0,0.0,1.952,1.9824,0.0,2.1121,2.1413,2.2064,2.2621,2.2809,2.3592,2.4158,2.4088,2.4863,2.563,2.6426,2.695,2.7491,2.8101,2.8787,2.9519,3.0372,3.0859,3.1325,3.1787,3.2594,3.3236,3.3555,3.3887,3.4296,3.4715,3.4256,3.3912,3.3625,3.3689,3.3586,3.326,3.3455,3.3388,3.3172,3.3208,3.366,3.4367,3.5091,3.5687,3.6059,3.6223,3.632,3.6251,3.5852,3.5733,3.5617,3.4999,3.4866,3.497,3.497,3.4934,3.5039,3.5462,3.5466,3.5359,3.5359,3.5596,3.5833,3.5571,3.5702,3.5818,3.5489,3.5661,3.5841,3.5566,3.5921,3.6309,3.6483,3.6766,3.6939,3.6843,3.6731,3.6692,3.6671,3.6649,3.6841,3.747,3.6783,3.643,3.6678,3.7031,3.7561,3.8428,3.8666,3.8571,3.8098,3.7893,3.7844,3.7913,3.7586,3.7331,3.7132,3.6762,3.6181,3.5457,3.5365,3.502,0.0,0.0,0.0,0.0,0.0,0.0,0.0,0.0,1.9411,1.9712,2.0263,2.0731,2.0945,2.1574,2.2008,2.1987,2.2671,2.3169,2.3117,2.4033,2.4621,2.4342,2.513,2.591,2.6439,2.7355,2.7967,2.8102,2.9136,3.003,3.0567,3.115,3.1672,3.2076,3.2612,3.3246,3.3948,3.3688,3.4029,3.4818,3.4033,3.3604,3.3526,3.3762,3.3681,3.3374,3.366,3.3491,3.2898,3.3346,3.3808,3.4367,3.5135,3.5632,3.5852,3.6168,3.632,3.6208,3.5753,3.5822,3.599,3.5069,3.5134,3.552,3.552,3.5588,3.5749,3.6162,3.632,3.632,3.632,3.632,3.632,3.632,3.6197,3.6013,3.5558,3.5571,3.5579,3.5386,3.5531,3.5817,3.6157,3.6223,3.6343,3.6692,3.6557,3.6271,3.595,3.6192,3.6447,3.6612,3.6677,3.6665,3.6589,3.7374,3.7721,3.7313,3.7852,3.8071,3.7852,3.7389,3.7325,3.7762,3.7564,3.7364,3.7078,3.7067,3.6586,3.5626,3.5444,3.5023,1.8591,1.8778,1.8779,1.8921,1.8918,1.8845,0.0,1.9229,1.9694,1.979,2.0269,2.0821,2.1113,2.1719,2.2114,2.2042,2.2823,2.3367,2.3109,2.4033,2.4771,2.4942,2.5603,2.6379,2.7125,2.7746,2.8373,2.8856,3.006,3.085,3.1208,3.1845,3.243,3.3022,3.3492,3.3811,3.406,3.4471,3.4585,3.4555,3.4076,3.403,3.4363,3.4049,3.3869,3.3813,3.3703,3.3568,3.3512,3.4121,3.4579,3.498,3.5522,3.5797,3.5852,3.6168,3.632,3.6266,3.5893,3.5674,3.5535,3.5153,3.526,3.552,3.552,3.583,3.6197,3.6254,3.632,3.632,3.632,3.632,3.632,3.632,3.5933,3.5535,3.521,3.5137,3.5106,3.4769,3.5108,3.5522,3.5797,3.5852,3.5961,3.6332,3.6526,3.6514,3.6038,3.6221,3.6147,3.5485,3.5501,3.5423,3.509,3.661,3.7371,3.6978,3.8039,3.838,3.7664,3.7782,3.7646,3.7227,3.74,3.7479,3.7448,3.6635,3.641,3.6776,3.5263,3.4504,2.0066,2.0081,1.9835,1.9943,2.0061,2.0034,1.9909,2.0119,2.0365,2.0686,2.0995,2.1467,2.2277,2.2485,2.2598,2.2938,2.3265,2.3427,2.3117,2.4033,2.4788,2.5066,2.5992,2.682,2.7245,2.7992,2.8794,2.9453,3.0499,3.1325,3.1845,3.2133,3.2602,3.3193,3.3621,3.3962,3.4097,3.4213,3.4259,3.4255,3.4076,3.4076,3.4164,3.3985,3.3794,3.3558,3.347,3.3593,3.3918,3.46,3.4935,3.5047,3.5588,3.5797,3.5852,3.6168,3.632,3.6277,3.5906,3.5868,3.5902,3.5588,3.5697,3.5956,3.5956,3.6105,3.632,3.632,3.632,3.632,3.632,3.6168,3.6059,3.6277,3.5845,3.5425,3.548,3.5262,3.5054,3.5043,3.5112,3.5312,3.5742,3.5797,3.5906,3.6277,3.6375,3.626,3.5631,3.5486,3.5183,3.4399,3.479,3.5076,3.5042,3.6154,3.683,3.6804,3.7292,3.7508,3.7339,3.715,3.7082,3.7121,3.7214,3.7031,3.6522,3.6577,3.6227,3.5482,3.5103,3.4737,2.1176,2.1095,2.0964,2.1062,2.1103,2.1051,2.0826,2.0781,2.0871,2.1167,2.1391,2.1841,2.2824,2.2946,2.3009,2.3453,2.3743,2.3695,2.3177,2.4033,2.4842,2.5272,2.6215,2.7093,2.7696,2.854,2.9307,2.9928,3.0965,3.1787,3.2248,3.2487,3.2784,3.3306,3.3735,3.4017,3.4199,3.411,3.411,3.4199,3.4199,3.4132,3.3931,3.3896,3.3671,3.3332,3.3515,3.3864,3.4255,3.5013,3.5335,3.5423,3.5797,3.5961,3.5961,3.6223,3.632,3.6277,3.5906,3.5913,3.6039,3.5861,3.5913,3.6094,3.6286,3.632,3.632,3.632,3.632,3.632,3.632,3.6114,3.5961,3.6114,3.5852,3.5533,3.5577,3.5257,3.5035,3.5135,3.5091,3.5146,3.5632,3.5742,3.5906,3.6277,3.632,3.6064,3.5369,3.4855,3.4348,3.3673,3.4211,3.4689,3.4884,3.5692,3.6288,3.6575,3.6619,3.6675,3.6922,3.6593,3.6471,3.6658,3.6739,3.648,3.5807,3.6365,3.6191,3.5266,3.5227,3.5044,2.1652,2.161,2.1819,2.1991,2.1736,2.1302,2.1042,2.0997,2.0952,2.0744,2.1077,2.1617,2.2227,2.2852,2.3212,2.3039,2.4041,2.4471,2.3272,2.3972,2.4932,2.5852,2.6243,2.705,2.8694,2.9528,3.0007,3.0185,3.1479,3.2305,3.2305,3.2841,3.3296,3.3579,3.3918,3.4199,3.4468,3.4468,3.4468,3.4468,3.4468,3.4356,3.4097,3.3971,3.3685,3.334,3.4129,3.4446,3.4536,3.54,3.5961,3.6266,3.6277,3.6266,3.6266,3.632,3.632,3.6277,3.5906,3.5685,3.5569,3.5747,3.5674,3.5634,3.6117,3.632,3.632,3.632,3.632,3.632,3.632,3.6266,3.6223,3.5906,3.5797,3.5632,3.5146,3.4991,3.4935,3.4579,3.4758,3.5091,3.5368,3.5632,3.5906,3.6277,3.632,3.6082,3.5566,3.4636,3.3832,3.3338,3.3779,3.4125,3.4125,3.5042,3.5851,3.6397,3.6388,3.6405,3.6405,3.6405,3.6107,3.5579,3.5772,3.5943,3.5905,3.5878,3.6398,3.7363,3.5693,3.5332,0.0,0.0,2.2188,2.2121,2.1833,2.1517,2.1338,2.1141,2.1042,2.1159,2.115,2.1491,2.2618,2.2982,2.3146,2.3302,2.4158,2.4386,2.3199,2.4333,2.5423,2.5835,2.6935,2.8024,2.8949,2.9539,2.9923,3.0036,3.1329,3.2092,3.2138,3.2845,3.342,3.3918,3.403,3.4255,3.4524,3.4524,3.4524,3.4524,3.4222,3.3998,3.3749,3.3703,3.3384,3.296,3.4041,3.4502,3.4591,3.5455,3.6004,3.632,3.632,3.632,3.632,3.632,3.632,3.6266,3.6168,3.6108,3.6048,3.6111,3.6108,3.599,3.5818,3.6002,3.6208,3.5864,3.6013,3.632,3.632,3.6114,3.6004,3.6114,3.5687,3.5257,3.5257,3.5157,3.4991,3.4869,3.5202,3.5577,3.5632,3.5895,3.6168,3.6266,3.6152,3.5867,3.5358,3.4841,3.4415,3.4061,3.4347,3.464,3.4787,3.5271,3.5693,3.5863,3.5897,3.5847,3.5847,3.5847,3.5695,3.5288,3.5893,3.5949,3.5364,3.5891,3.6129,3.6071,3.512,3.4904,0.0,2.2603,2.2529,2.2471,2.2199,2.1909,2.1705,2.1374,2.115,2.1159,2.1195,2.1572,2.2558,2.2814,2.2981,2.333,2.383,2.3919,2.3173,2.427,2.542,2.6087,2.7285,2.8433,0.0,0.0,3.0069,3.0263,3.1359,3.2089,3.2257,3.2931,3.3579,3.4086,3.4199,3.4311,3.4524,3.4524,3.4524,3.4524,3.411,3.3885,3.3727,3.3424,3.3275,3.3395,3.3942,3.4424,3.4869,3.5511,3.6004,3.632,3.632,3.632,3.632,3.632,3.632,3.632,3.632,3.6151,3.6036,3.6263,3.6036,3.5749,3.5772,3.5772,3.5749,3.5772,3.5898,3.6048,3.622,3.6114,3.6004,3.6114,3.5687,3.5312,3.5368,3.5257,3.5146,3.5146,3.5478,3.5797,3.5797,3.6223,3.6534,3.6456,3.6408,3.6127,3.5427,3.5361,3.5168,3.4602,3.4677,3.4884,3.503,3.532,3.5476,3.5549,3.5572,3.562,3.562,3.5668,3.5565,3.5208,3.5753,3.5823,3.5254,3.5869,3.6049,3.5871,3.513,3.4948,2.2898,2.2958,2.284,2.3037,2.274,2.2344,2.2157,2.1776,2.1338,2.0872,2.1302,2.1856,0.0,0.0,2.2879,2.3149,2.3311,2.332,2.316,2.3922,2.5089,0.0,0.0,0.0,0.0,0.0,0.0,3.07,3.1505,3.2124,3.2458,3.3191,3.3805,3.4086,3.4367,3.4524,3.4524,3.4524,3.4524,3.4524,3.4255,3.4009,3.3864,3.3088,3.3367,3.4408,3.392,3.4325,3.5367,3.5676,3.6004,3.632,3.632,3.632,3.632,3.632,3.632,3.632,3.632,3.5944,3.56,3.6105,3.5623,3.5014,3.5944,3.56,3.506,3.5979,3.591,3.5657,3.6117,3.6309,3.6211,3.5872,3.5774,3.5687,3.5478,3.5423,3.5423,3.5423,3.5632,3.584,3.5817,3.6503,3.6973,3.6718,3.7,3.6821,3.5754,3.6069,3.5966,3.4944,3.4823,3.4823,3.4823,3.5078,3.5247,3.5344,3.5501,3.5572,3.5572,3.5812,3.5707,3.5208,3.5394,3.5533,3.5495,3.5785,3.6202,3.6637,3.556,3.5334,2.2629,2.2689,2.2606,2.2974,2.274,2.2356,2.2193,2.232,2.2271,2.1636,2.2332,2.3018,2.2876,2.3359,2.3635,2.3261,2.3883,0.0,2.3469,2.4263,0.0,2.6663,0.0,2.8048,2.9544,2.9764,0.0,3.0956,3.1683,3.2009,3.1681,3.3122,3.4086,3.4412,3.4468,3.4524,3.4524,3.4524,3.4524,3.4524,3.4255,3.4086,3.4019,3.3565,3.3455,3.3677,3.5011,3.5257,3.4781,3.5761,3.6211,3.632,3.632,3.632,3.632,3.632,3.632,3.632,3.632,3.5944,3.56,3.6105,3.5853,3.5382,3.5634,3.5795,3.5875,3.5749,3.5887,3.6025,3.5772,3.599,3.6174,3.5699,3.5525,3.5533,3.5687,3.5522,3.5478,3.5632,3.6114,3.6422,3.62,3.6503,3.6694,3.6458,3.6858,3.6878,3.5994,3.6033,3.5915,3.5441,3.5416,3.532,3.5126,3.5175,3.5126,3.4945,3.5175,3.532,3.532,3.5572,3.5565,3.5208,3.564,3.5734,3.5495,3.6037,3.6361,3.6474,3.5332,3.4951,2.2181,2.2418,2.2355,2.2614,2.2343,2.1926,2.1658,2.1811,2.1921,2.1444,2.25,2.3363,2.3123,2.3499,2.368,0.0,0.0,0.0,2.3773,2.4412,2.5405,0.0,2.7494,0.0,2.9501,2.9921,3.0245,3.0611,3.1327,3.1867,3.2279,3.3185,3.3971,3.4457,3.4524,3.4524,3.4524,3.4524,3.4524,3.4524,3.4356,3.4199,3.4097,3.3823,3.3791,3.3909,3.5033,3.5447,3.5344,3.5872,3.6168,3.632,3.632,3.632,3.632,3.632,3.632,3.6297,3.6175,3.573,3.529,3.5933,3.5557,3.49,3.5235,3.5189,3.5037,3.5416,3.5566,3.5611,3.5531,3.5726,3.5818,3.5324,3.5321,3.5468,3.5631,3.5577,3.5509,3.568,3.5996,3.6274,3.649,3.6752,3.6828,3.6574,3.6911,3.6961,3.627,3.6443,3.6455,3.5984,3.5681,3.5452,3.5296,3.5138,3.4981,3.4823,3.492,3.5078,3.5223,3.5476,3.5568,3.5556,3.5936,3.6078,3.5906,3.6207,3.6405,3.638,3.5228,3.4861,2.1736,2.2083,2.2083,2.203,2.1702,2.1284,2.0893,2.101,2.1167,2.0938,2.23,2.3494,2.3327,2.3448,2.3635,2.3781,0.0,2.3157,2.4122,2.457,2.5445,2.7112,2.7853,2.8601,2.9501,3.0245,3.0621,3.0381,3.0842,3.1731,3.3169,3.3321,3.3735,3.4457,3.4524,3.4524,3.4524,3.4524,3.4524,3.4524,3.4524,3.4356,3.4153,3.4038,3.4116,3.4387,3.4287,3.4902,3.5942,3.5874,3.597,3.6174,3.6243,3.632,3.632,3.632,3.632,3.6251,3.6013,3.5409,3.497,3.5596,3.4982,3.4159,3.4895,3.4393,3.3763,3.5129,3.5221,3.498,3.5336,3.552,3.5474,3.4934,3.5111,3.5466,3.5466,3.5527,3.5513,3.5606,3.5678,3.5975,3.6715,3.708,3.7146,3.691,3.7053,3.6985,3.648,3.6943,3.7119,3.6441,3.5777,3.5391,3.5381,3.5005,3.4775,3.4775,3.4823,3.492,3.515,3.5464,3.5764,3.6015,3.6275,3.6405,3.6405,3.6405,3.6405,3.638,3.5303,3.4891,2.1461,2.1592,2.1612,2.1625,2.1184,2.0717,2.0664,2.1354,0.0,0.0,2.2935,2.4346,2.4422,2.4513,2.4745,2.5333,2.5123,2.4916,2.5003,2.5481,2.6048,0.0,2.7413,2.8315,2.9501,2.9942,0.0,0.0,3.159,3.1559,3.2339,3.3247,3.3966,3.4457,3.4524,3.4524,3.4524,3.4524,3.4524,3.4524,3.4524,3.4468,3.4423,3.4398,3.4142,3.3748,3.3245,0.0,3.4076,3.5625,3.5862,3.537,3.6051,3.632,3.632,3.632,3.632,3.6251,3.6013,3.5567,3.5121,3.5265,3.4705,3.4096,3.4688,3.4734,3.467,3.5336,3.5462,3.5324,3.5003,3.5531,3.591,3.5014,3.5017,3.5252,3.5466,3.5514,3.5577,3.5599,3.6117,3.6715,3.708,3.7331,3.7456,3.7177,3.7186,3.6985,3.648,3.6505,3.6448,3.61,3.5777,3.5464,3.5235,3.4981,3.4775,3.4775,3.503,3.5042,3.486,3.5523,3.5968,3.6015,3.6275,3.6405,3.6405,3.6405,3.6405,3.6392,3.5705,3.5165,2.1413,2.1367,2.1099,2.0726,2.0365,2.0113,2.0188,0.0,0.0,0.0,2.3639,2.5083,2.4893,2.5218,0.0,2.5433,2.5386,2.5267,2.5008,2.5726,2.6442,2.6846,2.7699,2.8635,2.9501,2.9973,3.0643,3.1624,3.1599,3.2103,3.3321,3.3878,3.4228,3.43,3.4412,3.4524,3.4524,3.4524,3.4524,3.4524,3.4524,3.4412,3.4311,3.4298,3.4086,3.3754,3.3883,3.4196,3.4758,3.5847,3.6074,3.5771,3.6174,3.6386,3.6483,3.632,3.6375,3.6433,3.5934,3.5515,3.5132,3.4738,3.4288,3.3873,3.4139,3.4106,3.4153,3.4697,3.4989,3.5106,3.5091,3.5304,3.5256,3.4245,3.4383,3.4884,3.5453,3.5471,3.5426,3.5553,3.6158,3.6726,3.7146,3.7294,3.7354,3.7224,3.6935,3.6707,3.6443,3.6405,3.6288,3.597,3.5741,3.5416,3.503,3.4872,3.4775,3.4775,3.4932,3.5005,3.5005,3.5391,3.5668,3.5764,3.6051,3.6193,3.6193,3.6323,3.6405,3.6392,3.5504,3.4931,2.1334,2.0976,2.05,1.9916,1.9531,1.9444,1.9791,2.0497,0.0,2.2264,2.3998,2.5325,2.5237,2.5584,2.5776,0.0,2.5663,2.558,2.5196,2.6243,2.7075,0.0,2.8215,0.0,2.9606,3.013,0.0,3.1167,3.2007,3.3041,3.4261,3.4413,3.4367,3.4199,3.4412,3.4524,3.4524,3.4524,3.4524,3.4524,3.4524,3.4412,3.4199,3.4199,3.4108,3.3961,3.4579,3.508,3.5445,3.595,3.6154,3.6182,3.6286,3.6429,3.6592,3.6375,3.636,3.6367,3.5853,3.5462,3.5074,3.4524,3.4123,3.383,3.3792,3.3661,3.3673,3.4382,3.4731,3.4927,3.5177,3.5212,3.4877,3.3963,3.4229,3.4883,3.5332,3.5348,3.5328,3.5502,3.6087,3.6676,3.7028,3.7226,3.7263,3.715,3.6762,3.6448,3.6335,3.6335,3.6278,3.5923,3.5718,3.5428,3.5042,3.4884,3.4835,3.4957,3.4835,3.4932,3.5235,3.5235,3.5271,3.5524,3.5764,3.5968,3.6015,3.6181,3.6323,3.638,3.5353,3.4793,2.0949,2.032,1.9716,1.9642,1.9043,1.8807,1.9901,0.0,2.14,2.2366,2.3527,2.465,2.57,2.5474,2.5538,2.6865,2.713,2.6922,2.6438,2.7741,2.8432,2.7485,0.0,0.0,2.9942,3.0245,3.1011,3.2405,3.3584,3.413,3.3879,3.4016,3.4255,3.4468,3.4468,3.4524,3.4524,3.4524,3.4524,3.4524,3.4524,3.4468,3.4468,3.4468,3.4233,3.392,3.437,3.4472,0.0,3.5363,3.5731,3.5711,3.6148,3.6332,3.632,3.632,3.6033,3.563,3.5792,3.5585,3.5201,3.5108,3.4737,3.4291,3.4037,3.4051,3.4384,3.5184,3.5237,3.5088,3.51,3.5645,3.5987,3.5299,3.5484,3.569,3.5037,3.5259,3.5477,3.5284,3.6281,3.7077,3.6883,3.7245,3.7406,3.6896,3.6785,3.6585,3.6113,3.6233,3.6295,3.5936,3.5718,3.5645,3.5767,3.5163,3.5017,3.5502,3.5078,3.4945,3.5393,3.5247,3.5223,3.5223,3.5512,3.5764,3.6015,3.6015,3.6146,3.6392,3.5755,3.5157,2.0938,2.0228,1.9521,1.9301,1.8922,1.8962,2.0469,0.0,2.1855,2.3254,2.4505,2.5473,2.5861,2.5883,2.5909,2.6195,2.6357,0.0,2.5953,2.7075,2.7924,2.7908,2.8776,0.0,0.0,0.0,3.0895,3.2577,3.3431,3.4141,3.4714,3.447,3.4311,3.4255,3.4412,3.4524,3.4524,3.4524,3.4524,3.4524,3.4524,3.459,3.4813,3.4813,3.4691,3.4568,3.4869,3.4703,0.0,3.5352,3.56,3.5374,3.6028,3.6375,3.6538,3.6386,3.6248,3.6191,3.5996,3.5764,3.5555,3.5306,3.5271,3.5219,3.467,3.452,3.4656,3.4926,3.5161,3.5241,3.4916,3.4811,3.4914,3.5519,3.597,3.6162,3.5558,3.5466,3.5599,3.6062,3.6588,3.7092,3.7466,3.7281,3.7034,3.681,3.6416,3.6034,3.5968,3.603,3.5994,3.574,3.5912,3.5829,3.5284,3.4945,3.5005,3.5465,3.5211,3.5187,3.5501,3.5332,3.5223,3.5223,3.532,3.5464,3.5764,3.592,3.6146,3.6405,3.5805,3.5161,2.1362,2.0634,1.9891,1.9692,1.9499,1.9717,0.0,0.0,2.2579,2.4068,2.5157,2.5924,2.6063,2.6135,2.6058,2.5764,0.0,2.6009,2.5726,2.6783,2.7875,0.0,0.0,2.9787,3.0214,3.0601,3.1466,3.3073,3.3744,3.4445,3.5323,3.4969,3.4635,3.4367,3.4534,3.4579,3.4524,3.4524,3.4524,3.4524,3.4491,3.4602,3.4836,3.5024,3.5013,3.4759,3.4934,3.4711,0.0,3.5204,3.5475,3.5417,3.6082,3.6429,3.6538,3.6375,3.6337,3.6337,3.6075,3.5966,3.5857,3.5607,3.5781,3.6001,3.5442,3.518,3.5119,3.5176,3.5431,3.5673,3.5443,3.5078,3.4998,3.601,3.6531,3.6607,3.5754,3.5709,3.5965,3.6368,3.6687,3.6922,3.717,3.6862,3.6553,3.6393,3.589,3.5536,3.5547,3.5838,3.5923,3.5619,3.578,3.566,3.509,3.4896,3.5005,3.5502,3.5247,3.5223,3.5572,3.532,3.5223,3.5223,3.5223,3.532,3.562,3.5716,3.5955,3.6263,3.549,3.4686,2.2419,2.1603,2.0847,2.1126,2.0981,2.1181,0.0,0.0,2.35,2.4562,2.5052,2.5577,2.6419,2.6039,2.574,2.6113,2.6422,0.0,2.6125,2.7544,2.8813,0.0,0.0,3.0484,3.0785,3.1912,3.3106,3.4206,3.4956,3.5412,3.5423,3.5412,3.5257,3.4991,3.498,3.4813,3.4524,3.4524,3.4524,3.4524,3.4492,3.4493,3.4559,3.5091,3.4978,3.4217,3.416,3.4215,0.0,3.4899,3.5489,3.6026,3.6244,3.632,3.632,3.632,3.5956,3.56,3.6094,3.616,3.6049,3.6213,3.6472,3.6646,3.6363,3.6048,3.5829,3.6211,3.632,3.6429,3.6958,3.7066,3.7061,3.7104,3.7344,3.7085,3.5198,3.5913,3.664,3.5782,3.6345,3.6652,3.5624,3.5832,3.5941,3.5478,3.5416,3.5282,3.4836,3.5731,3.618,3.5684,3.5139,3.5017,3.5563,3.509,3.5102,3.5827,3.5223,3.503,3.5572,3.532,3.5223,3.5223,3.5223,3.532,3.562,3.532,3.5476,3.5991,3.4826,3.3722,2.2169,2.1924,2.1666,2.1886,2.179,2.1931,2.3154,2.3401,2.361,2.4261,2.4939,2.5594,2.6089,2.5929,2.5941,2.6581,2.6368,0.0,0.0,0.0,0.0,2.9349,3.0368,3.0934,0.0,0.0,3.3089,3.3901,3.4915,3.564,3.5993,3.6004,3.5797,3.5312,3.5257,3.5202,3.5146,3.4736,3.4659,3.4902,3.4422,3.4363,3.4653,3.5165,3.508,3.4524,3.4164,3.3992,3.3951,3.4611,3.4842,3.4989,3.5944,3.632,3.632,3.632,3.6174,3.6048,3.622,3.6283,3.6233,3.6274,3.6386,3.6429,3.6538,3.6375,3.6223,3.6483,3.6592,3.67,3.7316,3.6996,3.6729,3.7536,3.6673,3.571,3.5881,3.5655,3.5381,3.5112,3.5271,3.5624,3.6076,3.5868,3.5515,3.5272,3.5126,3.5054,3.5175,3.5284,3.5357,3.5573,3.509,3.4884,3.5017,3.4896,3.4993,3.5404,3.5187,3.532,3.586,3.562,3.5464,3.5464,3.5464,3.5524,3.562,3.5716,3.5722,3.5653,3.4757,3.4068,0.0,2.265,2.2622,2.3103,2.3099,0.0,0.0,2.4107,2.3975,2.4118,2.4604,2.5122,2.5474,2.5662,2.595,2.6559,2.665,0.0,0.0,0.0,0.0,2.9956,0.0,0.0,0.0,3.274,3.3571,3.4645,3.5418,3.5944,3.6254,3.632,3.6114,3.5742,3.5632,3.5544,3.5512,3.4919,3.4752,3.512,3.4774,3.4607,3.4664,3.5416,3.5582,3.5259,3.4721,3.42,0.0,3.4456,3.4645,3.4644,3.5615,3.6105,3.632,3.632,3.632,3.632,3.632,3.6375,3.6406,3.6102,3.6098,3.6252,3.6696,3.6754,3.6646,3.6904,3.7024,3.7143,3.7637,3.737,3.7139,3.7844,3.682,3.5742,3.5788,3.5603,3.5319,3.5161,3.5102,3.5381,3.6297,3.5893,3.5405,3.5272,3.5114,3.5054,3.5163,3.4957,3.4945,3.5271,3.5187,3.5005,3.4835,3.4775,3.492,3.5175,3.5126,3.5223,3.5668,3.562,3.5572,3.5464,3.5668,3.5716,3.562,3.5872,3.5777,3.5356,3.4728,3.4167,0.0,2.3735,2.3734,2.4566,0.0,0.0,0.0,2.504,0.0,2.4228,2.4234,2.4435,2.4748,2.5344,2.5891,2.6346,2.7249,0.0,0.0,2.9107,0.0,0.0,3.1753,3.2601,3.3832,3.3796,3.4381,3.6088,3.6277,3.632,3.632,3.6332,3.632,3.632,3.6036,3.584,3.5732,3.507,3.4823,3.5106,3.5212,3.5005,3.4566,3.5678,3.6186,0.0,3.5554,3.4685,3.3743,3.444,3.4837,3.4952,3.54,3.5872,3.6386,3.6375,3.632,3.632,3.6332,3.6483,3.6576,3.5822,3.5855,3.6214,3.6949,3.7131,3.7185,3.7376,3.7507,3.7691,3.7933,3.7986,3.7986,3.8027,3.7605,3.6737,3.5216,3.5673,3.6162,3.566,3.5635,3.583,3.6211,3.5905,3.5539,3.5354,3.5381,3.5233,3.4884,3.4812,3.4836,3.4908,3.5345,3.5393,3.4956,3.4847,3.4932,3.5175,3.4932,3.4932,3.5175,3.5476,3.5464,3.5223,3.5716,3.5872,3.562,3.5872,3.573,3.5183,3.4636,3.4077,2.4025,0.0,2.4812,2.5262,2.5488,2.5641,0.0,0.0,0.0,0.0,0.0,0.0,0.0,2.5726,2.6579,2.7455,0.0,2.8232,2.8057,2.9288,0.0,3.2017,3.2626,3.3094,3.359,3.4109,3.4739,3.5553,3.6048,3.632,3.632,3.6483,3.6503,3.6325,3.6494,3.6407,3.5887,3.591,3.5567,3.4888,3.4127,3.4105,3.473,3.5035,3.5171,3.512,3.4969,3.4776,3.4516,3.4428,3.5057,3.6034,3.6151,3.6632,3.7262,3.7036,3.6754,3.6592,3.6375,3.6483,3.6677,3.6722,3.6967,3.7281,3.7453,3.7477,3.7477,3.753,3.7732,3.7933,3.7986,3.7986,3.8039,3.825,3.7432,3.6456,3.6117,3.5877,3.5649,3.5102,3.6003,3.6481,3.5381,3.5562,3.5647,3.5016,3.4957,3.4981,3.509,3.4921,3.5126,3.5929,3.5769,3.5633,3.5683,3.5162,3.4835,3.4872,3.4823,3.4932,3.5175,3.5476,3.5464,3.5223,3.5524,3.5764,3.592,3.5968,3.573,3.5183,3.4624,3.4155,2.44,2.4793,2.5222,2.574,2.5758,2.5653,2.5723,0.0,0.0,0.0,0.0,0.0,0.0,2.6325,2.7321,2.8348,2.8994,0.0,0.0,0.0,3.1562,3.225,3.2757,3.3213,3.3529,3.3937,3.4456,3.5061,3.5428,3.5692,3.591,3.5875,3.5936,3.611,3.6473,3.6473,3.6109,3.5782,3.5481,3.5151,3.4047,3.3974,3.4804,3.4949,3.5037,3.5042,3.5012,3.4969,3.4999,3.4918,3.5289,3.5868,3.6105,3.64,3.6672,3.6502,3.6385,3.6356,3.6484,3.6607,3.6814,3.718,3.7311,3.7268,3.7544,3.7596,3.7644,3.7725,3.7909,3.7979,3.8027,3.8003,3.8031,3.8185,3.7436,3.6623,3.6452,3.5989,3.5489,3.5078,3.5977,3.654,3.5526,3.5539,3.5697,3.5731,3.5393,3.532,3.571,3.5272,3.5187,3.5771,3.5453,3.5305,3.5453,3.504,3.4775,3.4775,3.4775,3.4884,3.503,3.5271,3.5464,3.5572,3.5476,3.562,3.6015,3.5872,3.5711,3.5556,3.4858,3.4404,2.4746,2.5041,2.5435,2.5985,2.5758,2.5442,2.5645,0.0,0.0,0.0,0.0,0.0,0.0,2.6914,0.0,0.0,0.0,0.0,3.1689,3.2191,3.2406,3.2298,3.2726,3.3203,3.3612,3.3663,3.4056,3.4814,3.4849,3.5033,3.5488,3.5172,3.5219,3.5695,3.6147,3.6251,3.6069,3.5128,3.4945,3.5405,3.4433,3.4261,3.4796,3.5105,3.5222,3.5208,3.5216,0.0,3.5292,3.5395,3.5485,3.5473,3.5881,3.5931,3.577,3.577,3.5872,3.6062,3.6606,3.6813,3.6896,3.7362,3.7207,3.6864,3.733,3.7497,3.753,3.7758,3.7831,3.7899,3.7879,3.7895,3.7899,3.7932,3.7442,3.6901,3.6478,3.6051,3.5611,3.5369,3.6001,3.6466,3.6136,3.5783,3.5819,3.662,3.6015,3.5708,3.6248,3.5722,3.5369,3.5454,3.5295,3.5184,3.5196,3.5196,3.5124,3.4907,3.4823,3.4835,3.4884,3.503,3.5368,3.592,3.5464,3.5476,3.592,3.5716,3.5727,3.5879,3.5038,3.4542,2.477,2.5548,2.618,2.5804,2.5758,2.5845,2.5985,0.0,0.0,0.0,0.0,0.0,0.0,2.7306,2.844,0.0,0.0,3.0719,0.0,0.0,3.242,3.3051,3.335,3.3618,3.3891,3.4084,3.4484,3.5109,3.5161,3.5248,3.5577,3.5742,3.5561,3.4986,3.5637,3.5657,3.5046,3.447,3.4325,3.4489,3.4613,3.4711,3.4784,3.4858,3.4858,3.4919,0.0,3.545,3.5493,3.5072,3.5557,3.6557,3.6418,3.6452,3.6614,3.6614,3.6512,3.6372,3.6722,3.686,3.686,3.7045,3.6945,3.6836,3.6887,3.6937,3.695,3.7012,3.7213,3.73,3.7313,3.7313,3.7351,3.7628,3.7331,3.6899,3.6579,3.6407,3.6174,3.5853,3.6682,3.7195,3.6452,3.6319,3.6307,3.6437,3.5558,3.5223,3.5953,3.5953,3.6074,3.6524,3.6923,3.7088,3.6831,3.6831,3.6447,3.5557,3.5076,3.4872,3.5126,3.4981,3.5126,3.5668,3.5572,3.5572,3.5668,3.562,3.5482,3.5307,3.4484,3.4066,2.4765,2.5465,2.608,2.5558,2.5503,2.5681,2.6033,0.0,0.0,0.0,0.0,0.0,0.0,0.0,2.9767,3.0334,3.0986,3.1702,3.2546,3.2452,3.2463,3.2797,3.3193,3.3563,3.3815,3.3934,3.4173,3.4591,3.4591,3.4746,3.5168,3.5023,3.499,3.5082,3.5077,3.4999,3.478,3.4596,3.4513,3.459,3.4602,3.4651,3.4798,3.4799,3.4884,3.503,0.0,3.5381,3.5795,3.5722,3.5954,3.6358,3.6566,3.6419,3.6162,3.6309,3.6665,3.7007,3.6899,3.7428,3.8056,3.7351,3.7237,3.7347,3.6923,3.68,3.6776,3.6676,3.6826,3.7058,3.7156,3.7194,3.7219,3.7369,3.7246,3.7048,3.6849,3.6702,3.6542,3.6016,3.68,3.7356,3.6834,3.6406,3.6269,3.6747,3.593,3.5644,3.6717,3.6621,3.6489,3.659,3.6915,3.702,3.6577,3.6705,3.6435,3.5665,3.5124,3.4884,3.4981,3.4884,3.4969,3.538,3.5368,3.5476,3.562,3.562,3.5433,3.5195,3.4656,3.4168,2.4719,2.5294,2.5889,2.5523,2.5446,2.5599,2.6105,2.5966,2.6237,0.0,0.0,0.0,0.0,3.0223,3.0858,3.2402,3.2293,3.2208,3.2718,3.2635,3.2524,3.2605,3.3036,3.3431,3.3679,3.3679,3.3828,3.4162,3.4162,3.4327,3.4754,3.4473,3.4548,3.5139,3.4745,3.458,3.4775,3.4775,3.4823,3.4797,3.4567,3.458,3.4775,3.4775,3.4932,3.5175,3.509,3.544,3.604,3.6281,3.6254,3.6053,3.6534,3.6303,3.5716,3.592,3.6525,3.7171,3.7042,3.7704,3.8402,3.727,3.7245,3.7504,3.68,3.6588,3.6585,3.6436,3.6584,3.6826,3.6961,3.6986,3.6998,3.7023,3.6973,3.6911,3.686,3.6749,3.6564,3.6273,3.6991,3.7541,3.726,3.6565,3.6331,3.7228,3.6374,3.6052,3.7318,3.7093,3.6757,3.6576,3.6805,3.6838,3.6509,3.6536,3.6362,3.5833,3.5255,3.5016,3.5016,3.4895,3.4884,3.5126,3.5223,3.5368,3.562,3.5668,3.554,3.5288,3.486,3.428,2.4662,2.5376,2.6041,2.5889,2.5868,2.5968,2.6474,2.6524,2.6783,2.773,0.0,0.0,0.0,3.0001,3.1062,3.276,3.1906,3.144,3.262,3.2635,3.2582,3.2845,3.3096,3.3431,3.3679,3.3679,3.3866,3.4335,3.4311,3.4433,3.4786,3.475,3.4799,3.4835,3.4799,3.4775,3.4775,3.4775,3.4787,3.4787,3.4787,3.4775,3.4775,3.4775,3.4932,3.5223,3.5646,3.5886,3.6015,3.6266,3.6218,3.6015,3.6313,3.6218,3.5968,3.5968,3.6065,3.6248,3.7153,3.7067,3.6536,3.6115,3.625,3.6457,3.6127,3.6077,3.6113,3.6335,3.6408,3.6423,3.6423,3.6471,3.6471,3.6483,3.6248,3.6085,3.6395,3.6204,3.6222,3.6948,3.7593,3.7942,3.793,3.7087,3.6711,3.7769,3.6615,3.6002,3.7112,3.6991,3.6897,3.7139,3.7379,3.7636,3.7834,3.7397,3.6904,3.6386,3.5857,3.5557,3.5557,3.5039,3.4823,3.4835,3.532,3.5572,3.562,3.586,3.5812,3.5437,3.4695,3.418,2.4767,2.5244,2.5704,2.6108,2.6587,2.7003,2.7127,2.7504,2.8154,2.9322,3.0024,0.0,0.0,0.0,3.2475,3.3058,3.2421,3.2075,3.2731,3.2773,3.2736,3.2652,3.318,3.358,3.3679,3.3754,3.3952,3.4372,3.4534,3.4655,3.4763,3.4775,3.4775,3.4775,3.4775,3.4775,3.4775,3.4775,3.4775,3.4775,3.4775,3.4775,3.4835,3.5054,3.5235,3.5331,3.5789,3.6075,3.6275,3.6358,3.6323,3.6275,3.6358,3.6323,3.6228,3.6228,3.6453,3.6751,3.6799,3.7054,3.7262,3.6488,3.6526,3.6837,3.6401,3.6228,3.6275,3.6358,3.6405,3.6405,3.6405,3.6405,3.6213,3.5553,3.596,3.6504,3.6429,3.67,3.7103,3.7629,3.7746,3.769,3.7404,3.697,3.6747,3.6991,3.6771,3.6747,3.7144,3.7572,3.7712,3.7463,3.7567,3.7721,3.7991,3.7793,3.7457,3.6928,3.6086,3.5473,3.5148,3.5078,3.4981,3.4775,3.5464,3.5764,3.562,3.6038,3.6,3.5483,3.484,3.4335,2.4724,2.5244,2.5858,2.6246,2.7079,2.7802,2.7903,2.8388,2.9113,3.0186,3.1175,3.2019,3.2575,0.0,0.0,3.3189,3.2577,3.2235,3.25,3.2534,3.2464,3.237,3.3001,3.3415,3.335,3.3605,3.3931,3.4171,3.4571,3.4788,3.4823,3.4775,3.4775,3.4775,3.4775,3.4775,3.4775,3.4775,3.4823,3.492,3.4643,3.4655,3.4932,3.5272,3.5453,3.5619,3.5895,3.6146,3.6405,3.6405,3.6405,3.6405,3.6405,3.6405,3.6405,3.6405,3.6644,3.6872,3.6543,3.6908,3.7362,3.6656,3.6669,3.6908,3.6518,3.6405,3.6405,3.6405,3.6405,3.6405,3.6405,3.6405,3.6213,3.548,3.6132,3.6899,3.6746,3.7168,3.7676,3.793,3.8036,3.7886,3.7397,3.7049,3.6824,3.701,3.6979,3.7051,3.7439,3.7778,3.7863,3.7488,3.7609,3.7799,3.8003,3.7829,3.7557,3.7079,3.6211,3.551,3.5088,3.5163,3.5126,3.492,3.5572,3.5764,3.562,3.6038,3.6088,3.5665,3.5149,3.4643,2.4448,2.5494,2.6628,2.6369,0.0,0.0,2.8773,2.9076,2.9378,2.992,3.1571,3.3101,3.361,3.3513,0.0,3.3111,3.2264,3.1737,3.1937,3.1848,3.1804,3.2079,3.2558,3.2788,3.2536,3.3273,3.3746,3.372,3.4366,3.4811,3.4775,3.4775,3.4775,3.4775,3.4775,3.4775,3.4775,3.4835,3.4932,3.5163,3.4246,3.4318,3.5223,3.532,3.5609,3.6015,3.6015,3.6146,3.6405,3.6405,3.6405,3.6405,3.6405,3.6405,3.6405,3.6405,3.6417,3.6405,3.6405,3.6405,3.6405,3.6405,3.6405,3.6405,3.6405,3.6405,3.6405,3.6405,3.6405,3.6405,3.6405,3.6405,3.6405,3.6417,3.6726,3.7083,3.7431,3.751,3.763,3.7971,3.8575,3.8862,3.8145,3.7315,3.7168,3.8226,3.7227,3.6807,3.7866,3.7515,3.7204,3.7204,3.7673,3.7986,3.7986,3.7493,3.7079,3.6802,3.6317,3.5865,3.5605,3.5356,3.5223,3.5223,3.5476,3.562,3.562,3.586,3.6003,3.5991,3.5653,3.5103,2.5045,2.5605,2.6296,2.7315,0.0,0.0,0.0,2.9781,0.0,0.0,3.3368,3.3981,3.415,3.4229,3.3997,3.3149,3.3021,3.2737,3.1898,3.2052,3.2206,3.2091,3.2569,3.2795,3.2536,3.2792,3.3014,3.3113,3.3647,3.4039,3.4234,3.4234,3.439,3.4775,3.4775,3.4775,3.4775,3.5175,3.532,3.5223,3.5244,3.5291,3.5307,3.5072,3.5456,3.627,3.6266,3.6323,3.6405,3.6405,3.6499,3.6628,3.6628,3.6628,3.6628,3.6828,3.6781,3.6628,3.6628,3.6546,3.6405,3.6405,3.6405,3.6405,3.6405,3.6405,3.6405,3.6405,3.6405,3.6405,3.6405,3.6405,3.6458,3.6741,3.712,3.7519,3.7836,3.8162,3.8463,3.872,3.8674,3.837,3.7568,3.7389,3.7133,3.6542,3.6586,3.6909,3.7648,3.7894,3.8061,3.8061,3.8206,3.8198,3.8039,3.7662,3.7233,3.6548,3.6218,3.5904,3.5624,3.5706,3.5572,3.5223,3.5668,3.5764,3.562,3.5476,3.5525,3.564,3.4781,3.4254,2.5476,2.5985,2.6656,2.784,2.882,2.9663,3.0205,0.0,0.0,0.0,3.4233,3.4466,3.4524,3.4517,3.4178,3.3192,3.3158,3.2908,3.1981,3.2026,3.2109,3.1971,3.2528,3.2745,3.2351,3.2584,3.2887,3.3131,3.2968,3.3247,3.4218,3.4065,3.4258,3.4957,3.4981,3.503,3.5126,3.556,3.574,3.5692,3.5635,3.5777,3.6071,3.5645,3.5767,3.6376,3.6405,3.6414,3.6405,3.6584,3.6653,3.6577,3.6722,3.6794,3.6794,3.7015,3.6875,3.6581,3.6675,3.6581,3.6405,3.6405,3.6405,3.6405,3.6405,3.6405,3.6405,3.6405,3.6405,3.6405,3.6405,3.6405,3.6581,3.7247,3.7603,3.7904,3.8375,3.8832,3.9065,3.8736,3.8821,3.8563,3.7404,3.7431,3.7308,3.6505,3.6727,3.7095,3.7382,3.7851,3.812,3.8237,3.8444,3.8376,3.7895,3.7503,3.702,3.6436,3.6051,3.5855,3.5908,3.5955,3.586,3.5524,3.5812,3.592,3.5764,3.5375,3.5242,3.5344,3.4593,3.4066,2.5697,2.6468,2.733,2.8009,2.9033,0.0,3.1753,3.1633,3.1795,3.3789,0.0,3.45,3.4693,3.4562,3.4127,3.3253,3.2946,3.2674,3.2171,3.1945,3.1781,3.1721,3.2448,3.2723,3.2159,3.2813,3.3315,3.3536,3.2494,3.2699,3.4544,3.4158,3.4329,3.5247,3.532,3.5391,3.5595,3.5953,3.6178,3.6329,3.5678,3.5961,3.7062,3.6528,3.6326,3.6452,3.6458,3.6458,3.6512,3.6917,3.6854,3.6514,3.6794,3.6926,3.6913,3.7074,3.6841,3.6512,3.6675,3.6581,3.6405,3.6405,3.6405,3.6405,3.6405,3.6405,3.6405,3.6405,3.6405,3.6405,3.6405,3.6455,3.6716,3.7774,3.7947,3.814,3.8919,3.932,3.9229,3.8208,3.8874,3.9129,3.7554,3.7456,3.7568,3.7457,3.7292,3.7167,3.7195,3.7406,3.7691,3.8032,3.8472,3.8479,3.7779,3.7207,3.676,3.6481,3.5952,3.5847,3.6358,3.6146,3.6015,3.6015,3.6015,3.6015,3.6015,3.5419,3.5121,3.5155,3.4727,3.4165,2.5193,2.6042,0.0,2.7721,2.9215,3.074,3.1659,3.1775,3.2149,3.3858,3.4056,3.4165,3.4884,3.4621,3.4104,3.3432,3.3656,3.3502,3.2481,3.2369,3.2293,3.1969,3.2808,3.3338,3.2958,3.3726,3.4149,3.3828,3.3488,3.3596,3.4371,3.4466,3.4913,3.5798,3.6026,3.5921,3.5544,3.6425,3.6472,3.5717,3.6358,3.6701,3.6756,3.5884,3.5875,3.6628,3.6649,3.6837,3.7188,3.6989,3.6938,3.6967,3.7036,3.7083,3.7065,3.7256,3.7286,3.7151,3.7041,3.6734,3.6405,3.6405,3.6405,3.6405,3.6405,3.6405,3.6405,3.6405,3.6405,3.6405,3.6405,3.6732,3.7209,3.7862,3.7674,3.7651,3.8693,3.863,3.8279,3.8066,3.8605,3.8831,3.7979,3.7854,3.7566,3.6487,3.6853,3.7127,3.6898,3.7308,3.7791,3.8262,3.8423,3.8518,3.854,3.7873,3.7307,3.7059,3.6356,3.5968,3.6098,3.6228,3.6181,3.6015,3.6015,3.6015,3.6015,3.4975,3.4616,3.4798,3.3853,3.337,2.5263,0.0,0.0,2.866,0.0,3.1106,3.1459,3.1903,3.2439,3.3197,3.3515,3.3914,3.4625,3.4364,3.384,3.3333,3.3474,3.3501,3.3002,3.2835,3.2748,3.2736,3.3564,3.404,3.3897,3.4533,3.4879,3.4597,3.4046,3.3913,3.4382,3.4575,3.5056,3.5943,3.6361,3.6454,3.6269,3.6967,3.7014,3.6455,3.7027,3.7155,3.6849,3.6337,3.6409,3.6909,3.6989,3.7168,3.7392,3.7392,3.7426,3.7505,3.7464,3.7183,3.6839,3.7415,3.7544,3.7364,3.7193,3.6888,3.6619,3.6465,3.6405,3.6405,3.6405,3.6584,3.6704,3.6606,3.6713,3.6879,3.6747,3.7166,3.7676,3.8073,3.8101,3.8228,3.9082,3.8818,3.8341,3.8065,3.8253,3.8191,3.7362,3.7211,3.6975,3.6316,3.6561,3.6784,3.6641,3.708,3.7555,3.7929,3.8378,3.8816,3.9226,3.8228,3.7432,3.7035,3.6366,3.6051,3.6193,3.6323,3.6323,3.6193,3.6193,3.6193,3.6193,3.5023,3.4715,3.5044,3.3709,3.3262,2.5322,0.0,2.7553,2.964,3.0779,0.0,3.1219,3.1965,3.2624,3.2581,3.3074,3.3739,3.4263,3.4069,3.3725,3.3368,3.3258,3.33,3.3594,3.3368,3.327,3.3509,3.4356,3.4812,3.4605,3.5141,3.5463,3.5296,3.4399,3.4041,3.4533,3.4813,3.5281,3.6001,3.6582,3.6964,3.706,3.7407,3.75,3.7363,3.7453,3.7366,3.7168,3.7214,3.7214,3.7168,3.7328,3.7413,3.7503,3.7787,3.7892,3.7892,3.7905,3.7407,3.6775,3.7592,3.7663,3.7351,3.7278,3.7066,3.6785,3.6465,3.6465,3.6465,3.6524,3.6798,3.7024,3.6854,3.7079,3.7364,3.7134,3.7621,3.8201,3.8405,3.8829,3.9259,3.9522,3.917,3.8605,3.7977,3.7864,3.7575,3.6707,3.6556,3.6518,3.6417,3.6405,3.6405,3.6405,3.6807,3.7201,3.753,3.8266,3.9007,3.9626,3.8517,3.7531,3.7057,3.6399,3.6193,3.6405,3.6405,3.6405,3.6405,3.6405,3.6405,3.6405,3.5307,3.5011,3.5458,3.3903,3.3414,2.4702,0.0,2.7264,0.0,3.0392,3.121,0.0,0.0,3.2568,0.0,3.3282,3.3501,3.4126,3.4277,3.4272,3.423,3.3779,3.3656,3.4217,3.4043,3.3802,3.3683,3.4855,3.5375,3.4648,3.5435,3.58,3.5338,3.4695,3.4478,3.4848,3.5535,3.6119,3.6509,3.7299,3.7502,3.7026,3.7593,3.7456,3.6742,3.7259,3.7505,3.7459,3.7703,3.7657,3.7459,3.742,3.7539,3.7821,3.788,3.788,3.7893,3.7879,3.7827,3.771,3.7853,3.7596,3.7206,3.7619,3.7194,3.6465,3.6405,3.6619,3.6845,3.6989,3.6973,3.6989,3.7232,3.7364,3.7364,3.7134,3.789,3.8697,3.8725,3.9557,4.0033,3.9171,3.8729,3.8223,3.7448,3.7299,3.7249,3.7098,3.7073,3.6958,3.648,3.6405,3.6405,3.6405,3.6468,3.686,3.7827,3.8065,3.853,3.961,3.8919,3.8276,3.7865,3.6887,3.6358,3.6405,3.6405,3.6405,3.6405,3.6405,3.6405,3.6405,3.5569,3.526,3.547,3.41,3.3601,2.5072,2.5887,2.6834,0.0,2.9523,3.0359,3.0493,3.1234,3.1957,3.2073,3.2671,3.3361,3.4047,3.4441,3.4559,3.441,3.4165,3.4111,3.4343,3.4298,3.4186,3.4105,3.4929,3.5388,3.5012,3.5379,3.5547,3.5312,3.4737,3.4473,3.4595,3.5296,3.5726,3.5856,3.6875,3.7273,3.6998,3.7599,3.7723,3.7313,3.7586,3.7703,3.7703,3.7854,3.7854,3.7703,3.769,3.7749,3.79,3.79,3.79,3.7913,3.7906,3.7893,3.7913,3.7906,3.7742,3.7564,3.7498,3.724,3.6956,3.6828,3.6888,3.7053,3.7224,3.7364,3.7464,3.7464,3.7557,3.765,3.7564,3.8394,3.9201,3.9043,4.0018,4.0743,3.9931,3.9043,3.8057,3.6993,3.6973,3.7086,3.682,3.6769,3.6681,3.6443,3.6405,3.6405,3.6405,3.6405,3.6747,3.7641,3.7915,3.8266,3.8993,3.8567,3.8051,3.7563,3.6845,3.6405,3.6405,3.6405,3.6405,3.6405,3.6405,3.6323,3.6181,3.5503,3.531,3.5511,3.402,3.3615,0.0,0.0,2.6378,2.7731,2.8785,2.9628,0.0,0.0,3.1414,0.0,3.2031,3.2758,3.3592,3.4459,3.4949,3.4771,3.4688,3.4647,3.4647,3.4577,3.4481,3.4481,3.4976,3.5234,3.509,3.5208,3.5234,3.5077,3.4646,3.4397,3.4397,3.4972,3.5299,3.5299,3.6253,3.6776,3.6776,3.7318,3.7612,3.7612,3.7781,3.7879,3.7879,3.7696,3.754,3.7469,3.7861,3.7946,3.79,3.7965,3.8024,3.8064,3.7965,3.7893,3.7907,3.7887,3.7795,3.7572,3.7217,3.7209,3.7359,3.7185,3.7172,3.7312,3.7364,3.7622,3.7853,3.767,3.7762,3.79,3.79,3.8762,3.9564,3.9358,4.0327,4.1161,4.0605,3.9472,3.8273,3.7306,3.7283,3.7235,3.6802,3.6713,3.6628,3.643,3.6405,3.6405,3.6405,3.6531,3.6849,3.7554,3.7841,3.8229,3.883,3.8278,3.7775,3.7572,3.682,3.6405,3.6405,3.6405,3.6405,3.6405,3.6405,3.6275,3.6015,3.5511,3.5417,3.5584,3.4004,3.365,0.0,2.5488,0.0,2.7397,2.8441,2.9435,0.0,0.0,3.1297,3.2259,3.1706,3.1428,3.242,3.4281,3.5637,3.5629,3.5467,3.5358,3.5358,3.5003,3.4756,3.4756,3.5073,3.5077,3.4502,3.4959,3.5064,3.4489,3.441,3.4397,3.4397,3.4972,3.5299,3.5299,3.5848,3.6149,3.6149,3.6577,3.6757,3.6757,3.7554,3.7903,3.7889,3.7091,3.6534,3.6253,3.7661,3.8116,3.79,3.8147,3.8395,3.8495,3.8069,3.7899,3.7912,3.7907,3.7479,3.6951,3.7083,3.7224,3.7377,3.7155,3.7445,3.78,3.7482,3.7629,3.7913,3.7854,3.79,3.79,3.79,3.8762,3.9612,3.9564,4.0488,4.1161,4.0605,3.9753,3.907,3.9157,3.8501,3.7884,3.7574,3.7546,3.726,3.6493,3.6405,3.6405,3.6405,3.6857,3.7362,3.7939,3.8002,3.8454,3.9559,3.8328,3.7832,3.8462,3.718,3.6405,3.6405,3.6405,3.6405,3.6405,3.6405,3.6275,3.6015,3.574,3.5596,3.5596,3.4198,3.3824,0.0,0.0,0.0,2.6266,2.7003,2.7933,2.9149,2.9991,3.0734,3.141,3.1518,3.1793,3.2671,3.397,3.4997,3.5256,3.5153,3.5129,3.5345,3.5154,3.4921,3.4797,3.4912,3.4813,3.4424,3.4593,3.4489,3.3927,3.4201,3.4241,3.3901,3.441,3.4724,3.4724,3.5286,3.5757,3.6109,3.6249,3.6332,3.6332,3.5874,3.5639,3.5639,3.5334,3.5156,3.5113,3.6596,3.7329,3.7466,3.7646,3.8076,3.8565,3.8245,3.8115,3.8069,3.7965,3.7749,3.7526,3.7598,3.765,3.7701,3.7622,3.7748,3.786,3.7755,3.7821,3.79,3.79,3.79,3.79,3.79,3.8186,3.8801,4.0065,4.0848,4.111,4.0466,4.0274,3.9979,3.9279,3.9304,3.914,3.8244,3.7667,3.7316,3.7175,3.6821,3.6628,3.6828,3.6852,3.7099,3.7667,3.79,3.8165,3.858,3.814,3.7799,3.7722,3.6905,3.6405,3.6405,3.6405,3.6405,3.6405,3.6405,3.6181,3.5716,3.5668,3.5704,3.581,3.4443,3.428,2.4298,0.0,0.0,0.0,2.6037,2.6826,2.8017,2.9094,3.0079,3.093,3.1564,3.2055,3.245,3.3266,3.4116,3.478,3.4724,3.4679,3.4873,3.4902,3.482,3.4629,3.4761,3.4839,3.466,3.4577,3.4378,3.4024,3.4243,3.4241,3.3875,3.4201,3.4397,3.4397,3.4789,3.5168,3.5534,3.5534,3.5534,3.5521,3.4753,3.4384,3.4396,3.4425,3.4413,3.4478,3.5768,3.6619,3.708,3.7643,3.8108,3.8453,3.8349,3.8258,3.8167,3.7979,3.7854,3.7762,3.7762,3.7762,3.7749,3.7657,3.7749,3.79,3.7808,3.7854,3.79,3.79,3.79,3.788,3.7892,3.8166,3.8864,4.0345,4.0895,4.1023,4.0657,4.0644,4.0437,3.9647,3.9877,3.9891,3.889,3.8182,3.7691,3.7597,3.7137,3.6922,3.7147,3.71,3.7166,3.7546,3.7736,3.7928,3.8176,3.7988,3.7736,3.7457,3.6709,3.643,3.6725,3.6512,3.6499,3.6734,3.6794,3.6546,3.6086,3.5943,3.5978,3.6213,3.4881,3.4609,0.0,0.0,0.0,0.0,0.0,0.0,2.7393,0.0,2.9297,3.0879,3.1686,3.1979,3.1564,3.2124,3.306,3.4264,3.4272,3.411,3.3946,3.4253,3.4432,3.426,3.4753,3.51,3.5086,3.4921,3.4797,3.4771,3.4522,3.4384,3.4371,3.4384,3.4397,3.4397,3.4397,3.4397,3.4397,3.4397,3.4397,3.4397,3.4397,3.4397,3.4382,3.4412,3.4455,3.457,3.5323,3.6059,3.683,3.8256,3.8581,3.8258,3.8498,3.8408,3.8167,3.7979,3.7749,3.7505,3.7505,3.7505,3.7459,3.7214,3.7459,3.7854,3.7598,3.7703,3.79,3.79,3.79,3.7932,3.7919,3.8798,3.9818,4.0296,4.0603,4.0858,4.1181,4.0861,4.0466,4.0262,4.0211,3.9994,3.9461,3.9013,3.8523,3.766,3.7304,3.7206,3.7376,3.7517,3.7584,3.7584,3.755,3.7816,3.8526,3.792,3.7665,3.7985,3.6762,3.6468,3.7376,3.6772,3.6794,3.7505,3.7505,3.74,3.7108,3.664,3.6534,3.673,3.5587,3.4745,2.5387,0.0,0.0,0.0,0.0,0.0,0.0,0.0,2.7961,2.8945,2.9644,3.0269,3.0836,3.1571,3.2305,3.2891,3.3151,3.351,3.4246,3.4177,3.4384,3.5181,3.4914,3.4768,3.5073,3.4921,3.4625,0.0,3.4299,3.4228,3.3835,3.4188,3.4397,3.4397,3.4397,3.4397,3.4397,3.4397,3.4397,3.4397,3.4397,3.4402,3.4383,3.4388,3.5503,3.7389,3.6797,3.6875,3.7449,3.7705,3.8158,3.8684,3.8395,3.8258,3.8167,3.7979,3.7854,3.7808,3.7808,3.7808,3.7762,3.7703,3.7762,3.79,3.7808,3.7854,3.79,3.79,3.79,3.8103,3.8911,3.996,4.0561,3.9515,3.9622,4.0157,4.0618,4.0911,4.0974,4.0503,4.0287,4.0185,4.0198,3.9461,3.8803,3.87,3.8162,3.7745,3.7748,3.759,3.7565,3.7785,3.7627,3.781,3.8562,3.8155,3.7995,3.8319,3.7501,3.7232,3.7677,3.7513,3.75,3.773,3.7743,3.7789,3.788,3.742,3.742,3.7763,3.71,3.6191,0.0,0.0,0.0,0.0,0.0,0.0,2.5457,2.6118,2.6802,2.6796,2.7831,2.8823,2.9244,3.0132,3.0823,3.094,3.1165,3.193,3.3518,3.3636,3.3797,3.4405,3.4305,3.4351,3.4821,3.4685,3.4523,3.443,3.4517,3.4391,3.3953,3.4228,3.4397,3.4397,3.4494,3.4494,3.4397,3.44,3.44,3.4397,3.4397,3.4399,3.4452,3.5396,3.6977,3.8828,3.7874,3.7829,3.8347,3.8011,3.8251,3.8742,3.8485,3.8304,3.8167,3.7979,3.79,3.79,3.79,3.79,3.79,3.79,3.79,3.79,3.79,3.79,3.79,3.79,3.7899,3.8061,3.8718,3.9567,4.0009,3.9015,3.9259,3.9803,4.0074,4.0746,4.1143,4.0591,4.0313,4.0185,4.0173,3.936,3.8741,3.8868,3.8236,3.7724,3.7616,3.7482,3.7463,3.7539,3.7578,3.7807,3.8242,3.8038,3.8084,3.8392,3.802,3.7807,3.7959,3.7867,3.7913,3.8109,3.8232,3.8413,3.8666,3.8063,3.7768,3.7799,3.7596,3.6793,0.0,0.0,0.0,0.0,0.0,0.0,2.499,2.5512,2.5782,2.4898,2.628,2.7561,2.7366,2.8281,2.899,2.8746,2.8961,2.9972,3.2309,3.2759,3.2847,3.2863,3.3257,3.3809,3.4458,3.4326,3.4459,3.5032,3.488,3.466,3.4397,3.4397,3.4397,3.4397,3.466,3.4673,3.4397,3.443,3.443,3.4397,3.4397,3.4399,3.4478,3.6944,3.8445,3.9079,3.8604,3.8734,3.9267,3.8836,3.8647,3.8647,3.8602,3.8408,3.8167,3.7979,3.79,3.79,3.79,3.79,3.79,3.79,3.79,3.79,3.79,3.79,3.79,3.7946,3.7957,3.7979,3.7919,3.8437,3.8894,3.882,3.9267,3.973,3.9817,4.0417,4.0854,4.0613,4.0402,4.0134,3.979,3.9082,3.8524,3.8521,3.8031,3.7598,3.733,3.7492,3.7535,3.7382,3.7603,3.7835,3.7953,3.7979,3.8114,3.8378,3.8366,3.8346,3.8304,3.805,3.8141,3.8692,3.8778,3.8988,3.9305,3.8666,3.7932,3.7243,3.7414,3.6835,0.0,0.0,0.0,0.0,0.0,0.0,2.4887,2.483,2.4918,2.4941,2.5442,2.6106,2.6796,2.7499,2.7923,2.7655,2.8363,2.9737,3.1972,3.1618,3.1627,3.3108,3.283,3.3094,3.46,3.4406,3.4459,3.5032,3.4701,3.4452,3.4397,3.4397,3.4397,3.4397,3.466,3.4673,3.4397,3.4605,3.4605,3.4397,3.4397,3.4399,3.4521,3.7617,3.8654,3.8067,3.8801,3.9181,3.9295,3.9203,3.9024,3.8787,3.844,3.8258,3.8167,3.7979,3.79,3.79,3.79,3.79,3.79,3.79,3.79,3.79,3.79,3.79,3.7933,3.8089,3.8325,3.8423,3.8214,3.8859,3.9455,3.8925,3.9388,4.0101,4.0636,3.9593,3.9063,4.0815,4.0864,4.0555,4.0185,3.9753,3.9158,3.8247,3.8497,3.8728,3.8655,3.8726,3.8878,3.9073,3.8117,3.7959,3.9055,3.9084,3.9062,3.909,3.8823,3.8821,3.9083,3.8832,3.8832,3.9172,3.8742,3.8773,3.9305,3.9172,3.8519,3.7456,3.7485,3.6835,0.0,0.0,0.0,2.7108,0.0,0.0,0.0,2.4815,2.4845,2.4976,2.5097,2.5331,2.5817,2.6004,2.6162,2.6378,2.6919,2.7776,2.9131,2.966,3.0431,3.1865,3.1415,3.1688,3.3477,3.3444,3.3767,3.4869,3.4618,3.4397,3.4397,3.4397,3.4397,3.4397,3.466,3.4673,3.4397,3.4673,3.4673,3.4397,3.4397,3.4705,3.5319,3.7163,3.8081,3.8247,3.876,3.8989,3.91,3.91,3.9011,3.8863,3.853,3.8408,3.8362,3.8024,3.79,3.79,3.79,3.7979,3.8057,3.8207,3.833,3.8408,3.8557,3.8434,3.8285,3.8472,3.8485,3.8395,3.8517,3.8898,3.9293,3.9293,3.9816,4.0355,4.0509,4.0139,4.0114,4.1032,4.1134,4.1006,4.0759,4.0295,3.97,3.9109,3.8985,3.9105,3.9551,3.9459,3.9425,3.9641,3.889,3.8642,3.9361,3.9355,3.9321,3.9303,3.9141,3.9074,3.9114,3.91,3.9145,3.9305,3.8722,3.8708,3.9305,3.9007,3.841,3.7485,3.7485,3.6835,0.0,0.0,0.0,0.0,0.0,2.5972,0.0,0.0,0.0,2.499,0.0,0.0,0.0,0.0,0.0,2.5066,0.0,0.0,0.0,2.7223,0.0,2.9795,2.9528,2.9937,3.1573,3.1846,3.2585,3.4123,3.4078,3.3994,3.4071,3.428,3.4397,3.4397,3.466,3.4673,3.4397,3.4701,3.4686,3.4421,3.4625,3.5286,3.6267,3.6932,3.778,3.8823,3.8845,3.898,3.9162,3.9131,3.9087,3.9011,3.8679,3.8544,3.8557,3.8083,3.79,3.79,3.7992,3.8148,3.8349,3.8647,3.8845,3.9011,3.9247,3.9083,3.8904,3.9056,3.8908,3.8742,3.9042,3.9162,3.9264,3.9721,4.0308,4.0578,4.0145,4.0777,4.1336,4.1131,4.113,4.1161,4.1157,4.07,4.0213,3.994,3.9469,3.9349,3.9956,4.0076,4.0019,3.9847,3.9513,3.9306,3.9276,3.928,3.9305,3.9305,3.9247,3.9145,3.8997,3.9203,3.9305,3.9305,3.8722,3.8708,3.9305,3.8708,3.8122,3.7662,3.754,3.6903,0.0,0.0,0.0,0.0,2.8111,0.0,0.0,0.0,2.4985,2.5003,0.0,0.0,0.0,0.0,0.0,0.0,0.0,0.0,2.367,2.4286,2.5373,2.706,2.7305,2.7785,2.8947,2.9779,3.0777,3.2045,3.2279,3.2541,3.2855,3.3849,3.4397,3.4397,3.466,3.4673,3.4397,3.4825,3.4835,3.4419,3.5405,3.6218,3.6841,3.832,3.891,3.8863,3.9557,3.9938,4.0128,3.9938,3.9791,3.951,3.8575,3.8408,3.8557,3.8083,3.79,3.7946,3.8389,3.8557,3.8647,3.9083,3.9261,3.9247,3.9305,3.9557,3.9865,3.9865,4.0126,4.0343,3.9952,4.017,4.0386,4.0067,4.0356,4.0586,4.0241,4.0106,4.0239,4.0958,4.0813,4.0601,4.0676,4.0948,4.0685,3.9312,3.9783,4.0118,3.9562,4.0851,4.143,4.0337,3.9792,3.9411,3.9297,3.9319,3.9305,3.9305,3.9056,3.9056,3.9247,3.9292,3.9305,3.9305,3.8722,3.8708,3.9305,3.8708,3.8383,3.8301,3.7743,3.7161,0.0,0.0,0.0,0.0,0.0,0.0,2.7414,0.0,2.5304,0.0,0.0,0.0,0.0,0.0,0.0,0.0,2.3416,0.0,0.0,0.0,2.4093,2.6111,0.0,0.0,2.7719,2.8792,2.9909,3.123,3.1143,3.1825,3.3594,3.3528,3.3718,3.4384,3.4494,3.4522,3.4397,3.4743,3.4837,3.4625,3.5149,3.5831,3.6741,3.8198,3.8951,3.9114,3.9754,4.0039,4.0112,3.9895,3.9719,3.9601,3.9069,3.8904,3.8948,3.8466,3.8376,3.8485,3.8544,3.8782,3.9083,3.9716,4.0009,4.0126,4.0126,4.0156,4.0199,4.0227,4.0357,4.0416,4.027,4.0443,4.0659,4.043,4.0573,4.0616,4.0156,4.0288,4.0473,4.0574,4.0527,4.0505,4.0614,4.0972,4.1025,4.0301,4.032,4.0266,3.9941,4.0368,4.0976,4.1745,4.0332,3.9366,3.9319,3.9305,3.9305,3.9305,3.9203,3.9203,3.9305,3.9305,3.9142,3.879,3.8206,3.8149,3.879,3.8149,3.826,3.8925,3.8315,3.7718,3.4741,0.0,0.0,0.0,0.0,0.0,0.0,0.0,0.0,0.0,0.0,0.0,0.0,0.0,0.0,0.0,0.0,2.2731,0.0,2.2349,0.0,0.0,0.0,0.0,0.0,2.7283,2.8284,2.9811,2.979,3.0774,3.3114,3.3209,3.3542,3.4372,3.4376,3.4397,3.4397,3.4714,3.508,3.5414,3.5683,3.6465,3.7698,3.8708,3.9392,3.9763,4.0126,4.0286,4.0243,4.0012,3.9881,3.9807,3.9659,3.9584,3.954,3.8993,3.889,3.9011,3.898,3.9305,3.9791,4.0298,4.0587,4.0702,4.0702,4.0588,4.0531,4.063,4.0688,4.0702,4.0687,4.0801,4.0873,4.0744,4.0702,4.0573,4.0083,4.0399,4.0614,4.0078,4.011,4.0277,4.025,4.0485,4.0667,4.0724,4.0314,4.0047,4.0012,3.9757,4.0177,4.1751,4.0347,3.9305,3.9305,3.9305,3.9305,3.9305,3.9305,3.9305,3.9305,3.9305,3.9102,3.8667,3.8027,3.8027,3.8667,3.8027,3.8301,3.9292,3.8695,3.8149,0.0,0.0,0.0,3.2903,0.0,0.0,0.0,0.0,2.8025,0.0,0.0,0.0,0.0,0.0,0.0,0.0,0.0,0.0,0.0,0.0,0.0,0.0,0.0,0.0,0.0,2.4722,2.5234,2.7088,2.7864,2.8873,3.0274,3.2885,3.4363,3.4403,3.4414,3.4397,3.4397,3.4867,3.5702,3.6956,3.7742,3.8963,4.057,4.0616,4.0745,4.0958,4.0958,4.0958,4.0958,4.0773,4.0544,4.0356,4.0356,4.0356,4.0269,3.954,3.9305,3.9349,3.9777,4.0257,4.0659,4.0702,4.0702,4.0702,4.0702,4.0845,4.1043,4.1297,4.1507,4.1619,4.1438,4.1354,4.1269,4.083,4.0702,4.0573,4.0083,4.0211,4.0196,3.9465,3.9537,3.9639,3.939,3.9366,3.9456,3.9806,3.9533,3.9315,3.9346,3.9346,3.9346,3.9417,3.9332,3.9305,3.9305,3.9305,3.9305,3.9305,3.9305,3.9305,3.9305,3.9305,3.9292,3.9278,3.8695,3.8681,3.9278,3.8681,3.8708,3.9292,3.8695,3.841,0.0,0.0,3.7494,3.576,0.0,0.0,0.0,0.0,0.0,0.0,0.0,0.0,0.0,0.0,0.0,0.0,0.0,0.0,0.0,0.0,0.0,0.0,0.0,0.0,0.0,0.0,2.4312,2.6163,2.6398,2.7258,2.9069,3.0705,3.2457,3.4362,3.4393,3.4425,3.4397,3.5485,3.637,3.7023,3.8239,3.91,3.9686,4.0774,4.11,4.0816,4.1114,4.1142,4.1001,4.0773,4.0659,4.0587,4.0587,4.0587,4.0544,3.9966,3.9878,4.0037,4.0211,4.0457,4.0702,4.0702,4.0702,4.0702,4.0702,4.0944,4.1255,4.1142,4.1395,4.1604,4.1226,4.1142,4.1057,4.0773,4.0702,4.0573,4.0083,4.0053,3.9966,3.9394,3.951,3.9656,3.9598,3.9435,3.9346,3.9465,3.9384,3.9312,3.9292,3.9282,3.9312,3.9292,3.9305,3.9305,3.9305,3.9305,3.9305,3.9305,3.9305,3.9305,3.9305,3.9305,3.8925,3.8095,3.7892,3.7878,3.8095,3.7878,3.8342,3.9305,3.9102,3.9007,4.0641,4.0201,0.0,3.7411,3.6533,0.0,3.4243,0.0,3.4277,0.0,0.0,0.0,0.0,0.0,0.0,0.0,0.0,0.0,0.0,2.2668,0.0,0.0,0.0,0.0,0.0,2.2715,2.3634,2.5151,2.5615,2.6617,2.8492,2.9507,3.1129,3.3542,3.4113,3.4402,3.4397,3.55,3.659,3.7576,3.8407,3.9173,3.9872,4.1184,4.151,4.1029,4.1255,4.1142,4.0887,4.073,4.0702,4.0702,4.0702,4.0702,4.0659,4.0343,4.0371,4.0515,4.0515,4.0587,4.0702,4.0702,4.073,4.0816,4.0816,4.1086,4.1354,4.1198,4.1395,4.1604,4.1128,4.1057,4.1071,4.0773,4.0702,4.0573,4.0083,4.0053,4.0009,3.954,3.9628,3.9818,3.9818,3.9648,3.9533,3.9496,3.9397,3.9339,3.9533,3.938,3.9326,3.9292,3.9305,3.9305,3.9305,3.9305,3.9305,3.9305,3.9305,3.9305,3.9305,3.9305,3.8939,3.8136,3.7919,3.7919,3.8122,3.7905,3.8355,3.9305,3.9305,3.9349]}]]